<?xml version="1.0" encoding="UTF-8" standalone="no" ?>
<gpx xmlns="http://www.topografix.com/GPX/1/1" xmlns:xsi="http://www.w3.org/2001/XMLSchema-instance" xsi:schemaLocation="http://www.topografix.com/GPX/1/1 http://www.topografix.com/GPX/1/1/gpx.xsd" version="1.1" creator="VisuGPX - https://www.visugpx.com">
  <metadata>
    <name>sortie creuzier liage busset du 11 04 2015 </name>
    <desc><![CDATA[sortie au depart de creuzier reconnaissance de quelques chemins ,
trace dégagé tout passe vélo.
 ]]></desc>
  </metadata>
  <trk>
    <name><![CDATA[2015-04-11 13:13]]></name>
    <desc><![CDATA[<h1>OruxMaps</h1><br /><hr align="center" width="480" style="height: 2px; width: 517px"/><h2>Nom: 2015-04-11 13:13</h2><br /><p>Temps de départ: 04/11/2015 13:55</p><p>Temps d'arrivée: 04/11/2015 17:56</p><p>Distance: 48,4km (04:01)</p><p>Temps déplacement: 03:04</p><p>Vitesse moyenne: 12km/h</p><p>Vitesse moyenne: 15,8km/h</p><p>Vitess Max.: 50km/h</p><p>Altitude minimale: 267m</p><p>Altitude maximale: 544m</p><p>Vitesse d'élévation: 617,3m/h</p><p>Vitesse de descente: -1149,5m/h</p><p>Gain Altitude: 1406m</p><p>Perte Altitude: -1405m</p><p>Temps d'élévation: 02:16</p><p>Temps de descente: 01:13</p><hr align="center" width="480" style="height: 2px; width: 517px"/>]]></desc>
    <trkseg>
      <trkpt lat="46.17245" lon="3.43926">
        <ele>323.55</ele>
        <time>2015-04-11T11:55:33Z</time>
      </trkpt>
      <trkpt lat="46.17224" lon="3.43928">
        <ele>329.43</ele>
        <time>2015-04-11T11:55:46Z</time>
      </trkpt>
      <trkpt lat="46.17204" lon="3.43934">
        <ele>325.15</ele>
        <time>2015-04-11T11:55:53Z</time>
      </trkpt>
      <trkpt lat="46.17182" lon="3.43939">
        <ele>330</ele>
        <time>2015-04-11T11:56:02Z</time>
      </trkpt>
      <trkpt lat="46.17164" lon="3.43943">
        <ele>330.55</ele>
        <time>2015-04-11T11:56:11Z</time>
      </trkpt>
      <trkpt lat="46.17146" lon="3.43951">
        <ele>330.55</ele>
        <time>2015-04-11T11:56:21Z</time>
      </trkpt>
      <trkpt lat="46.17129" lon="3.43962">
        <ele>330.55</ele>
        <time>2015-04-11T11:56:30Z</time>
      </trkpt>
      <trkpt lat="46.17111" lon="3.43971">
        <ele>330.55</ele>
        <time>2015-04-11T11:56:40Z</time>
      </trkpt>
      <trkpt lat="46.17091" lon="3.43979">
        <ele>330.55</ele>
        <time>2015-04-11T11:56:50Z</time>
      </trkpt>
      <trkpt lat="46.17073" lon="3.43988">
        <ele>331.05</ele>
        <time>2015-04-11T11:56:58Z</time>
      </trkpt>
      <trkpt lat="46.17056" lon="3.43999">
        <ele>332.05</ele>
        <time>2015-04-11T11:57:06Z</time>
      </trkpt>
      <trkpt lat="46.17038" lon="3.44005">
        <ele>333.49</ele>
        <time>2015-04-11T11:57:14Z</time>
      </trkpt>
      <trkpt lat="46.1702" lon="3.44014">
        <ele>334.49</ele>
        <time>2015-04-11T11:57:22Z</time>
      </trkpt>
      <trkpt lat="46.17003" lon="3.44022">
        <ele>334.55</ele>
        <time>2015-04-11T11:57:30Z</time>
      </trkpt>
      <trkpt lat="46.16983" lon="3.44024">
        <ele>335.43</ele>
        <time>2015-04-11T11:57:39Z</time>
      </trkpt>
      <trkpt lat="46.16964" lon="3.44024">
        <ele>336.49</ele>
        <time>2015-04-11T11:57:47Z</time>
      </trkpt>
      <trkpt lat="46.16945" lon="3.44029">
        <ele>337.52</ele>
        <time>2015-04-11T11:57:55Z</time>
      </trkpt>
      <trkpt lat="46.16927" lon="3.44037">
        <ele>338.54</ele>
        <time>2015-04-11T11:58:04Z</time>
      </trkpt>
      <trkpt lat="46.16908" lon="3.44042">
        <ele>339.54</ele>
        <time>2015-04-11T11:58:11Z</time>
      </trkpt>
      <trkpt lat="46.16889" lon="3.44044">
        <ele>341.29</ele>
        <time>2015-04-11T11:58:17Z</time>
      </trkpt>
      <trkpt lat="46.16868" lon="3.4405">
        <ele>342.52</ele>
        <time>2015-04-11T11:58:24Z</time>
      </trkpt>
      <trkpt lat="46.16852" lon="3.44069">
        <ele>344.42</ele>
        <time>2015-04-11T11:58:32Z</time>
      </trkpt>
      <trkpt lat="46.16841" lon="3.44091">
        <ele>345.52</ele>
        <time>2015-04-11T11:58:39Z</time>
      </trkpt>
      <trkpt lat="46.1683" lon="3.44112">
        <ele>347.04</ele>
        <time>2015-04-11T11:58:46Z</time>
      </trkpt>
      <trkpt lat="46.16818" lon="3.44134">
        <ele>348.05</ele>
        <time>2015-04-11T11:58:53Z</time>
      </trkpt>
      <trkpt lat="46.16809" lon="3.4416">
        <ele>349.3</ele>
        <time>2015-04-11T11:59:00Z</time>
      </trkpt>
      <trkpt lat="46.16802" lon="3.44185">
        <ele>350.43</ele>
        <time>2015-04-11T11:59:07Z</time>
      </trkpt>
      <trkpt lat="46.16795" lon="3.44211">
        <ele>351.49</ele>
        <time>2015-04-11T11:59:14Z</time>
      </trkpt>
      <trkpt lat="46.1679" lon="3.44239">
        <ele>352.54</ele>
        <time>2015-04-11T11:59:22Z</time>
      </trkpt>
      <trkpt lat="46.1678" lon="3.44265">
        <ele>353.55</ele>
        <time>2015-04-11T11:59:29Z</time>
      </trkpt>
      <trkpt lat="46.16762" lon="3.44273">
        <ele>355.04</ele>
        <time>2015-04-11T11:59:35Z</time>
      </trkpt>
      <trkpt lat="46.16745" lon="3.44282">
        <ele>356.04</ele>
        <time>2015-04-11T11:59:41Z</time>
      </trkpt>
      <trkpt lat="46.16727" lon="3.4429">
        <ele>357.3</ele>
        <time>2015-04-11T11:59:48Z</time>
      </trkpt>
      <trkpt lat="46.16708" lon="3.44297">
        <ele>358.43</ele>
        <time>2015-04-11T11:59:55Z</time>
      </trkpt>
      <trkpt lat="46.1669" lon="3.44306">
        <ele>359.52</ele>
        <time>2015-04-11T12:00:02Z</time>
      </trkpt>
      <trkpt lat="46.16673" lon="3.44318">
        <ele>361.29</ele>
        <time>2015-04-11T12:00:08Z</time>
      </trkpt>
      <trkpt lat="46.16656" lon="3.44333">
        <ele>362.49</ele>
        <time>2015-04-11T12:00:14Z</time>
      </trkpt>
      <trkpt lat="46.16637" lon="3.44344">
        <ele>364.04</ele>
        <time>2015-04-11T12:00:20Z</time>
      </trkpt>
      <trkpt lat="46.1662" lon="3.44355">
        <ele>365.42</ele>
        <time>2015-04-11T12:00:26Z</time>
      </trkpt>
      <trkpt lat="46.16602" lon="3.44366">
        <ele>367.02</ele>
        <time>2015-04-11T12:00:32Z</time>
      </trkpt>
      <trkpt lat="46.16583" lon="3.44374">
        <ele>368.42</ele>
        <time>2015-04-11T12:00:38Z</time>
      </trkpt>
      <trkpt lat="46.16563" lon="3.44385">
        <ele>370.02</ele>
        <time>2015-04-11T12:00:44Z</time>
      </trkpt>
      <trkpt lat="46.16546" lon="3.44393">
        <ele>371.04</ele>
        <time>2015-04-11T12:00:49Z</time>
      </trkpt>
      <trkpt lat="46.16528" lon="3.44404">
        <ele>372.29</ele>
        <time>2015-04-11T12:00:54Z</time>
      </trkpt>
      <trkpt lat="46.16512" lon="3.44417">
        <ele>373.04</ele>
        <time>2015-04-11T12:00:59Z</time>
      </trkpt>
      <trkpt lat="46.16497" lon="3.44434">
        <ele>374.04</ele>
        <time>2015-04-11T12:01:04Z</time>
      </trkpt>
      <trkpt lat="46.16481" lon="3.44451">
        <ele>374.54</ele>
        <time>2015-04-11T12:01:09Z</time>
      </trkpt>
      <trkpt lat="46.16466" lon="3.44469">
        <ele>375.52</ele>
        <time>2015-04-11T12:01:14Z</time>
      </trkpt>
      <trkpt lat="46.16449" lon="3.44484">
        <ele>379.8</ele>
        <time>2015-04-11T12:01:19Z</time>
      </trkpt>
      <trkpt lat="46.16431" lon="3.44499">
        <ele>381.97</ele>
        <time>2015-04-11T12:01:24Z</time>
      </trkpt>
      <trkpt lat="46.16416" lon="3.44518">
        <ele>382.53</ele>
        <time>2015-04-11T12:01:29Z</time>
      </trkpt>
      <trkpt lat="46.16401" lon="3.44533">
        <ele>382.55</ele>
        <time>2015-04-11T12:01:34Z</time>
      </trkpt>
      <trkpt lat="46.16384" lon="3.4455">
        <ele>382.55</ele>
        <time>2015-04-11T12:01:40Z</time>
      </trkpt>
      <trkpt lat="46.16368" lon="3.44565">
        <ele>382.55</ele>
        <time>2015-04-11T12:01:45Z</time>
      </trkpt>
      <trkpt lat="46.1635" lon="3.44569">
        <ele>382.55</ele>
        <time>2015-04-11T12:01:50Z</time>
      </trkpt>
      <trkpt lat="46.16332" lon="3.44572">
        <ele>383.52</ele>
        <time>2015-04-11T12:01:55Z</time>
      </trkpt>
      <trkpt lat="46.16312" lon="3.44578">
        <ele>383.55</ele>
        <time>2015-04-11T12:02:00Z</time>
      </trkpt>
      <trkpt lat="46.16294" lon="3.44584">
        <ele>385.96</ele>
        <time>2015-04-11T12:02:05Z</time>
      </trkpt>
      <trkpt lat="46.16276" lon="3.44593">
        <ele>387.28</ele>
        <time>2015-04-11T12:02:10Z</time>
      </trkpt>
      <trkpt lat="46.16257" lon="3.44602">
        <ele>387.55</ele>
        <time>2015-04-11T12:02:16Z</time>
      </trkpt>
      <trkpt lat="46.16238" lon="3.44608">
        <ele>387.55</ele>
        <time>2015-04-11T12:02:22Z</time>
      </trkpt>
      <trkpt lat="46.16219" lon="3.44612">
        <ele>387.55</ele>
        <time>2015-04-11T12:02:28Z</time>
      </trkpt>
      <trkpt lat="46.16197" lon="3.44615">
        <ele>388.05</ele>
        <time>2015-04-11T12:02:33Z</time>
      </trkpt>
      <trkpt lat="46.16177" lon="3.44623">
        <ele>388.52</ele>
        <time>2015-04-11T12:02:37Z</time>
      </trkpt>
      <trkpt lat="46.16163" lon="3.44645">
        <ele>388.55</ele>
        <time>2015-04-11T12:02:41Z</time>
      </trkpt>
      <trkpt lat="46.16149" lon="3.44666">
        <ele>388.55</ele>
        <time>2015-04-11T12:02:45Z</time>
      </trkpt>
      <trkpt lat="46.16136" lon="3.44685">
        <ele>388.55</ele>
        <time>2015-04-11T12:02:49Z</time>
      </trkpt>
      <trkpt lat="46.16121" lon="3.44705">
        <ele>388.55</ele>
        <time>2015-04-11T12:02:54Z</time>
      </trkpt>
      <trkpt lat="46.161" lon="3.44702">
        <ele>389.43</ele>
        <time>2015-04-11T12:02:59Z</time>
      </trkpt>
      <trkpt lat="46.1608" lon="3.44696">
        <ele>390.49</ele>
        <time>2015-04-11T12:03:04Z</time>
      </trkpt>
      <trkpt lat="46.1606" lon="3.4469">
        <ele>391.49</ele>
        <time>2015-04-11T12:03:08Z</time>
      </trkpt>
      <trkpt lat="46.16041" lon="3.44685">
        <ele>392.49</ele>
        <time>2015-04-11T12:03:12Z</time>
      </trkpt>
      <trkpt lat="46.16023" lon="3.44685">
        <ele>393.49</ele>
        <time>2015-04-11T12:03:16Z</time>
      </trkpt>
      <trkpt lat="46.16004" lon="3.4469">
        <ele>393.55</ele>
        <time>2015-04-11T12:03:20Z</time>
      </trkpt>
      <trkpt lat="46.15986" lon="3.44696">
        <ele>392.62</ele>
        <time>2015-04-11T12:03:24Z</time>
      </trkpt>
      <trkpt lat="46.15968" lon="3.44702">
        <ele>392.56</ele>
        <time>2015-04-11T12:03:28Z</time>
      </trkpt>
      <trkpt lat="46.15949" lon="3.44705">
        <ele>392.55</ele>
        <time>2015-04-11T12:03:32Z</time>
      </trkpt>
      <trkpt lat="46.15927" lon="3.44709">
        <ele>392.55</ele>
        <time>2015-04-11T12:03:36Z</time>
      </trkpt>
      <trkpt lat="46.15906" lon="3.44713">
        <ele>392.55</ele>
        <time>2015-04-11T12:03:40Z</time>
      </trkpt>
      <trkpt lat="46.15885" lon="3.4472">
        <ele>392.55</ele>
        <time>2015-04-11T12:03:44Z</time>
      </trkpt>
      <trkpt lat="46.15866" lon="3.44733">
        <ele>392.55</ele>
        <time>2015-04-11T12:03:48Z</time>
      </trkpt>
      <trkpt lat="46.15846" lon="3.44743">
        <ele>392.55</ele>
        <time>2015-04-11T12:03:52Z</time>
      </trkpt>
      <trkpt lat="46.15829" lon="3.44752">
        <ele>392.55</ele>
        <time>2015-04-11T12:03:55Z</time>
      </trkpt>
      <trkpt lat="46.15811" lon="3.44763">
        <ele>392.55</ele>
        <time>2015-04-11T12:03:58Z</time>
      </trkpt>
      <trkpt lat="46.15793" lon="3.44771">
        <ele>392.55</ele>
        <time>2015-04-11T12:04:01Z</time>
      </trkpt>
      <trkpt lat="46.15774" lon="3.44782">
        <ele>392.55</ele>
        <time>2015-04-11T12:04:04Z</time>
      </trkpt>
      <trkpt lat="46.15752" lon="3.4479">
        <ele>393.3</ele>
        <time>2015-04-11T12:04:07Z</time>
      </trkpt>
      <trkpt lat="46.15728" lon="3.44797">
        <ele>393.52</ele>
        <time>2015-04-11T12:04:10Z</time>
      </trkpt>
      <trkpt lat="46.15701" lon="3.44805">
        <ele>392.8</ele>
        <time>2015-04-11T12:04:13Z</time>
      </trkpt>
      <trkpt lat="46.15674" lon="3.44814">
        <ele>392.58</ele>
        <time>2015-04-11T12:04:16Z</time>
      </trkpt>
      <trkpt lat="46.1565" lon="3.44827">
        <ele>391.68</ele>
        <time>2015-04-11T12:04:19Z</time>
      </trkpt>
      <trkpt lat="46.15639" lon="3.44851">
        <ele>391.07</ele>
        <time>2015-04-11T12:04:22Z</time>
      </trkpt>
      <trkpt lat="46.15626" lon="3.44881">
        <ele>390.12</ele>
        <time>2015-04-11T12:04:25Z</time>
      </trkpt>
      <trkpt lat="46.15609" lon="3.449">
        <ele>389.19</ele>
        <time>2015-04-11T12:04:27Z</time>
      </trkpt>
      <trkpt lat="46.15589" lon="3.44915">
        <ele>387.96</ele>
        <time>2015-04-11T12:04:29Z</time>
      </trkpt>
      <trkpt lat="46.15569" lon="3.44926">
        <ele>386.41</ele>
        <time>2015-04-11T12:04:31Z</time>
      </trkpt>
      <trkpt lat="46.15546" lon="3.44939">
        <ele>385.66</ele>
        <time>2015-04-11T12:04:34Z</time>
      </trkpt>
      <trkpt lat="46.15546" lon="3.44966">
        <ele>385.12</ele>
        <time>2015-04-11T12:04:39Z</time>
      </trkpt>
      <trkpt lat="46.15559" lon="3.44986">
        <ele>386.28</ele>
        <time>2015-04-11T12:04:43Z</time>
      </trkpt>
      <trkpt lat="46.15568" lon="3.45011">
        <ele>387.29</ele>
        <time>2015-04-11T12:04:47Z</time>
      </trkpt>
      <trkpt lat="46.15574" lon="3.45039">
        <ele>387.54</ele>
        <time>2015-04-11T12:04:51Z</time>
      </trkpt>
      <trkpt lat="46.15579" lon="3.45065">
        <ele>388.43</ele>
        <time>2015-04-11T12:04:55Z</time>
      </trkpt>
      <trkpt lat="46.15582" lon="3.45093">
        <ele>388.55</ele>
        <time>2015-04-11T12:05:00Z</time>
      </trkpt>
      <trkpt lat="46.15583" lon="3.45123">
        <ele>388.55</ele>
        <time>2015-04-11T12:05:05Z</time>
      </trkpt>
      <trkpt lat="46.15583" lon="3.45151">
        <ele>387.8</ele>
        <time>2015-04-11T12:05:10Z</time>
      </trkpt>
      <trkpt lat="46.15588" lon="3.45179">
        <ele>387.06</ele>
        <time>2015-04-11T12:05:15Z</time>
      </trkpt>
      <trkpt lat="46.15591" lon="3.45209">
        <ele>386.57</ele>
        <time>2015-04-11T12:05:20Z</time>
      </trkpt>
      <trkpt lat="46.15592" lon="3.45243">
        <ele>387.43</ele>
        <time>2015-04-11T12:05:25Z</time>
      </trkpt>
      <trkpt lat="46.15587" lon="3.45271">
        <ele>386.8</ele>
        <time>2015-04-11T12:05:29Z</time>
      </trkpt>
      <trkpt lat="46.15574" lon="3.45297">
        <ele>386.07</ele>
        <time>2015-04-11T12:05:33Z</time>
      </trkpt>
      <trkpt lat="46.15561" lon="3.45323">
        <ele>384.84</ele>
        <time>2015-04-11T12:05:37Z</time>
      </trkpt>
      <trkpt lat="46.15552" lon="3.45346">
        <ele>384.57</ele>
        <time>2015-04-11T12:05:41Z</time>
      </trkpt>
      <trkpt lat="46.15554" lon="3.45374">
        <ele>384.55</ele>
        <time>2015-04-11T12:05:47Z</time>
      </trkpt>
      <trkpt lat="46.15562" lon="3.45402">
        <ele>387.18</ele>
        <time>2015-04-11T12:05:52Z</time>
      </trkpt>
      <trkpt lat="46.15573" lon="3.45434">
        <ele>391.97</ele>
        <time>2015-04-11T12:05:56Z</time>
      </trkpt>
      <trkpt lat="46.15577" lon="3.45469">
        <ele>391.98</ele>
        <time>2015-04-11T12:05:59Z</time>
      </trkpt>
      <trkpt lat="46.15572" lon="3.45496">
        <ele>391.16</ele>
        <time>2015-04-11T12:06:01Z</time>
      </trkpt>
      <trkpt lat="46.15559" lon="3.45529">
        <ele>388.2</ele>
        <time>2015-04-11T12:06:03Z</time>
      </trkpt>
      <trkpt lat="46.15547" lon="3.45559">
        <ele>385.72</ele>
        <time>2015-04-11T12:06:05Z</time>
      </trkpt>
      <trkpt lat="46.15544" lon="3.45593">
        <ele>380.59</ele>
        <time>2015-04-11T12:06:07Z</time>
      </trkpt>
      <trkpt lat="46.15543" lon="3.45627">
        <ele>374.31</ele>
        <time>2015-04-11T12:06:09Z</time>
      </trkpt>
      <trkpt lat="46.15548" lon="3.45657">
        <ele>368.99</ele>
        <time>2015-04-11T12:06:11Z</time>
      </trkpt>
      <trkpt lat="46.15571" lon="3.4569">
        <ele>365.16</ele>
        <time>2015-04-11T12:06:13Z</time>
      </trkpt>
      <trkpt lat="46.15588" lon="3.45711">
        <ele>362.21</ele>
        <time>2015-04-11T12:06:15Z</time>
      </trkpt>
      <trkpt lat="46.15609" lon="3.45732">
        <ele>360.76</ele>
        <time>2015-04-11T12:06:18Z</time>
      </trkpt>
      <trkpt lat="46.1562" lon="3.45762">
        <ele>361.33</ele>
        <time>2015-04-11T12:06:21Z</time>
      </trkpt>
      <trkpt lat="46.15616" lon="3.4579">
        <ele>362.27</ele>
        <time>2015-04-11T12:06:24Z</time>
      </trkpt>
      <trkpt lat="46.15605" lon="3.45818">
        <ele>361.79</ele>
        <time>2015-04-11T12:06:28Z</time>
      </trkpt>
      <trkpt lat="46.15596" lon="3.45842">
        <ele>358.51</ele>
        <time>2015-04-11T12:06:32Z</time>
      </trkpt>
      <trkpt lat="46.1558" lon="3.45857">
        <ele>355.92</ele>
        <time>2015-04-11T12:06:36Z</time>
      </trkpt>
      <trkpt lat="46.15561" lon="3.45863">
        <ele>355.76</ele>
        <time>2015-04-11T12:06:40Z</time>
      </trkpt>
      <trkpt lat="46.15555" lon="3.45896">
        <ele>357.9</ele>
        <time>2015-04-11T12:06:45Z</time>
      </trkpt>
      <trkpt lat="46.15558" lon="3.4593">
        <ele>360.6</ele>
        <time>2015-04-11T12:06:48Z</time>
      </trkpt>
      <trkpt lat="46.1556" lon="3.45966">
        <ele>361.81</ele>
        <time>2015-04-11T12:06:51Z</time>
      </trkpt>
      <trkpt lat="46.15561" lon="3.46001">
        <ele>357.33</ele>
        <time>2015-04-11T12:06:54Z</time>
      </trkpt>
      <trkpt lat="46.15561" lon="3.46033">
        <ele>351.53</ele>
        <time>2015-04-11T12:06:57Z</time>
      </trkpt>
      <trkpt lat="46.15561" lon="3.46065">
        <ele>346.61</ele>
        <time>2015-04-11T12:07:01Z</time>
      </trkpt>
      <trkpt lat="46.15547" lon="3.46087">
        <ele>343.32</ele>
        <time>2015-04-11T12:07:07Z</time>
      </trkpt>
      <trkpt lat="46.15537" lon="3.46108">
        <ele>333.41</ele>
        <time>2015-04-11T12:07:11Z</time>
      </trkpt>
      <trkpt lat="46.15524" lon="3.46138">
        <ele>328.17</ele>
        <time>2015-04-11T12:07:15Z</time>
      </trkpt>
      <trkpt lat="46.15515" lon="3.46162">
        <ele>326.01</ele>
        <time>2015-04-11T12:07:18Z</time>
      </trkpt>
      <trkpt lat="46.15509" lon="3.46187">
        <ele>324.86</ele>
        <time>2015-04-11T12:07:21Z</time>
      </trkpt>
      <trkpt lat="46.15502" lon="3.46213">
        <ele>323.22</ele>
        <time>2015-04-11T12:07:24Z</time>
      </trkpt>
      <trkpt lat="46.15496" lon="3.46239">
        <ele>321.89</ele>
        <time>2015-04-11T12:07:27Z</time>
      </trkpt>
      <trkpt lat="46.15488" lon="3.46262">
        <ele>320.72</ele>
        <time>2015-04-11T12:07:30Z</time>
      </trkpt>
      <trkpt lat="46.15479" lon="3.46293">
        <ele>319.63</ele>
        <time>2015-04-11T12:07:34Z</time>
      </trkpt>
      <trkpt lat="46.15469" lon="3.46323">
        <ele>319.56</ele>
        <time>2015-04-11T12:07:38Z</time>
      </trkpt>
      <trkpt lat="46.15458" lon="3.46353">
        <ele>319.55</ele>
        <time>2015-04-11T12:07:42Z</time>
      </trkpt>
      <trkpt lat="46.15449" lon="3.46376">
        <ele>320.3</ele>
        <time>2015-04-11T12:07:45Z</time>
      </trkpt>
      <trkpt lat="46.15439" lon="3.46404">
        <ele>319.77</ele>
        <time>2015-04-11T12:07:48Z</time>
      </trkpt>
      <trkpt lat="46.1543" lon="3.46432">
        <ele>318.71</ele>
        <time>2015-04-11T12:07:51Z</time>
      </trkpt>
      <trkpt lat="46.15422" lon="3.46462">
        <ele>317.7</ele>
        <time>2015-04-11T12:07:54Z</time>
      </trkpt>
      <trkpt lat="46.15412" lon="3.4649">
        <ele>317.57</ele>
        <time>2015-04-11T12:07:57Z</time>
      </trkpt>
      <trkpt lat="46.154" lon="3.46516">
        <ele>317.06</ele>
        <time>2015-04-11T12:08:00Z</time>
      </trkpt>
      <trkpt lat="46.15388" lon="3.46539">
        <ele>316.62</ele>
        <time>2015-04-11T12:08:03Z</time>
      </trkpt>
      <trkpt lat="46.15375" lon="3.46561">
        <ele>316.56</ele>
        <time>2015-04-11T12:08:06Z</time>
      </trkpt>
      <trkpt lat="46.15362" lon="3.46582">
        <ele>316.55</ele>
        <time>2015-04-11T12:08:09Z</time>
      </trkpt>
      <trkpt lat="46.15346" lon="3.46604">
        <ele>316.55</ele>
        <time>2015-04-11T12:08:13Z</time>
      </trkpt>
      <trkpt lat="46.15329" lon="3.46593">
        <ele>316.55</ele>
        <time>2015-04-11T12:08:17Z</time>
      </trkpt>
      <trkpt lat="46.15315" lon="3.46569">
        <ele>317.3</ele>
        <time>2015-04-11T12:08:21Z</time>
      </trkpt>
      <trkpt lat="46.15297" lon="3.46552">
        <ele>317.55</ele>
        <time>2015-04-11T12:08:26Z</time>
      </trkpt>
      <trkpt lat="46.15281" lon="3.46539">
        <ele>316.62</ele>
        <time>2015-04-11T12:08:31Z</time>
      </trkpt>
      <trkpt lat="46.15266" lon="3.46524">
        <ele>317.52</ele>
        <time>2015-04-11T12:08:36Z</time>
      </trkpt>
      <trkpt lat="46.15253" lon="3.46505">
        <ele>318.3</ele>
        <time>2015-04-11T12:08:41Z</time>
      </trkpt>
      <trkpt lat="46.15243" lon="3.46479">
        <ele>318.55</ele>
        <time>2015-04-11T12:08:47Z</time>
      </trkpt>
      <trkpt lat="46.15229" lon="3.46458">
        <ele>318.55</ele>
        <time>2015-04-11T12:08:53Z</time>
      </trkpt>
      <trkpt lat="46.15213" lon="3.46438">
        <ele>318.55</ele>
        <time>2015-04-11T12:08:59Z</time>
      </trkpt>
      <trkpt lat="46.15194" lon="3.46423">
        <ele>319.52</ele>
        <time>2015-04-11T12:09:05Z</time>
      </trkpt>
      <trkpt lat="46.15177" lon="3.46413">
        <ele>320.43</ele>
        <time>2015-04-11T12:09:10Z</time>
      </trkpt>
      <trkpt lat="46.15157" lon="3.464">
        <ele>322.36</ele>
        <time>2015-04-11T12:09:15Z</time>
      </trkpt>
      <trkpt lat="46.15137" lon="3.46387">
        <ele>323.52</ele>
        <time>2015-04-11T12:09:20Z</time>
      </trkpt>
      <trkpt lat="46.15121" lon="3.4637">
        <ele>322.8</ele>
        <time>2015-04-11T12:09:25Z</time>
      </trkpt>
      <trkpt lat="46.15109" lon="3.46348">
        <ele>323.31</ele>
        <time>2015-04-11T12:09:30Z</time>
      </trkpt>
      <trkpt lat="46.15098" lon="3.4632">
        <ele>323.55</ele>
        <time>2015-04-11T12:09:36Z</time>
      </trkpt>
      <trkpt lat="46.15082" lon="3.46301">
        <ele>323.55</ele>
        <time>2015-04-11T12:09:42Z</time>
      </trkpt>
      <trkpt lat="46.15062" lon="3.46299">
        <ele>323.55</ele>
        <time>2015-04-11T12:09:47Z</time>
      </trkpt>
      <trkpt lat="46.15042" lon="3.46305">
        <ele>323.55</ele>
        <time>2015-04-11T12:09:52Z</time>
      </trkpt>
      <trkpt lat="46.15024" lon="3.46318">
        <ele>324.52</ele>
        <time>2015-04-11T12:09:57Z</time>
      </trkpt>
      <trkpt lat="46.15008" lon="3.46331">
        <ele>324.55</ele>
        <time>2015-04-11T12:10:02Z</time>
      </trkpt>
      <trkpt lat="46.1499" lon="3.46346">
        <ele>325.43</ele>
        <time>2015-04-11T12:10:08Z</time>
      </trkpt>
      <trkpt lat="46.14971" lon="3.46359">
        <ele>326.05</ele>
        <time>2015-04-11T12:10:14Z</time>
      </trkpt>
      <trkpt lat="46.14954" lon="3.46372">
        <ele>326.55</ele>
        <time>2015-04-11T12:10:20Z</time>
      </trkpt>
      <trkpt lat="46.14937" lon="3.46385">
        <ele>327.52</ele>
        <time>2015-04-11T12:10:26Z</time>
      </trkpt>
      <trkpt lat="46.14919" lon="3.46395">
        <ele>328.3</ele>
        <time>2015-04-11T12:10:32Z</time>
      </trkpt>
      <trkpt lat="46.14899" lon="3.46404">
        <ele>328.55</ele>
        <time>2015-04-11T12:10:38Z</time>
      </trkpt>
      <trkpt lat="46.1488" lon="3.46408">
        <ele>329.3</ele>
        <time>2015-04-11T12:10:44Z</time>
      </trkpt>
      <trkpt lat="46.1486" lon="3.46411">
        <ele>329.55</ele>
        <time>2015-04-11T12:10:50Z</time>
      </trkpt>
      <trkpt lat="46.14839" lon="3.46408">
        <ele>330.49</ele>
        <time>2015-04-11T12:10:56Z</time>
      </trkpt>
      <trkpt lat="46.14821" lon="3.46406">
        <ele>331.05</ele>
        <time>2015-04-11T12:11:01Z</time>
      </trkpt>
      <trkpt lat="46.14801" lon="3.46404">
        <ele>331.55</ele>
        <time>2015-04-11T12:11:07Z</time>
      </trkpt>
      <trkpt lat="46.1478" lon="3.464">
        <ele>332.52</ele>
        <time>2015-04-11T12:11:13Z</time>
      </trkpt>
      <trkpt lat="46.14762" lon="3.46395">
        <ele>333.3</ele>
        <time>2015-04-11T12:11:18Z</time>
      </trkpt>
      <trkpt lat="46.14744" lon="3.46393">
        <ele>333.55</ele>
        <time>2015-04-11T12:11:23Z</time>
      </trkpt>
      <trkpt lat="46.14722" lon="3.46391">
        <ele>334.49</ele>
        <time>2015-04-11T12:11:29Z</time>
      </trkpt>
      <trkpt lat="46.14703" lon="3.46393">
        <ele>334.55</ele>
        <time>2015-04-11T12:11:35Z</time>
      </trkpt>
      <trkpt lat="46.14682" lon="3.46398">
        <ele>335.05</ele>
        <time>2015-04-11T12:11:41Z</time>
      </trkpt>
      <trkpt lat="46.14661" lon="3.46402">
        <ele>335.55</ele>
        <time>2015-04-11T12:11:47Z</time>
      </trkpt>
      <trkpt lat="46.14643" lon="3.46404">
        <ele>335.55</ele>
        <time>2015-04-11T12:11:52Z</time>
      </trkpt>
      <trkpt lat="46.14622" lon="3.46411">
        <ele>335.55</ele>
        <time>2015-04-11T12:11:58Z</time>
      </trkpt>
      <trkpt lat="46.14607" lon="3.46428">
        <ele>336.49</ele>
        <time>2015-04-11T12:12:05Z</time>
      </trkpt>
      <trkpt lat="46.14602" lon="3.46453">
        <ele>336.55</ele>
        <time>2015-04-11T12:12:12Z</time>
      </trkpt>
      <trkpt lat="46.14591" lon="3.46481">
        <ele>337.43</ele>
        <time>2015-04-11T12:12:18Z</time>
      </trkpt>
      <trkpt lat="46.14574" lon="3.46496">
        <ele>339.73</ele>
        <time>2015-04-11T12:12:22Z</time>
      </trkpt>
      <trkpt lat="46.14557" lon="3.46511">
        <ele>342.08</ele>
        <time>2015-04-11T12:12:25Z</time>
      </trkpt>
      <trkpt lat="46.14536" lon="3.46529">
        <ele>343.87</ele>
        <time>2015-04-11T12:12:28Z</time>
      </trkpt>
      <trkpt lat="46.14515" lon="3.46546">
        <ele>344.47</ele>
        <time>2015-04-11T12:12:31Z</time>
      </trkpt>
      <trkpt lat="46.14505" lon="3.46569">
        <ele>345.49</ele>
        <time>2015-04-11T12:12:35Z</time>
      </trkpt>
      <trkpt lat="46.1451" lon="3.46597">
        <ele>346.3</ele>
        <time>2015-04-11T12:12:39Z</time>
      </trkpt>
      <trkpt lat="46.14516" lon="3.46625">
        <ele>346.54</ele>
        <time>2015-04-11T12:12:43Z</time>
      </trkpt>
      <trkpt lat="46.14522" lon="3.46653">
        <ele>346.55</ele>
        <time>2015-04-11T12:12:47Z</time>
      </trkpt>
      <trkpt lat="46.14526" lon="3.46683">
        <ele>345.68</ele>
        <time>2015-04-11T12:12:51Z</time>
      </trkpt>
      <trkpt lat="46.14534" lon="3.46713">
        <ele>344.62</ele>
        <time>2015-04-11T12:12:55Z</time>
      </trkpt>
      <trkpt lat="46.14545" lon="3.46739">
        <ele>343.62</ele>
        <time>2015-04-11T12:12:59Z</time>
      </trkpt>
      <trkpt lat="46.14557" lon="3.46765">
        <ele>343.56</ele>
        <time>2015-04-11T12:13:03Z</time>
      </trkpt>
      <trkpt lat="46.1457" lon="3.4679">
        <ele>343.55</ele>
        <time>2015-04-11T12:13:07Z</time>
      </trkpt>
      <trkpt lat="46.14581" lon="3.46816">
        <ele>343.05</ele>
        <time>2015-04-11T12:13:11Z</time>
      </trkpt>
      <trkpt lat="46.14582" lon="3.46844">
        <ele>342.58</ele>
        <time>2015-04-11T12:13:15Z</time>
      </trkpt>
      <trkpt lat="46.14573" lon="3.46874">
        <ele>342.55</ele>
        <time>2015-04-11T12:13:19Z</time>
      </trkpt>
      <trkpt lat="46.14571" lon="3.46902">
        <ele>342.55</ele>
        <time>2015-04-11T12:13:26Z</time>
      </trkpt>
      <trkpt lat="46.14588" lon="3.46917">
        <ele>342.55</ele>
        <time>2015-04-11T12:13:31Z</time>
      </trkpt>
      <trkpt lat="46.14591" lon="3.46945">
        <ele>343.05</ele>
        <time>2015-04-11T12:13:36Z</time>
      </trkpt>
      <trkpt lat="46.1458" lon="3.46968">
        <ele>343.99</ele>
        <time>2015-04-11T12:13:39Z</time>
      </trkpt>
      <trkpt lat="46.14569" lon="3.4699">
        <ele>344.48</ele>
        <time>2015-04-11T12:13:42Z</time>
      </trkpt>
      <trkpt lat="46.14559" lon="3.4702">
        <ele>344.55</ele>
        <time>2015-04-11T12:13:46Z</time>
      </trkpt>
      <trkpt lat="46.14554" lon="3.47048">
        <ele>344.55</ele>
        <time>2015-04-11T12:13:50Z</time>
      </trkpt>
      <trkpt lat="46.14551" lon="3.47078">
        <ele>344.55</ele>
        <time>2015-04-11T12:13:55Z</time>
      </trkpt>
      <trkpt lat="46.1454" lon="3.47101">
        <ele>344.55</ele>
        <time>2015-04-11T12:14:01Z</time>
      </trkpt>
      <trkpt lat="46.14529" lon="3.47125">
        <ele>344.55</ele>
        <time>2015-04-11T12:14:07Z</time>
      </trkpt>
      <trkpt lat="46.14516" lon="3.47144">
        <ele>343.68</ele>
        <time>2015-04-11T12:14:13Z</time>
      </trkpt>
      <trkpt lat="46.14504" lon="3.47166">
        <ele>344.49</ele>
        <time>2015-04-11T12:14:20Z</time>
      </trkpt>
      <trkpt lat="46.14491" lon="3.47185">
        <ele>344.55</ele>
        <time>2015-04-11T12:14:26Z</time>
      </trkpt>
      <trkpt lat="46.14477" lon="3.47202">
        <ele>344.55</ele>
        <time>2015-04-11T12:14:32Z</time>
      </trkpt>
      <trkpt lat="46.14461" lon="3.47222">
        <ele>344.55</ele>
        <time>2015-04-11T12:14:39Z</time>
      </trkpt>
      <trkpt lat="46.14457" lon="3.4725">
        <ele>345.3</ele>
        <time>2015-04-11T12:14:46Z</time>
      </trkpt>
      <trkpt lat="46.14471" lon="3.47271">
        <ele>346.79</ele>
        <time>2015-04-11T12:14:50Z</time>
      </trkpt>
      <trkpt lat="46.1449" lon="3.47288">
        <ele>350.57</ele>
        <time>2015-04-11T12:14:54Z</time>
      </trkpt>
      <trkpt lat="46.14506" lon="3.47305">
        <ele>352.93</ele>
        <time>2015-04-11T12:14:58Z</time>
      </trkpt>
      <trkpt lat="46.14521" lon="3.47322">
        <ele>354.39</ele>
        <time>2015-04-11T12:15:02Z</time>
      </trkpt>
      <trkpt lat="46.14535" lon="3.47344">
        <ele>355.48</ele>
        <time>2015-04-11T12:15:06Z</time>
      </trkpt>
      <trkpt lat="46.14549" lon="3.47368">
        <ele>355.55</ele>
        <time>2015-04-11T12:15:10Z</time>
      </trkpt>
      <trkpt lat="46.14564" lon="3.47387">
        <ele>354.8</ele>
        <time>2015-04-11T12:15:14Z</time>
      </trkpt>
      <trkpt lat="46.1458" lon="3.47402">
        <ele>354.07</ele>
        <time>2015-04-11T12:15:18Z</time>
      </trkpt>
      <trkpt lat="46.14595" lon="3.47423">
        <ele>354.07</ele>
        <time>2015-04-11T12:15:23Z</time>
      </trkpt>
      <trkpt lat="46.14586" lon="3.47449">
        <ele>354.52</ele>
        <time>2015-04-11T12:15:27Z</time>
      </trkpt>
      <trkpt lat="46.14573" lon="3.47468">
        <ele>354.05</ele>
        <time>2015-04-11T12:15:32Z</time>
      </trkpt>
      <trkpt lat="46.14552" lon="3.47477">
        <ele>351.26</ele>
        <time>2015-04-11T12:15:37Z</time>
      </trkpt>
      <trkpt lat="46.14534" lon="3.47477">
        <ele>349.72</ele>
        <time>2015-04-11T12:15:41Z</time>
      </trkpt>
      <trkpt lat="46.14515" lon="3.47473">
        <ele>349.56</ele>
        <time>2015-04-11T12:15:47Z</time>
      </trkpt>
      <trkpt lat="46.14497" lon="3.47468">
        <ele>349.55</ele>
        <time>2015-04-11T12:15:52Z</time>
      </trkpt>
      <trkpt lat="46.1448" lon="3.47453">
        <ele>349.55</ele>
        <time>2015-04-11T12:15:57Z</time>
      </trkpt>
      <trkpt lat="46.14465" lon="3.47436">
        <ele>350.43</ele>
        <time>2015-04-11T12:16:02Z</time>
      </trkpt>
      <trkpt lat="46.14448" lon="3.47421">
        <ele>351.92</ele>
        <time>2015-04-11T12:16:06Z</time>
      </trkpt>
      <trkpt lat="46.14425" lon="3.47413">
        <ele>352.51</ele>
        <time>2015-04-11T12:16:10Z</time>
      </trkpt>
      <trkpt lat="46.14407" lon="3.47406">
        <ele>352.55</ele>
        <time>2015-04-11T12:16:13Z</time>
      </trkpt>
      <trkpt lat="46.14389" lon="3.47398">
        <ele>351.8</ele>
        <time>2015-04-11T12:16:16Z</time>
      </trkpt>
      <trkpt lat="46.14372" lon="3.47389">
        <ele>351.58</ele>
        <time>2015-04-11T12:16:19Z</time>
      </trkpt>
      <trkpt lat="46.14354" lon="3.47376">
        <ele>351.56</ele>
        <time>2015-04-11T12:16:22Z</time>
      </trkpt>
      <trkpt lat="46.14334" lon="3.47357">
        <ele>350.68</ele>
        <time>2015-04-11T12:16:26Z</time>
      </trkpt>
      <trkpt lat="46.14317" lon="3.47346">
        <ele>350.57</ele>
        <time>2015-04-11T12:16:29Z</time>
      </trkpt>
      <trkpt lat="46.14293" lon="3.4734">
        <ele>350.55</ele>
        <time>2015-04-11T12:16:32Z</time>
      </trkpt>
      <trkpt lat="46.14274" lon="3.47335">
        <ele>349.8</ele>
        <time>2015-04-11T12:16:34Z</time>
      </trkpt>
      <trkpt lat="46.14252" lon="3.47327">
        <ele>348.87</ele>
        <time>2015-04-11T12:16:36Z</time>
      </trkpt>
      <trkpt lat="46.14233" lon="3.47316">
        <ele>347.38</ele>
        <time>2015-04-11T12:16:38Z</time>
      </trkpt>
      <trkpt lat="46.14214" lon="3.47307">
        <ele>346.01</ele>
        <time>2015-04-11T12:16:40Z</time>
      </trkpt>
      <trkpt lat="46.14191" lon="3.47292">
        <ele>343.49</ele>
        <time>2015-04-11T12:16:43Z</time>
      </trkpt>
      <trkpt lat="46.14167" lon="3.47286">
        <ele>340.04</ele>
        <time>2015-04-11T12:16:46Z</time>
      </trkpt>
      <trkpt lat="46.14141" lon="3.47292">
        <ele>335.18</ele>
        <time>2015-04-11T12:16:48Z</time>
      </trkpt>
      <trkpt lat="46.14117" lon="3.47299">
        <ele>329.96</ele>
        <time>2015-04-11T12:16:50Z</time>
      </trkpt>
      <trkpt lat="46.14097" lon="3.47307">
        <ele>326.15</ele>
        <time>2015-04-11T12:16:52Z</time>
      </trkpt>
      <trkpt lat="46.14077" lon="3.47316">
        <ele>323.7</ele>
        <time>2015-04-11T12:16:54Z</time>
      </trkpt>
      <trkpt lat="46.14057" lon="3.47325">
        <ele>320.34</ele>
        <time>2015-04-11T12:16:56Z</time>
      </trkpt>
      <trkpt lat="46.14041" lon="3.47342">
        <ele>315.75</ele>
        <time>2015-04-11T12:16:58Z</time>
      </trkpt>
      <trkpt lat="46.14028" lon="3.47365">
        <ele>310.85</ele>
        <time>2015-04-11T12:17:00Z</time>
      </trkpt>
      <trkpt lat="46.14017" lon="3.47389">
        <ele>306.63</ele>
        <time>2015-04-11T12:17:02Z</time>
      </trkpt>
      <trkpt lat="46.14008" lon="3.47415">
        <ele>303.07</ele>
        <time>2015-04-11T12:17:04Z</time>
      </trkpt>
      <trkpt lat="46.14" lon="3.4744">
        <ele>300.68</ele>
        <time>2015-04-11T12:17:06Z</time>
      </trkpt>
      <trkpt lat="46.13993" lon="3.47468">
        <ele>298.32</ele>
        <time>2015-04-11T12:17:09Z</time>
      </trkpt>
      <trkpt lat="46.13983" lon="3.47494">
        <ele>297.6</ele>
        <time>2015-04-11T12:17:13Z</time>
      </trkpt>
      <trkpt lat="46.13965" lon="3.47494">
        <ele>297.55</ele>
        <time>2015-04-11T12:17:20Z</time>
      </trkpt>
      <trkpt lat="46.13945" lon="3.47483">
        <ele>299.27</ele>
        <time>2015-04-11T12:17:25Z</time>
      </trkpt>
      <trkpt lat="46.13923" lon="3.47477">
        <ele>300.42</ele>
        <time>2015-04-11T12:17:30Z</time>
      </trkpt>
      <trkpt lat="46.13905" lon="3.47486">
        <ele>301.42</ele>
        <time>2015-04-11T12:17:34Z</time>
      </trkpt>
      <trkpt lat="46.13884" lon="3.47494">
        <ele>302.42</ele>
        <time>2015-04-11T12:17:38Z</time>
      </trkpt>
      <trkpt lat="46.13864" lon="3.47477">
        <ele>302.54</ele>
        <time>2015-04-11T12:17:42Z</time>
      </trkpt>
      <trkpt lat="46.13846" lon="3.4746">
        <ele>302.05</ele>
        <time>2015-04-11T12:17:45Z</time>
      </trkpt>
      <trkpt lat="46.13825" lon="3.47453">
        <ele>300.87</ele>
        <time>2015-04-11T12:17:48Z</time>
      </trkpt>
      <trkpt lat="46.13807" lon="3.47443">
        <ele>300.57</ele>
        <time>2015-04-11T12:17:52Z</time>
      </trkpt>
      <trkpt lat="46.13802" lon="3.47415">
        <ele>300.55</ele>
        <time>2015-04-11T12:17:56Z</time>
      </trkpt>
      <trkpt lat="46.13794" lon="3.47389">
        <ele>300.55</ele>
        <time>2015-04-11T12:18:00Z</time>
      </trkpt>
      <trkpt lat="46.13785" lon="3.47363">
        <ele>300.55</ele>
        <time>2015-04-11T12:18:04Z</time>
      </trkpt>
      <trkpt lat="46.13775" lon="3.47337">
        <ele>300.05</ele>
        <time>2015-04-11T12:18:08Z</time>
      </trkpt>
      <trkpt lat="46.13762" lon="3.47318">
        <ele>299.57</ele>
        <time>2015-04-11T12:18:13Z</time>
      </trkpt>
      <trkpt lat="46.13748" lon="3.4734">
        <ele>299.55</ele>
        <time>2015-04-11T12:18:16Z</time>
      </trkpt>
      <trkpt lat="46.13735" lon="3.47363">
        <ele>298.8</ele>
        <time>2015-04-11T12:18:19Z</time>
      </trkpt>
      <trkpt lat="46.13722" lon="3.47391">
        <ele>297.13</ele>
        <time>2015-04-11T12:18:23Z</time>
      </trkpt>
      <trkpt lat="46.13709" lon="3.47415">
        <ele>296.09</ele>
        <time>2015-04-11T12:18:27Z</time>
      </trkpt>
      <trkpt lat="46.13692" lon="3.47436">
        <ele>295.59</ele>
        <time>2015-04-11T12:18:31Z</time>
      </trkpt>
      <trkpt lat="46.13676" lon="3.47456">
        <ele>294.12</ele>
        <time>2015-04-11T12:18:35Z</time>
      </trkpt>
      <trkpt lat="46.13661" lon="3.47475">
        <ele>291.96</ele>
        <time>2015-04-11T12:18:39Z</time>
      </trkpt>
      <trkpt lat="46.13651" lon="3.47498">
        <ele>289.89</ele>
        <time>2015-04-11T12:18:43Z</time>
      </trkpt>
      <trkpt lat="46.13651" lon="3.47531">
        <ele>287.22</ele>
        <time>2015-04-11T12:18:48Z</time>
      </trkpt>
      <trkpt lat="46.13654" lon="3.47556">
        <ele>285.84</ele>
        <time>2015-04-11T12:18:52Z</time>
      </trkpt>
      <trkpt lat="46.13657" lon="3.47584">
        <ele>286.32</ele>
        <time>2015-04-11T12:18:56Z</time>
      </trkpt>
      <trkpt lat="46.13662" lon="3.47612">
        <ele>289.16</ele>
        <time>2015-04-11T12:19:00Z</time>
      </trkpt>
      <trkpt lat="46.13668" lon="3.47642">
        <ele>292.09</ele>
        <time>2015-04-11T12:19:04Z</time>
      </trkpt>
      <trkpt lat="46.1367" lon="3.4767">
        <ele>293.46</ele>
        <time>2015-04-11T12:19:08Z</time>
      </trkpt>
      <trkpt lat="46.1366" lon="3.47694">
        <ele>293.55</ele>
        <time>2015-04-11T12:19:12Z</time>
      </trkpt>
      <trkpt lat="46.13642" lon="3.47709">
        <ele>292.57</ele>
        <time>2015-04-11T12:19:18Z</time>
      </trkpt>
      <trkpt lat="46.13623" lon="3.47717">
        <ele>292.55</ele>
        <time>2015-04-11T12:19:26Z</time>
      </trkpt>
      <trkpt lat="46.13604" lon="3.47719">
        <ele>292.55</ele>
        <time>2015-04-11T12:19:34Z</time>
      </trkpt>
      <trkpt lat="46.13582" lon="3.47724">
        <ele>292.55</ele>
        <time>2015-04-11T12:19:44Z</time>
      </trkpt>
      <trkpt lat="46.13562" lon="3.4773">
        <ele>293.55</ele>
        <time>2015-04-11T12:19:53Z</time>
      </trkpt>
      <trkpt lat="46.13536" lon="3.47743">
        <ele>295.05</ele>
        <time>2015-04-11T12:20:06Z</time>
      </trkpt>
      <trkpt lat="46.1352" lon="3.47758">
        <ele>296.52</ele>
        <time>2015-04-11T12:20:15Z</time>
      </trkpt>
      <trkpt lat="46.13496" lon="3.47777">
        <ele>297.05</ele>
        <time>2015-04-11T12:20:28Z</time>
      </trkpt>
      <trkpt lat="46.13471" lon="3.47786">
        <ele>298.05</ele>
        <time>2015-04-11T12:20:41Z</time>
      </trkpt>
      <trkpt lat="46.13451" lon="3.47801">
        <ele>299.05</ele>
        <time>2015-04-11T12:20:52Z</time>
      </trkpt>
      <trkpt lat="46.13434" lon="3.47818">
        <ele>300.55</ele>
        <time>2015-04-11T12:21:04Z</time>
      </trkpt>
      <trkpt lat="46.13417" lon="3.47833">
        <ele>302.05</ele>
        <time>2015-04-11T12:21:16Z</time>
      </trkpt>
      <trkpt lat="46.134" lon="3.47852">
        <ele>303.49</ele>
        <time>2015-04-11T12:21:29Z</time>
      </trkpt>
      <trkpt lat="46.13384" lon="3.47874">
        <ele>305.05</ele>
        <time>2015-04-11T12:21:40Z</time>
      </trkpt>
      <trkpt lat="46.13369" lon="3.47906">
        <ele>307.04</ele>
        <time>2015-04-11T12:21:54Z</time>
      </trkpt>
      <trkpt lat="46.13357" lon="3.4793">
        <ele>309.55</ele>
        <time>2015-04-11T12:22:06Z</time>
      </trkpt>
      <trkpt lat="46.13343" lon="3.47947">
        <ele>312.02</ele>
        <time>2015-04-11T12:22:14Z</time>
      </trkpt>
      <trkpt lat="46.13325" lon="3.47958">
        <ele>313.49</ele>
        <time>2015-04-11T12:22:21Z</time>
      </trkpt>
      <trkpt lat="46.13307" lon="3.47964">
        <ele>315.29</ele>
        <time>2015-04-11T12:22:28Z</time>
      </trkpt>
      <trkpt lat="46.13288" lon="3.47973">
        <ele>316.54</ele>
        <time>2015-04-11T12:22:37Z</time>
      </trkpt>
      <trkpt lat="46.13269" lon="3.47979">
        <ele>318.3</ele>
        <time>2015-04-11T12:22:46Z</time>
      </trkpt>
      <trkpt lat="46.13249" lon="3.47986">
        <ele>319.49</ele>
        <time>2015-04-11T12:22:55Z</time>
      </trkpt>
      <trkpt lat="46.13231" lon="3.47994">
        <ele>321.42</ele>
        <time>2015-04-11T12:23:04Z</time>
      </trkpt>
      <trkpt lat="46.13214" lon="3.48003">
        <ele>323.04</ele>
        <time>2015-04-11T12:23:13Z</time>
      </trkpt>
      <trkpt lat="46.13196" lon="3.48007">
        <ele>325.27</ele>
        <time>2015-04-11T12:23:22Z</time>
      </trkpt>
      <trkpt lat="46.13177" lon="3.48013">
        <ele>327.42</ele>
        <time>2015-04-11T12:23:31Z</time>
      </trkpt>
      <trkpt lat="46.13159" lon="3.4802">
        <ele>329.49</ele>
        <time>2015-04-11T12:23:40Z</time>
      </trkpt>
      <trkpt lat="46.1314" lon="3.48026">
        <ele>331.42</ele>
        <time>2015-04-11T12:23:49Z</time>
      </trkpt>
      <trkpt lat="46.13122" lon="3.48033">
        <ele>333.04</ele>
        <time>2015-04-11T12:23:58Z</time>
      </trkpt>
      <trkpt lat="46.13103" lon="3.48035">
        <ele>334.43</ele>
        <time>2015-04-11T12:24:06Z</time>
      </trkpt>
      <trkpt lat="46.13085" lon="3.48035">
        <ele>335.3</ele>
        <time>2015-04-11T12:24:11Z</time>
      </trkpt>
      <trkpt lat="46.13068" lon="3.4802">
        <ele>336.43</ele>
        <time>2015-04-11T12:24:18Z</time>
      </trkpt>
      <trkpt lat="46.13059" lon="3.47996">
        <ele>337.49</ele>
        <time>2015-04-11T12:24:24Z</time>
      </trkpt>
      <trkpt lat="46.13056" lon="3.4797">
        <ele>338.52</ele>
        <time>2015-04-11T12:24:30Z</time>
      </trkpt>
      <trkpt lat="46.13053" lon="3.47945">
        <ele>339.52</ele>
        <time>2015-04-11T12:24:35Z</time>
      </trkpt>
      <trkpt lat="46.1305" lon="3.47913">
        <ele>346.65</ele>
        <time>2015-04-11T12:24:40Z</time>
      </trkpt>
      <trkpt lat="46.13044" lon="3.47883">
        <ele>351.5</ele>
        <time>2015-04-11T12:24:44Z</time>
      </trkpt>
      <trkpt lat="46.13037" lon="3.47852">
        <ele>354.17</ele>
        <time>2015-04-11T12:24:48Z</time>
      </trkpt>
      <trkpt lat="46.13032" lon="3.47825">
        <ele>356.22</ele>
        <time>2015-04-11T12:24:52Z</time>
      </trkpt>
      <trkpt lat="46.13015" lon="3.47807">
        <ele>358.39</ele>
        <time>2015-04-11T12:24:57Z</time>
      </trkpt>
      <trkpt lat="46.12997" lon="3.47805">
        <ele>358.55</ele>
        <time>2015-04-11T12:25:04Z</time>
      </trkpt>
      <trkpt lat="46.12979" lon="3.47807">
        <ele>358.58</ele>
        <time>2015-04-11T12:25:12Z</time>
      </trkpt>
      <trkpt lat="46.12963" lon="3.4782">
        <ele>358.55</ele>
        <time>2015-04-11T12:25:22Z</time>
      </trkpt>
      <trkpt lat="46.12945" lon="3.47833">
        <ele>358.55</ele>
        <time>2015-04-11T12:25:30Z</time>
      </trkpt>
      <trkpt lat="46.12925" lon="3.47829">
        <ele>359.05</ele>
        <time>2015-04-11T12:25:37Z</time>
      </trkpt>
      <trkpt lat="46.12906" lon="3.47825">
        <ele>359.55</ele>
        <time>2015-04-11T12:25:45Z</time>
      </trkpt>
      <trkpt lat="46.12887" lon="3.4782">
        <ele>359.55</ele>
        <time>2015-04-11T12:25:53Z</time>
      </trkpt>
      <trkpt lat="46.12867" lon="3.4782">
        <ele>360.49</ele>
        <time>2015-04-11T12:26:02Z</time>
      </trkpt>
      <trkpt lat="46.12849" lon="3.47831">
        <ele>360.55</ele>
        <time>2015-04-11T12:26:11Z</time>
      </trkpt>
      <trkpt lat="46.1283" lon="3.47837">
        <ele>360.55</ele>
        <time>2015-04-11T12:26:19Z</time>
      </trkpt>
      <trkpt lat="46.1281" lon="3.47844">
        <ele>361.54</ele>
        <time>2015-04-11T12:26:27Z</time>
      </trkpt>
      <trkpt lat="46.12791" lon="3.47846">
        <ele>362.49</ele>
        <time>2015-04-11T12:26:35Z</time>
      </trkpt>
      <trkpt lat="46.1277" lon="3.4785">
        <ele>363.54</ele>
        <time>2015-04-11T12:26:47Z</time>
      </trkpt>
      <trkpt lat="46.12746" lon="3.47852">
        <ele>365.05</ele>
        <time>2015-04-11T12:26:59Z</time>
      </trkpt>
      <trkpt lat="46.12724" lon="3.47855">
        <ele>366.05</ele>
        <time>2015-04-11T12:27:10Z</time>
      </trkpt>
      <trkpt lat="46.12704" lon="3.47855">
        <ele>367.05</ele>
        <time>2015-04-11T12:27:19Z</time>
      </trkpt>
      <trkpt lat="46.12686" lon="3.47855">
        <ele>367.55</ele>
        <time>2015-04-11T12:27:29Z</time>
      </trkpt>
      <trkpt lat="46.12666" lon="3.47852">
        <ele>369.05</ele>
        <time>2015-04-11T12:27:41Z</time>
      </trkpt>
      <trkpt lat="46.12645" lon="3.47852">
        <ele>370.05</ele>
        <time>2015-04-11T12:27:51Z</time>
      </trkpt>
      <trkpt lat="46.12626" lon="3.47859">
        <ele>371.05</ele>
        <time>2015-04-11T12:28:01Z</time>
      </trkpt>
      <trkpt lat="46.12608" lon="3.47872">
        <ele>371.55</ele>
        <time>2015-04-11T12:28:11Z</time>
      </trkpt>
      <trkpt lat="46.126" lon="3.47895">
        <ele>373.52</ele>
        <time>2015-04-11T12:28:25Z</time>
      </trkpt>
      <trkpt lat="46.12595" lon="3.47921">
        <ele>374.55</ele>
        <time>2015-04-11T12:28:37Z</time>
      </trkpt>
      <trkpt lat="46.12589" lon="3.47947">
        <ele>376.3</ele>
        <time>2015-04-11T12:28:49Z</time>
      </trkpt>
      <trkpt lat="46.12584" lon="3.47973">
        <ele>377.55</ele>
        <time>2015-04-11T12:29:02Z</time>
      </trkpt>
      <trkpt lat="46.12581" lon="3.47998">
        <ele>379.49</ele>
        <time>2015-04-11T12:29:13Z</time>
      </trkpt>
      <trkpt lat="46.12576" lon="3.48024">
        <ele>381.52</ele>
        <time>2015-04-11T12:29:25Z</time>
      </trkpt>
      <trkpt lat="46.12571" lon="3.4805">
        <ele>383.49</ele>
        <time>2015-04-11T12:29:37Z</time>
      </trkpt>
      <trkpt lat="46.12561" lon="3.48071">
        <ele>386.02</ele>
        <time>2015-04-11T12:29:49Z</time>
      </trkpt>
      <trkpt lat="46.1255" lon="3.48095">
        <ele>388.04</ele>
        <time>2015-04-11T12:30:00Z</time>
      </trkpt>
      <trkpt lat="46.12549" lon="3.48123">
        <ele>390.02</ele>
        <time>2015-04-11T12:30:09Z</time>
      </trkpt>
      <trkpt lat="46.12552" lon="3.48151">
        <ele>392.02</ele>
        <time>2015-04-11T12:30:17Z</time>
      </trkpt>
      <trkpt lat="46.12555" lon="3.48176">
        <ele>394.29</ele>
        <time>2015-04-11T12:30:25Z</time>
      </trkpt>
      <trkpt lat="46.12554" lon="3.48204">
        <ele>396.49</ele>
        <time>2015-04-11T12:30:34Z</time>
      </trkpt>
      <trkpt lat="46.12549" lon="3.4823">
        <ele>399.02</ele>
        <time>2015-04-11T12:30:43Z</time>
      </trkpt>
      <trkpt lat="46.12541" lon="3.48254">
        <ele>401.02</ele>
        <time>2015-04-11T12:30:52Z</time>
      </trkpt>
      <trkpt lat="46.12533" lon="3.48277">
        <ele>403.04</ele>
        <time>2015-04-11T12:31:01Z</time>
      </trkpt>
      <trkpt lat="46.12526" lon="3.48305">
        <ele>405.42</ele>
        <time>2015-04-11T12:31:11Z</time>
      </trkpt>
      <trkpt lat="46.12518" lon="3.48329">
        <ele>408.27</ele>
        <time>2015-04-11T12:31:21Z</time>
      </trkpt>
      <trkpt lat="46.1251" lon="3.48352">
        <ele>410.42</ele>
        <time>2015-04-11T12:31:30Z</time>
      </trkpt>
      <trkpt lat="46.12504" lon="3.48378">
        <ele>412.99</ele>
        <time>2015-04-11T12:31:39Z</time>
      </trkpt>
      <trkpt lat="46.12496" lon="3.48404">
        <ele>416.26</ele>
        <time>2015-04-11T12:31:48Z</time>
      </trkpt>
      <trkpt lat="46.1249" lon="3.4843">
        <ele>419.97</ele>
        <time>2015-04-11T12:31:57Z</time>
      </trkpt>
      <trkpt lat="46.12484" lon="3.48455">
        <ele>423.27</ele>
        <time>2015-04-11T12:32:06Z</time>
      </trkpt>
      <trkpt lat="46.12477" lon="3.48483">
        <ele>426.41</ele>
        <time>2015-04-11T12:32:16Z</time>
      </trkpt>
      <trkpt lat="46.1247" lon="3.48509">
        <ele>429.99</ele>
        <time>2015-04-11T12:32:27Z</time>
      </trkpt>
      <trkpt lat="46.12463" lon="3.48537">
        <ele>432.42</ele>
        <time>2015-04-11T12:32:37Z</time>
      </trkpt>
      <trkpt lat="46.12454" lon="3.48561">
        <ele>434.99</ele>
        <time>2015-04-11T12:32:46Z</time>
      </trkpt>
      <trkpt lat="46.12444" lon="3.48584">
        <ele>437.29</ele>
        <time>2015-04-11T12:32:55Z</time>
      </trkpt>
      <trkpt lat="46.12432" lon="3.48606">
        <ele>439.42</ele>
        <time>2015-04-11T12:33:04Z</time>
      </trkpt>
      <trkpt lat="46.12417" lon="3.48623">
        <ele>441.49</ele>
        <time>2015-04-11T12:33:14Z</time>
      </trkpt>
      <trkpt lat="46.12401" lon="3.48638">
        <ele>443.3</ele>
        <time>2015-04-11T12:33:23Z</time>
      </trkpt>
      <trkpt lat="46.12382" lon="3.48651">
        <ele>445.04</ele>
        <time>2015-04-11T12:33:33Z</time>
      </trkpt>
      <trkpt lat="46.12365" lon="3.48661">
        <ele>446.52</ele>
        <time>2015-04-11T12:33:42Z</time>
      </trkpt>
      <trkpt lat="46.12349" lon="3.48676">
        <ele>448.05</ele>
        <time>2015-04-11T12:33:50Z</time>
      </trkpt>
      <trkpt lat="46.12334" lon="3.48694">
        <ele>449.49</ele>
        <time>2015-04-11T12:33:58Z</time>
      </trkpt>
      <trkpt lat="46.12319" lon="3.48711">
        <ele>450.54</ele>
        <time>2015-04-11T12:34:06Z</time>
      </trkpt>
      <trkpt lat="46.12304" lon="3.4873">
        <ele>451.55</ele>
        <time>2015-04-11T12:34:14Z</time>
      </trkpt>
      <trkpt lat="46.1229" lon="3.48747">
        <ele>452.54</ele>
        <time>2015-04-11T12:34:21Z</time>
      </trkpt>
      <trkpt lat="46.12276" lon="3.48764">
        <ele>453.54</ele>
        <time>2015-04-11T12:34:28Z</time>
      </trkpt>
      <trkpt lat="46.12261" lon="3.48782">
        <ele>454.55</ele>
        <time>2015-04-11T12:34:36Z</time>
      </trkpt>
      <trkpt lat="46.12247" lon="3.48801">
        <ele>456.05</ele>
        <time>2015-04-11T12:34:44Z</time>
      </trkpt>
      <trkpt lat="46.12233" lon="3.4882">
        <ele>457.05</ele>
        <time>2015-04-11T12:34:52Z</time>
      </trkpt>
      <trkpt lat="46.12223" lon="3.48842">
        <ele>458.3</ele>
        <time>2015-04-11T12:35:00Z</time>
      </trkpt>
      <trkpt lat="46.12211" lon="3.48863">
        <ele>459.43</ele>
        <time>2015-04-11T12:35:09Z</time>
      </trkpt>
      <trkpt lat="46.122" lon="3.48887">
        <ele>460.43</ele>
        <time>2015-04-11T12:35:17Z</time>
      </trkpt>
      <trkpt lat="46.12193" lon="3.48915">
        <ele>461.8</ele>
        <time>2015-04-11T12:35:23Z</time>
      </trkpt>
      <trkpt lat="46.12184" lon="3.48949">
        <ele>465.63</ele>
        <time>2015-04-11T12:35:27Z</time>
      </trkpt>
      <trkpt lat="46.12175" lon="3.48981">
        <ele>466.44</ele>
        <time>2015-04-11T12:35:30Z</time>
      </trkpt>
      <trkpt lat="46.12168" lon="3.49013">
        <ele>465.61</ele>
        <time>2015-04-11T12:35:34Z</time>
      </trkpt>
      <trkpt lat="46.12168" lon="3.49043">
        <ele>465.56</ele>
        <time>2015-04-11T12:35:38Z</time>
      </trkpt>
      <trkpt lat="46.12169" lon="3.49078">
        <ele>465.55</ele>
        <time>2015-04-11T12:35:42Z</time>
      </trkpt>
      <trkpt lat="46.12162" lon="3.49103">
        <ele>465.55</ele>
        <time>2015-04-11T12:35:45Z</time>
      </trkpt>
      <trkpt lat="46.12151" lon="3.49131">
        <ele>465.55</ele>
        <time>2015-04-11T12:35:49Z</time>
      </trkpt>
      <trkpt lat="46.12139" lon="3.49153">
        <ele>466.43</ele>
        <time>2015-04-11T12:35:52Z</time>
      </trkpt>
      <trkpt lat="46.12122" lon="3.49176">
        <ele>466.55</ele>
        <time>2015-04-11T12:35:56Z</time>
      </trkpt>
      <trkpt lat="46.12105" lon="3.49198">
        <ele>466.55</ele>
        <time>2015-04-11T12:36:00Z</time>
      </trkpt>
      <trkpt lat="46.12085" lon="3.49217">
        <ele>466.55</ele>
        <time>2015-04-11T12:36:04Z</time>
      </trkpt>
      <trkpt lat="46.12068" lon="3.49236">
        <ele>466.55</ele>
        <time>2015-04-11T12:36:08Z</time>
      </trkpt>
      <trkpt lat="46.12051" lon="3.49256">
        <ele>466.55</ele>
        <time>2015-04-11T12:36:12Z</time>
      </trkpt>
      <trkpt lat="46.12034" lon="3.49271">
        <ele>466.55</ele>
        <time>2015-04-11T12:36:16Z</time>
      </trkpt>
      <trkpt lat="46.12019" lon="3.49288">
        <ele>466.55</ele>
        <time>2015-04-11T12:36:20Z</time>
      </trkpt>
      <trkpt lat="46.12002" lon="3.49307">
        <ele>467.3</ele>
        <time>2015-04-11T12:36:25Z</time>
      </trkpt>
      <trkpt lat="46.11984" lon="3.49324">
        <ele>467.55</ele>
        <time>2015-04-11T12:36:30Z</time>
      </trkpt>
      <trkpt lat="46.11965" lon="3.49335">
        <ele>468.3</ele>
        <time>2015-04-11T12:36:35Z</time>
      </trkpt>
      <trkpt lat="46.11945" lon="3.49346">
        <ele>469.3</ele>
        <time>2015-04-11T12:36:40Z</time>
      </trkpt>
      <trkpt lat="46.11926" lon="3.49357">
        <ele>469.54</ele>
        <time>2015-04-11T12:36:45Z</time>
      </trkpt>
      <trkpt lat="46.11908" lon="3.49365">
        <ele>470.52</ele>
        <time>2015-04-11T12:36:50Z</time>
      </trkpt>
      <trkpt lat="46.11891" lon="3.49374">
        <ele>470.55</ele>
        <time>2015-04-11T12:36:55Z</time>
      </trkpt>
      <trkpt lat="46.11873" lon="3.49385">
        <ele>471.05</ele>
        <time>2015-04-11T12:37:00Z</time>
      </trkpt>
      <trkpt lat="46.11855" lon="3.49393">
        <ele>471.54</ele>
        <time>2015-04-11T12:37:05Z</time>
      </trkpt>
      <trkpt lat="46.11834" lon="3.49402">
        <ele>473.9</ele>
        <time>2015-04-11T12:37:10Z</time>
      </trkpt>
      <trkpt lat="46.11816" lon="3.49406">
        <ele>475.26</ele>
        <time>2015-04-11T12:37:14Z</time>
      </trkpt>
      <trkpt lat="46.11797" lon="3.49406">
        <ele>476.28</ele>
        <time>2015-04-11T12:37:18Z</time>
      </trkpt>
      <trkpt lat="46.11777" lon="3.49402">
        <ele>477.41</ele>
        <time>2015-04-11T12:37:22Z</time>
      </trkpt>
      <trkpt lat="46.11759" lon="3.49397">
        <ele>478.29</ele>
        <time>2015-04-11T12:37:26Z</time>
      </trkpt>
      <trkpt lat="46.11741" lon="3.49395">
        <ele>478.54</ele>
        <time>2015-04-11T12:37:30Z</time>
      </trkpt>
      <trkpt lat="46.1172" lon="3.49391">
        <ele>479.43</ele>
        <time>2015-04-11T12:37:35Z</time>
      </trkpt>
      <trkpt lat="46.11701" lon="3.49385">
        <ele>479.55</ele>
        <time>2015-04-11T12:37:41Z</time>
      </trkpt>
      <trkpt lat="46.11682" lon="3.49376">
        <ele>479.55</ele>
        <time>2015-04-11T12:37:47Z</time>
      </trkpt>
      <trkpt lat="46.1166" lon="3.4937">
        <ele>479.55</ele>
        <time>2015-04-11T12:37:53Z</time>
      </trkpt>
      <trkpt lat="46.11642" lon="3.49363">
        <ele>478.62</ele>
        <time>2015-04-11T12:37:58Z</time>
      </trkpt>
      <trkpt lat="46.11621" lon="3.49361">
        <ele>477.68</ele>
        <time>2015-04-11T12:38:03Z</time>
      </trkpt>
      <trkpt lat="46.11602" lon="3.49357">
        <ele>477.56</ele>
        <time>2015-04-11T12:38:07Z</time>
      </trkpt>
      <trkpt lat="46.11581" lon="3.49355">
        <ele>477.55</ele>
        <time>2015-04-11T12:38:12Z</time>
      </trkpt>
      <trkpt lat="46.1156" lon="3.49352">
        <ele>477.55</ele>
        <time>2015-04-11T12:38:17Z</time>
      </trkpt>
      <trkpt lat="46.11543" lon="3.49367">
        <ele>478.52</ele>
        <time>2015-04-11T12:38:22Z</time>
      </trkpt>
      <trkpt lat="46.11554" lon="3.49346">
        <ele>478.55</ele>
        <time>2015-04-11T12:38:40Z</time>
      </trkpt>
      <trkpt lat="46.11532" lon="3.49348">
        <ele>479.3</ele>
        <time>2015-04-11T12:38:46Z</time>
      </trkpt>
      <trkpt lat="46.11518" lon="3.49367">
        <ele>480.41</ele>
        <time>2015-04-11T12:38:50Z</time>
      </trkpt>
      <trkpt lat="46.11498" lon="3.49367">
        <ele>481.54</ele>
        <time>2015-04-11T12:39:00Z</time>
      </trkpt>
      <trkpt lat="46.1148" lon="3.49359">
        <ele>482.55</ele>
        <time>2015-04-11T12:39:20Z</time>
      </trkpt>
      <trkpt lat="46.11461" lon="3.49359">
        <ele>479.18</ele>
        <time>2015-04-11T12:39:36Z</time>
      </trkpt>
      <trkpt lat="46.11441" lon="3.4937">
        <ele>475.09</ele>
        <time>2015-04-11T12:39:51Z</time>
      </trkpt>
      <trkpt lat="46.11423" lon="3.49374">
        <ele>472.06</ele>
        <time>2015-04-11T12:40:09Z</time>
      </trkpt>
      <trkpt lat="46.11404" lon="3.49372">
        <ele>469.12</ele>
        <time>2015-04-11T12:40:26Z</time>
      </trkpt>
      <trkpt lat="46.11386" lon="3.4937">
        <ele>466.62</ele>
        <time>2015-04-11T12:40:44Z</time>
      </trkpt>
      <trkpt lat="46.11373" lon="3.49348">
        <ele>463.68</ele>
        <time>2015-04-11T12:41:05Z</time>
      </trkpt>
      <trkpt lat="46.11359" lon="3.49322">
        <ele>461.57</ele>
        <time>2015-04-11T12:41:26Z</time>
      </trkpt>
      <trkpt lat="46.11347" lon="3.49299">
        <ele>459.57</ele>
        <time>2015-04-11T12:41:42Z</time>
      </trkpt>
      <trkpt lat="46.11341" lon="3.49273">
        <ele>457.56</ele>
        <time>2015-04-11T12:42:02Z</time>
      </trkpt>
      <trkpt lat="46.11334" lon="3.49247">
        <ele>456.55</ele>
        <time>2015-04-11T12:42:18Z</time>
      </trkpt>
      <trkpt lat="46.11328" lon="3.49217">
        <ele>454.32</ele>
        <time>2015-04-11T12:42:25Z</time>
      </trkpt>
      <trkpt lat="46.11322" lon="3.49189">
        <ele>451.29</ele>
        <time>2015-04-11T12:42:29Z</time>
      </trkpt>
      <trkpt lat="46.11315" lon="3.49159">
        <ele>449.14</ele>
        <time>2015-04-11T12:42:34Z</time>
      </trkpt>
      <trkpt lat="46.11307" lon="3.49136">
        <ele>447.84</ele>
        <time>2015-04-11T12:42:38Z</time>
      </trkpt>
      <trkpt lat="46.113" lon="3.49112">
        <ele>445.88</ele>
        <time>2015-04-11T12:42:42Z</time>
      </trkpt>
      <trkpt lat="46.11295" lon="3.49084">
        <ele>443.68</ele>
        <time>2015-04-11T12:43:08Z</time>
      </trkpt>
      <trkpt lat="46.11287" lon="3.49054">
        <ele>439.81</ele>
        <time>2015-04-11T12:43:12Z</time>
      </trkpt>
      <trkpt lat="46.11279" lon="3.49028">
        <ele>437.09</ele>
        <time>2015-04-11T12:43:15Z</time>
      </trkpt>
      <trkpt lat="46.11272" lon="3.49">
        <ele>435.74</ele>
        <time>2015-04-11T12:43:18Z</time>
      </trkpt>
      <trkpt lat="46.11266" lon="3.48975">
        <ele>435.58</ele>
        <time>2015-04-11T12:43:21Z</time>
      </trkpt>
      <trkpt lat="46.11261" lon="3.48949">
        <ele>435.56</ele>
        <time>2015-04-11T12:43:24Z</time>
      </trkpt>
      <trkpt lat="46.11256" lon="3.48921">
        <ele>435.55</ele>
        <time>2015-04-11T12:43:27Z</time>
      </trkpt>
      <trkpt lat="46.11252" lon="3.48889">
        <ele>435.55</ele>
        <time>2015-04-11T12:43:30Z</time>
      </trkpt>
      <trkpt lat="46.11247" lon="3.48863">
        <ele>435.55</ele>
        <time>2015-04-11T12:43:32Z</time>
      </trkpt>
      <trkpt lat="46.11243" lon="3.48827">
        <ele>435.55</ele>
        <time>2015-04-11T12:43:35Z</time>
      </trkpt>
      <trkpt lat="46.1124" lon="3.4879">
        <ele>434.8</ele>
        <time>2015-04-11T12:43:38Z</time>
      </trkpt>
      <trkpt lat="46.11237" lon="3.48756">
        <ele>434.58</ele>
        <time>2015-04-11T12:43:41Z</time>
      </trkpt>
      <trkpt lat="46.11234" lon="3.48722">
        <ele>435.05</ele>
        <time>2015-04-11T12:43:45Z</time>
      </trkpt>
      <trkpt lat="46.11225" lon="3.48694">
        <ele>435.49</ele>
        <time>2015-04-11T12:43:48Z</time>
      </trkpt>
      <trkpt lat="46.11213" lon="3.48661">
        <ele>434.67</ele>
        <time>2015-04-11T12:43:51Z</time>
      </trkpt>
      <trkpt lat="46.112" lon="3.48631">
        <ele>433.32</ele>
        <time>2015-04-11T12:43:54Z</time>
      </trkpt>
      <trkpt lat="46.1119" lon="3.48599">
        <ele>431.9</ele>
        <time>2015-04-11T12:43:57Z</time>
      </trkpt>
      <trkpt lat="46.1118" lon="3.48567">
        <ele>428.72</ele>
        <time>2015-04-11T12:44:00Z</time>
      </trkpt>
      <trkpt lat="46.11169" lon="3.48535">
        <ele>423.45</ele>
        <time>2015-04-11T12:44:03Z</time>
      </trkpt>
      <trkpt lat="46.11157" lon="3.48509">
        <ele>419.17</ele>
        <time>2015-04-11T12:44:06Z</time>
      </trkpt>
      <trkpt lat="46.11142" lon="3.48494">
        <ele>414.75</ele>
        <time>2015-04-11T12:44:09Z</time>
      </trkpt>
      <trkpt lat="46.11125" lon="3.48511">
        <ele>406.25</ele>
        <time>2015-04-11T12:44:13Z</time>
      </trkpt>
      <trkpt lat="46.11108" lon="3.48535">
        <ele>396.64</ele>
        <time>2015-04-11T12:44:16Z</time>
      </trkpt>
      <trkpt lat="46.11093" lon="3.48563">
        <ele>387.56</ele>
        <time>2015-04-11T12:44:19Z</time>
      </trkpt>
      <trkpt lat="46.1108" lon="3.48591">
        <ele>380.68</ele>
        <time>2015-04-11T12:44:22Z</time>
      </trkpt>
      <trkpt lat="46.11067" lon="3.48619">
        <ele>375.07</ele>
        <time>2015-04-11T12:44:25Z</time>
      </trkpt>
      <trkpt lat="46.11053" lon="3.48644">
        <ele>372.12</ele>
        <time>2015-04-11T12:44:28Z</time>
      </trkpt>
      <trkpt lat="46.11039" lon="3.4867">
        <ele>370.25</ele>
        <time>2015-04-11T12:44:31Z</time>
      </trkpt>
      <trkpt lat="46.1103" lon="3.48698">
        <ele>368.76</ele>
        <time>2015-04-11T12:44:34Z</time>
      </trkpt>
      <trkpt lat="46.11022" lon="3.48732">
        <ele>367.7</ele>
        <time>2015-04-11T12:44:37Z</time>
      </trkpt>
      <trkpt lat="46.11016" lon="3.48767">
        <ele>366.7</ele>
        <time>2015-04-11T12:44:40Z</time>
      </trkpt>
      <trkpt lat="46.1101" lon="3.48797">
        <ele>365.2</ele>
        <time>2015-04-11T12:44:43Z</time>
      </trkpt>
      <trkpt lat="46.11003" lon="3.48825">
        <ele>364.13</ele>
        <time>2015-04-11T12:44:46Z</time>
      </trkpt>
      <trkpt lat="46.10995" lon="3.48852">
        <ele>363.63</ele>
        <time>2015-04-11T12:44:49Z</time>
      </trkpt>
      <trkpt lat="46.10982" lon="3.48878">
        <ele>362.69</ele>
        <time>2015-04-11T12:44:52Z</time>
      </trkpt>
      <trkpt lat="46.10963" lon="3.48887">
        <ele>362.07</ele>
        <time>2015-04-11T12:44:55Z</time>
      </trkpt>
      <trkpt lat="46.10939" lon="3.48895">
        <ele>358.99</ele>
        <time>2015-04-11T12:44:58Z</time>
      </trkpt>
      <trkpt lat="46.10916" lon="3.48908">
        <ele>355.61</ele>
        <time>2015-04-11T12:45:01Z</time>
      </trkpt>
      <trkpt lat="46.10896" lon="3.4893">
        <ele>353.31</ele>
        <time>2015-04-11T12:45:04Z</time>
      </trkpt>
      <trkpt lat="46.10885" lon="3.48958">
        <ele>351.4</ele>
        <time>2015-04-11T12:45:07Z</time>
      </trkpt>
      <trkpt lat="46.10879" lon="3.48983">
        <ele>347.66</ele>
        <time>2015-04-11T12:45:10Z</time>
      </trkpt>
      <trkpt lat="46.10872" lon="3.49007">
        <ele>345.07</ele>
        <time>2015-04-11T12:45:13Z</time>
      </trkpt>
      <trkpt lat="46.10861" lon="3.49035">
        <ele>342.27</ele>
        <time>2015-04-11T12:45:17Z</time>
      </trkpt>
      <trkpt lat="46.10848" lon="3.49054">
        <ele>339.97</ele>
        <time>2015-04-11T12:45:21Z</time>
      </trkpt>
      <trkpt lat="46.10828" lon="3.49067">
        <ele>338.6</ele>
        <time>2015-04-11T12:45:26Z</time>
      </trkpt>
      <trkpt lat="46.1081" lon="3.49084">
        <ele>339.3</ele>
        <time>2015-04-11T12:45:31Z</time>
      </trkpt>
      <trkpt lat="46.10796" lon="3.49103">
        <ele>340.05</ele>
        <time>2015-04-11T12:45:36Z</time>
      </trkpt>
      <trkpt lat="46.10781" lon="3.49123">
        <ele>340.54</ele>
        <time>2015-04-11T12:45:41Z</time>
      </trkpt>
      <trkpt lat="46.10767" lon="3.4914">
        <ele>340.55</ele>
        <time>2015-04-11T12:45:45Z</time>
      </trkpt>
      <trkpt lat="46.10753" lon="3.49157">
        <ele>340.55</ele>
        <time>2015-04-11T12:45:49Z</time>
      </trkpt>
      <trkpt lat="46.10737" lon="3.49179">
        <ele>340.55</ele>
        <time>2015-04-11T12:45:54Z</time>
      </trkpt>
      <trkpt lat="46.10723" lon="3.49202">
        <ele>339.8</ele>
        <time>2015-04-11T12:45:58Z</time>
      </trkpt>
      <trkpt lat="46.1071" lon="3.49226">
        <ele>339.57</ele>
        <time>2015-04-11T12:46:02Z</time>
      </trkpt>
      <trkpt lat="46.10696" lon="3.49249">
        <ele>337.87</ele>
        <time>2015-04-11T12:46:06Z</time>
      </trkpt>
      <trkpt lat="46.10683" lon="3.49275">
        <ele>337.07</ele>
        <time>2015-04-11T12:46:10Z</time>
      </trkpt>
      <trkpt lat="46.10671" lon="3.49301">
        <ele>334.46</ele>
        <time>2015-04-11T12:46:14Z</time>
      </trkpt>
      <trkpt lat="46.10659" lon="3.49329">
        <ele>331.05</ele>
        <time>2015-04-11T12:46:18Z</time>
      </trkpt>
      <trkpt lat="46.10651" lon="3.49352">
        <ele>329.24</ele>
        <time>2015-04-11T12:46:21Z</time>
      </trkpt>
      <trkpt lat="46.10639" lon="3.49376">
        <ele>327.39</ele>
        <time>2015-04-11T12:46:24Z</time>
      </trkpt>
      <trkpt lat="46.10627" lon="3.494">
        <ele>324.53</ele>
        <time>2015-04-11T12:46:27Z</time>
      </trkpt>
      <trkpt lat="46.10615" lon="3.49421">
        <ele>322.3</ele>
        <time>2015-04-11T12:46:30Z</time>
      </trkpt>
      <trkpt lat="46.10599" lon="3.49447">
        <ele>317.6</ele>
        <time>2015-04-11T12:46:34Z</time>
      </trkpt>
      <trkpt lat="46.10583" lon="3.49473">
        <ele>312.62</ele>
        <time>2015-04-11T12:46:38Z</time>
      </trkpt>
      <trkpt lat="46.10567" lon="3.49496">
        <ele>309.49</ele>
        <time>2015-04-11T12:46:42Z</time>
      </trkpt>
      <trkpt lat="46.10552" lon="3.4952">
        <ele>307.24</ele>
        <time>2015-04-11T12:46:46Z</time>
      </trkpt>
      <trkpt lat="46.10537" lon="3.49541">
        <ele>305.16</ele>
        <time>2015-04-11T12:46:50Z</time>
      </trkpt>
      <trkpt lat="46.10522" lon="3.49563">
        <ele>304.09</ele>
        <time>2015-04-11T12:46:54Z</time>
      </trkpt>
      <trkpt lat="46.10509" lon="3.49584">
        <ele>303.59</ele>
        <time>2015-04-11T12:46:58Z</time>
      </trkpt>
      <trkpt lat="46.10496" lon="3.49603">
        <ele>302.68</ele>
        <time>2015-04-11T12:47:02Z</time>
      </trkpt>
      <trkpt lat="46.10478" lon="3.49618">
        <ele>302.06</ele>
        <time>2015-04-11T12:47:07Z</time>
      </trkpt>
      <trkpt lat="46.10463" lon="3.49633">
        <ele>301.58</ele>
        <time>2015-04-11T12:47:11Z</time>
      </trkpt>
      <trkpt lat="46.10446" lon="3.49651">
        <ele>300.09</ele>
        <time>2015-04-11T12:47:16Z</time>
      </trkpt>
      <trkpt lat="46.10432" lon="3.49668">
        <ele>299.59</ele>
        <time>2015-04-11T12:47:20Z</time>
      </trkpt>
      <trkpt lat="46.10418" lon="3.49687">
        <ele>299.56</ele>
        <time>2015-04-11T12:47:24Z</time>
      </trkpt>
      <trkpt lat="46.10404" lon="3.49706">
        <ele>300.99</ele>
        <time>2015-04-11T12:47:28Z</time>
      </trkpt>
      <trkpt lat="46.10391" lon="3.49728">
        <ele>301.52</ele>
        <time>2015-04-11T12:47:32Z</time>
      </trkpt>
      <trkpt lat="46.10378" lon="3.49749">
        <ele>301.55</ele>
        <time>2015-04-11T12:47:36Z</time>
      </trkpt>
      <trkpt lat="46.10362" lon="3.49771">
        <ele>300.8</ele>
        <time>2015-04-11T12:47:41Z</time>
      </trkpt>
      <trkpt lat="46.10348" lon="3.49797">
        <ele>299.59</ele>
        <time>2015-04-11T12:47:46Z</time>
      </trkpt>
      <trkpt lat="46.10339" lon="3.4982">
        <ele>299.68</ele>
        <time>2015-04-11T12:47:50Z</time>
      </trkpt>
      <trkpt lat="46.10328" lon="3.49848">
        <ele>300.31</ele>
        <time>2015-04-11T12:47:54Z</time>
      </trkpt>
      <trkpt lat="46.1032" lon="3.49876">
        <ele>300.04</ele>
        <time>2015-04-11T12:47:58Z</time>
      </trkpt>
      <trkpt lat="46.10314" lon="3.49908">
        <ele>299.58</ele>
        <time>2015-04-11T12:48:02Z</time>
      </trkpt>
      <trkpt lat="46.10307" lon="3.49936">
        <ele>298.62</ele>
        <time>2015-04-11T12:48:06Z</time>
      </trkpt>
      <trkpt lat="46.103" lon="3.49962">
        <ele>298.56</ele>
        <time>2015-04-11T12:48:10Z</time>
      </trkpt>
      <trkpt lat="46.10291" lon="3.49985">
        <ele>298.55</ele>
        <time>2015-04-11T12:48:14Z</time>
      </trkpt>
      <trkpt lat="46.10281" lon="3.50007">
        <ele>301.12</ele>
        <time>2015-04-11T12:48:18Z</time>
      </trkpt>
      <trkpt lat="46.10267" lon="3.5003">
        <ele>302.51</ele>
        <time>2015-04-11T12:48:23Z</time>
      </trkpt>
      <trkpt lat="46.10256" lon="3.50052">
        <ele>302.55</ele>
        <time>2015-04-11T12:48:27Z</time>
      </trkpt>
      <trkpt lat="46.10245" lon="3.50073">
        <ele>302.55</ele>
        <time>2015-04-11T12:48:31Z</time>
      </trkpt>
      <trkpt lat="46.10236" lon="3.50097">
        <ele>301.68</ele>
        <time>2015-04-11T12:48:35Z</time>
      </trkpt>
      <trkpt lat="46.10221" lon="3.50112">
        <ele>301.56</ele>
        <time>2015-04-11T12:48:39Z</time>
      </trkpt>
      <trkpt lat="46.10207" lon="3.50136">
        <ele>301.55</ele>
        <time>2015-04-11T12:48:44Z</time>
      </trkpt>
      <trkpt lat="46.10195" lon="3.50157">
        <ele>301.55</ele>
        <time>2015-04-11T12:48:49Z</time>
      </trkpt>
      <trkpt lat="46.10179" lon="3.50176">
        <ele>301.55</ele>
        <time>2015-04-11T12:48:54Z</time>
      </trkpt>
      <trkpt lat="46.10168" lon="3.50198">
        <ele>301.55</ele>
        <time>2015-04-11T12:48:58Z</time>
      </trkpt>
      <trkpt lat="46.10153" lon="3.50219">
        <ele>301.55</ele>
        <time>2015-04-11T12:49:03Z</time>
      </trkpt>
      <trkpt lat="46.10142" lon="3.50243">
        <ele>301.55</ele>
        <time>2015-04-11T12:49:07Z</time>
      </trkpt>
      <trkpt lat="46.1013" lon="3.50264">
        <ele>301.55</ele>
        <time>2015-04-11T12:49:11Z</time>
      </trkpt>
      <trkpt lat="46.10121" lon="3.5029">
        <ele>299.93</ele>
        <time>2015-04-11T12:49:15Z</time>
      </trkpt>
      <trkpt lat="46.10109" lon="3.50318">
        <ele>298.63</ele>
        <time>2015-04-11T12:49:20Z</time>
      </trkpt>
      <trkpt lat="46.10105" lon="3.50348">
        <ele>298.56</ele>
        <time>2015-04-11T12:49:24Z</time>
      </trkpt>
      <trkpt lat="46.10101" lon="3.50382">
        <ele>296.8</ele>
        <time>2015-04-11T12:49:28Z</time>
      </trkpt>
      <trkpt lat="46.10098" lon="3.50415">
        <ele>293.44</ele>
        <time>2015-04-11T12:49:32Z</time>
      </trkpt>
      <trkpt lat="46.10095" lon="3.5044">
        <ele>292.66</ele>
        <time>2015-04-11T12:49:35Z</time>
      </trkpt>
      <trkpt lat="46.1009" lon="3.5047">
        <ele>293.94</ele>
        <time>2015-04-11T12:49:38Z</time>
      </trkpt>
      <trkpt lat="46.10084" lon="3.50498">
        <ele>295.85</ele>
        <time>2015-04-11T12:49:41Z</time>
      </trkpt>
      <trkpt lat="46.10075" lon="3.5053">
        <ele>297.88</ele>
        <time>2015-04-11T12:49:45Z</time>
      </trkpt>
      <trkpt lat="46.10067" lon="3.50558">
        <ele>299.01</ele>
        <time>2015-04-11T12:49:49Z</time>
      </trkpt>
      <trkpt lat="46.1006" lon="3.50584">
        <ele>297.89</ele>
        <time>2015-04-11T12:49:53Z</time>
      </trkpt>
      <trkpt lat="46.10054" lon="3.50612">
        <ele>295.72</ele>
        <time>2015-04-11T12:49:58Z</time>
      </trkpt>
      <trkpt lat="46.10051" lon="3.50642">
        <ele>294.62</ele>
        <time>2015-04-11T12:50:03Z</time>
      </trkpt>
      <trkpt lat="46.10051" lon="3.5067">
        <ele>293.62</ele>
        <time>2015-04-11T12:50:07Z</time>
      </trkpt>
      <trkpt lat="46.10054" lon="3.50698">
        <ele>293.56</ele>
        <time>2015-04-11T12:50:11Z</time>
      </trkpt>
      <trkpt lat="46.10049" lon="3.50728">
        <ele>294.52</ele>
        <time>2015-04-11T12:50:16Z</time>
      </trkpt>
      <trkpt lat="46.10047" lon="3.50758">
        <ele>294.55</ele>
        <time>2015-04-11T12:50:21Z</time>
      </trkpt>
      <trkpt lat="46.10046" lon="3.50786">
        <ele>295.43</ele>
        <time>2015-04-11T12:50:25Z</time>
      </trkpt>
      <trkpt lat="46.10042" lon="3.50814">
        <ele>296.3</ele>
        <time>2015-04-11T12:50:29Z</time>
      </trkpt>
      <trkpt lat="46.10039" lon="3.50839">
        <ele>297.41</ele>
        <time>2015-04-11T12:50:33Z</time>
      </trkpt>
      <trkpt lat="46.10041" lon="3.50867">
        <ele>299.27</ele>
        <time>2015-04-11T12:50:38Z</time>
      </trkpt>
      <trkpt lat="46.10042" lon="3.50897">
        <ele>301.27</ele>
        <time>2015-04-11T12:50:44Z</time>
      </trkpt>
      <trkpt lat="46.10053" lon="3.50919">
        <ele>302.97</ele>
        <time>2015-04-11T12:50:48Z</time>
      </trkpt>
      <trkpt lat="46.10061" lon="3.50942">
        <ele>304.27</ele>
        <time>2015-04-11T12:50:52Z</time>
      </trkpt>
      <trkpt lat="46.10071" lon="3.50968">
        <ele>304.91</ele>
        <time>2015-04-11T12:50:56Z</time>
      </trkpt>
      <trkpt lat="46.10083" lon="3.50996">
        <ele>304.1</ele>
        <time>2015-04-11T12:50:59Z</time>
      </trkpt>
      <trkpt lat="46.10094" lon="3.51022">
        <ele>302.87</ele>
        <time>2015-04-11T12:51:02Z</time>
      </trkpt>
      <trkpt lat="46.10101" lon="3.51045">
        <ele>301.84</ele>
        <time>2015-04-11T12:51:05Z</time>
      </trkpt>
      <trkpt lat="46.10112" lon="3.51073">
        <ele>300.63</ele>
        <time>2015-04-11T12:51:09Z</time>
      </trkpt>
      <trkpt lat="46.10127" lon="3.51093">
        <ele>299.62</ele>
        <time>2015-04-11T12:51:13Z</time>
      </trkpt>
      <trkpt lat="46.10147" lon="3.51103">
        <ele>298.69</ele>
        <time>2015-04-11T12:51:16Z</time>
      </trkpt>
      <trkpt lat="46.10158" lon="3.51127">
        <ele>297.81</ele>
        <time>2015-04-11T12:51:21Z</time>
      </trkpt>
      <trkpt lat="46.10174" lon="3.51142">
        <ele>297.57</ele>
        <time>2015-04-11T12:51:25Z</time>
      </trkpt>
      <trkpt lat="46.10192" lon="3.51159">
        <ele>297.55</ele>
        <time>2015-04-11T12:51:30Z</time>
      </trkpt>
      <trkpt lat="46.10202" lon="3.51181">
        <ele>298.55</ele>
        <time>2015-04-11T12:51:39Z</time>
      </trkpt>
      <trkpt lat="46.10189" lon="3.51208">
        <ele>303.05</ele>
        <time>2015-04-11T12:52:00Z</time>
      </trkpt>
      <trkpt lat="46.1017" lon="3.51223">
        <ele>307.54</ele>
        <time>2015-04-11T12:52:14Z</time>
      </trkpt>
      <trkpt lat="46.10155" lon="3.51247">
        <ele>310.92</ele>
        <time>2015-04-11T12:52:21Z</time>
      </trkpt>
      <trkpt lat="46.10145" lon="3.51271">
        <ele>313.02</ele>
        <time>2015-04-11T12:52:28Z</time>
      </trkpt>
      <trkpt lat="46.10132" lon="3.51296">
        <ele>316.02</ele>
        <time>2015-04-11T12:52:38Z</time>
      </trkpt>
      <trkpt lat="46.10122" lon="3.5132">
        <ele>318.54</ele>
        <time>2015-04-11T12:52:49Z</time>
      </trkpt>
      <trkpt lat="46.10136" lon="3.51344">
        <ele>326.3</ele>
        <time>2015-04-11T12:53:09Z</time>
      </trkpt>
      <trkpt lat="46.10151" lon="3.51359">
        <ele>329.39</ele>
        <time>2015-04-11T12:53:16Z</time>
      </trkpt>
      <trkpt lat="46.10143" lon="3.51382">
        <ele>334.42</ele>
        <time>2015-04-11T12:53:32Z</time>
      </trkpt>
      <trkpt lat="46.10133" lon="3.51404">
        <ele>337.49</ele>
        <time>2015-04-11T12:53:43Z</time>
      </trkpt>
      <trkpt lat="46.10136" lon="3.51429">
        <ele>341.41</ele>
        <time>2015-04-11T12:53:56Z</time>
      </trkpt>
      <trkpt lat="46.10148" lon="3.51451">
        <ele>344.04</ele>
        <time>2015-04-11T12:54:07Z</time>
      </trkpt>
      <trkpt lat="46.10158" lon="3.51472">
        <ele>346.52</ele>
        <time>2015-04-11T12:54:20Z</time>
      </trkpt>
      <trkpt lat="46.10169" lon="3.51494">
        <ele>350.41</ele>
        <time>2015-04-11T12:54:33Z</time>
      </trkpt>
      <trkpt lat="46.10178" lon="3.51517">
        <ele>353.29</ele>
        <time>2015-04-11T12:54:45Z</time>
      </trkpt>
      <trkpt lat="46.10184" lon="3.51543">
        <ele>355.49</ele>
        <time>2015-04-11T12:54:56Z</time>
      </trkpt>
      <trkpt lat="46.10189" lon="3.51569">
        <ele>357.49</ele>
        <time>2015-04-11T12:55:06Z</time>
      </trkpt>
      <trkpt lat="46.10199" lon="3.51593">
        <ele>359.43</ele>
        <time>2015-04-11T12:55:16Z</time>
      </trkpt>
      <trkpt lat="46.10208" lon="3.51616">
        <ele>361.49</ele>
        <time>2015-04-11T12:55:29Z</time>
      </trkpt>
      <trkpt lat="46.10217" lon="3.5164">
        <ele>362.52</ele>
        <time>2015-04-11T12:55:37Z</time>
      </trkpt>
      <trkpt lat="46.10236" lon="3.51646">
        <ele>363.52</ele>
        <time>2015-04-11T12:55:48Z</time>
      </trkpt>
      <trkpt lat="46.10251" lon="3.51631">
        <ele>365.04</ele>
        <time>2015-04-11T12:55:57Z</time>
      </trkpt>
      <trkpt lat="46.10262" lon="3.5161">
        <ele>367.02</ele>
        <time>2015-04-11T12:56:05Z</time>
      </trkpt>
      <trkpt lat="46.10269" lon="3.51584">
        <ele>369.02</ele>
        <time>2015-04-11T12:56:13Z</time>
      </trkpt>
      <trkpt lat="46.1028" lon="3.5156">
        <ele>371.04</ele>
        <time>2015-04-11T12:56:23Z</time>
      </trkpt>
      <trkpt lat="46.1029" lon="3.51539">
        <ele>372.52</ele>
        <time>2015-04-11T12:56:34Z</time>
      </trkpt>
      <trkpt lat="46.103" lon="3.51515">
        <ele>374.3</ele>
        <time>2015-04-11T12:56:45Z</time>
      </trkpt>
      <trkpt lat="46.10311" lon="3.51494">
        <ele>376.04</ele>
        <time>2015-04-11T12:56:56Z</time>
      </trkpt>
      <trkpt lat="46.10324" lon="3.51472">
        <ele>377.54</ele>
        <time>2015-04-11T12:57:06Z</time>
      </trkpt>
      <trkpt lat="46.10332" lon="3.51449">
        <ele>379.43</ele>
        <time>2015-04-11T12:57:15Z</time>
      </trkpt>
      <trkpt lat="46.10343" lon="3.51425">
        <ele>380.52</ele>
        <time>2015-04-11T12:57:24Z</time>
      </trkpt>
      <trkpt lat="46.10344" lon="3.51453">
        <ele>384.49</ele>
        <time>2015-04-11T12:57:58Z</time>
      </trkpt>
      <trkpt lat="46.1034" lon="3.51479">
        <ele>387.29</ele>
        <time>2015-04-11T12:58:11Z</time>
      </trkpt>
      <trkpt lat="46.10336" lon="3.51505">
        <ele>389.05</ele>
        <time>2015-04-11T12:58:22Z</time>
      </trkpt>
      <trkpt lat="46.10335" lon="3.51532">
        <ele>390.54</ele>
        <time>2015-04-11T12:58:33Z</time>
      </trkpt>
      <trkpt lat="46.10336" lon="3.51563">
        <ele>392.54</ele>
        <time>2015-04-11T12:58:44Z</time>
      </trkpt>
      <trkpt lat="46.10339" lon="3.5159">
        <ele>394.49</ele>
        <time>2015-04-11T12:58:53Z</time>
      </trkpt>
      <trkpt lat="46.10342" lon="3.51616">
        <ele>396.3</ele>
        <time>2015-04-11T12:59:02Z</time>
      </trkpt>
      <trkpt lat="46.10351" lon="3.5164">
        <ele>396.55</ele>
        <time>2015-04-11T12:59:09Z</time>
      </trkpt>
      <trkpt lat="46.10362" lon="3.51663">
        <ele>396.05</ele>
        <time>2015-04-11T12:59:15Z</time>
      </trkpt>
      <trkpt lat="46.10372" lon="3.51687">
        <ele>395.55</ele>
        <time>2015-04-11T12:59:24Z</time>
      </trkpt>
      <trkpt lat="46.10383" lon="3.51711">
        <ele>395.55</ele>
        <time>2015-04-11T12:59:36Z</time>
      </trkpt>
      <trkpt lat="46.1039" lon="3.51734">
        <ele>396.55</ele>
        <time>2015-04-11T12:59:47Z</time>
      </trkpt>
      <trkpt lat="46.10401" lon="3.51758">
        <ele>399.04</ele>
        <time>2015-04-11T12:59:58Z</time>
      </trkpt>
      <trkpt lat="46.10412" lon="3.51779">
        <ele>401.98</ele>
        <time>2015-04-11T13:00:07Z</time>
      </trkpt>
      <trkpt lat="46.10419" lon="3.51805">
        <ele>405.41</ele>
        <time>2015-04-11T13:00:17Z</time>
      </trkpt>
      <trkpt lat="46.10432" lon="3.51826">
        <ele>409.27</ele>
        <time>2015-04-11T13:00:28Z</time>
      </trkpt>
      <trkpt lat="46.10444" lon="3.51848">
        <ele>412.91</ele>
        <time>2015-04-11T13:00:37Z</time>
      </trkpt>
      <trkpt lat="46.10457" lon="3.51871">
        <ele>416.23</ele>
        <time>2015-04-11T13:00:45Z</time>
      </trkpt>
      <trkpt lat="46.10469" lon="3.51893">
        <ele>418.48</ele>
        <time>2015-04-11T13:00:53Z</time>
      </trkpt>
      <trkpt lat="46.10484" lon="3.51912">
        <ele>421.02</ele>
        <time>2015-04-11T13:01:01Z</time>
      </trkpt>
      <trkpt lat="46.10503" lon="3.51923">
        <ele>423.27</ele>
        <time>2015-04-11T13:01:09Z</time>
      </trkpt>
      <trkpt lat="46.10516" lon="3.51942">
        <ele>426.41</ele>
        <time>2015-04-11T13:01:18Z</time>
      </trkpt>
      <trkpt lat="46.10512" lon="3.5197">
        <ele>429.41</ele>
        <time>2015-04-11T13:01:25Z</time>
      </trkpt>
      <trkpt lat="46.10507" lon="3.51996">
        <ele>435.2</ele>
        <time>2015-04-11T13:01:30Z</time>
      </trkpt>
      <trkpt lat="46.10502" lon="3.52024">
        <ele>439.07</ele>
        <time>2015-04-11T13:01:35Z</time>
      </trkpt>
      <trkpt lat="46.10497" lon="3.52052">
        <ele>440.98</ele>
        <time>2015-04-11T13:01:40Z</time>
      </trkpt>
      <trkpt lat="46.10492" lon="3.5208">
        <ele>441.53</ele>
        <time>2015-04-11T13:01:45Z</time>
      </trkpt>
      <trkpt lat="46.10487" lon="3.5211">
        <ele>442.49</ele>
        <time>2015-04-11T13:01:50Z</time>
      </trkpt>
      <trkpt lat="46.10482" lon="3.52135">
        <ele>442.55</ele>
        <time>2015-04-11T13:01:55Z</time>
      </trkpt>
      <trkpt lat="46.10477" lon="3.52161">
        <ele>441.58</ele>
        <time>2015-04-11T13:02:00Z</time>
      </trkpt>
      <trkpt lat="46.10473" lon="3.52187">
        <ele>441.55</ele>
        <time>2015-04-11T13:02:05Z</time>
      </trkpt>
      <trkpt lat="46.10467" lon="3.52213">
        <ele>441.55</ele>
        <time>2015-04-11T13:02:10Z</time>
      </trkpt>
      <trkpt lat="46.10463" lon="3.52238">
        <ele>441.55</ele>
        <time>2015-04-11T13:02:15Z</time>
      </trkpt>
      <trkpt lat="46.10458" lon="3.52268">
        <ele>440.58</ele>
        <time>2015-04-11T13:02:21Z</time>
      </trkpt>
      <trkpt lat="46.10452" lon="3.52294">
        <ele>440.55</ele>
        <time>2015-04-11T13:02:26Z</time>
      </trkpt>
      <trkpt lat="46.10448" lon="3.52322">
        <ele>439.68</ele>
        <time>2015-04-11T13:02:31Z</time>
      </trkpt>
      <trkpt lat="46.10444" lon="3.52348">
        <ele>439.56</ele>
        <time>2015-04-11T13:02:36Z</time>
      </trkpt>
      <trkpt lat="46.10438" lon="3.52374">
        <ele>439.55</ele>
        <time>2015-04-11T13:02:41Z</time>
      </trkpt>
      <trkpt lat="46.10433" lon="3.52399">
        <ele>439.55</ele>
        <time>2015-04-11T13:02:46Z</time>
      </trkpt>
      <trkpt lat="46.10428" lon="3.52429">
        <ele>439.55</ele>
        <time>2015-04-11T13:02:52Z</time>
      </trkpt>
      <trkpt lat="46.10423" lon="3.52457">
        <ele>439.55</ele>
        <time>2015-04-11T13:02:58Z</time>
      </trkpt>
      <trkpt lat="46.10419" lon="3.52483">
        <ele>441.52</ele>
        <time>2015-04-11T13:03:04Z</time>
      </trkpt>
      <trkpt lat="46.10414" lon="3.52513">
        <ele>448.46</ele>
        <time>2015-04-11T13:03:09Z</time>
      </trkpt>
      <trkpt lat="46.10408" lon="3.52545">
        <ele>450.92</ele>
        <time>2015-04-11T13:03:13Z</time>
      </trkpt>
      <trkpt lat="46.10403" lon="3.52575">
        <ele>451.47</ele>
        <time>2015-04-11T13:03:16Z</time>
      </trkpt>
      <trkpt lat="46.10399" lon="3.52607">
        <ele>450.79</ele>
        <time>2015-04-11T13:03:19Z</time>
      </trkpt>
      <trkpt lat="46.10394" lon="3.5264">
        <ele>450.58</ele>
        <time>2015-04-11T13:03:22Z</time>
      </trkpt>
      <trkpt lat="46.10388" lon="3.52674">
        <ele>450.56</ele>
        <time>2015-04-11T13:03:25Z</time>
      </trkpt>
      <trkpt lat="46.10383" lon="3.52704">
        <ele>450.05</ele>
        <time>2015-04-11T13:03:28Z</time>
      </trkpt>
      <trkpt lat="46.1037" lon="3.5273">
        <ele>449.62</ele>
        <time>2015-04-11T13:03:31Z</time>
      </trkpt>
      <trkpt lat="46.10357" lon="3.5276">
        <ele>448.62</ele>
        <time>2015-04-11T13:03:35Z</time>
      </trkpt>
      <trkpt lat="46.10345" lon="3.52783">
        <ele>447.62</ele>
        <time>2015-04-11T13:03:39Z</time>
      </trkpt>
      <trkpt lat="46.10334" lon="3.52807">
        <ele>448.43</ele>
        <time>2015-04-11T13:03:44Z</time>
      </trkpt>
      <trkpt lat="46.10318" lon="3.52822">
        <ele>448.55</ele>
        <time>2015-04-11T13:03:50Z</time>
      </trkpt>
      <trkpt lat="46.10304" lon="3.52839">
        <ele>448.55</ele>
        <time>2015-04-11T13:03:56Z</time>
      </trkpt>
      <trkpt lat="46.1029" lon="3.52856">
        <ele>448.55</ele>
        <time>2015-04-11T13:04:02Z</time>
      </trkpt>
      <trkpt lat="46.10276" lon="3.52876">
        <ele>448.55</ele>
        <time>2015-04-11T13:04:09Z</time>
      </trkpt>
      <trkpt lat="46.10262" lon="3.52899">
        <ele>448.55</ele>
        <time>2015-04-11T13:04:16Z</time>
      </trkpt>
      <trkpt lat="46.10251" lon="3.52923">
        <ele>448.55</ele>
        <time>2015-04-11T13:04:23Z</time>
      </trkpt>
      <trkpt lat="46.1024" lon="3.52944">
        <ele>447.57</ele>
        <time>2015-04-11T13:04:29Z</time>
      </trkpt>
      <trkpt lat="46.10227" lon="3.52964">
        <ele>447.55</ele>
        <time>2015-04-11T13:04:35Z</time>
      </trkpt>
      <trkpt lat="46.10213" lon="3.52981">
        <ele>447.55</ele>
        <time>2015-04-11T13:04:42Z</time>
      </trkpt>
      <trkpt lat="46.10197" lon="3.53">
        <ele>447.55</ele>
        <time>2015-04-11T13:04:51Z</time>
      </trkpt>
      <trkpt lat="46.10182" lon="3.53019">
        <ele>448.52</ele>
        <time>2015-04-11T13:05:00Z</time>
      </trkpt>
      <trkpt lat="46.10168" lon="3.53037">
        <ele>449.05</ele>
        <time>2015-04-11T13:05:08Z</time>
      </trkpt>
      <trkpt lat="46.10152" lon="3.53058">
        <ele>449.55</ele>
        <time>2015-04-11T13:05:18Z</time>
      </trkpt>
      <trkpt lat="46.10137" lon="3.53077">
        <ele>450.49</ele>
        <time>2015-04-11T13:05:27Z</time>
      </trkpt>
      <trkpt lat="46.10121" lon="3.53097">
        <ele>450.55</ele>
        <time>2015-04-11T13:05:37Z</time>
      </trkpt>
      <trkpt lat="46.10107" lon="3.53116">
        <ele>452.02</ele>
        <time>2015-04-11T13:05:45Z</time>
      </trkpt>
      <trkpt lat="46.10091" lon="3.53131">
        <ele>453.49</ele>
        <time>2015-04-11T13:05:54Z</time>
      </trkpt>
      <trkpt lat="46.10075" lon="3.5315">
        <ele>455.04</ele>
        <time>2015-04-11T13:06:04Z</time>
      </trkpt>
      <trkpt lat="46.10065" lon="3.53174">
        <ele>456.05</ele>
        <time>2015-04-11T13:06:13Z</time>
      </trkpt>
      <trkpt lat="46.10053" lon="3.53204">
        <ele>457.05</ele>
        <time>2015-04-11T13:06:22Z</time>
      </trkpt>
      <trkpt lat="46.10039" lon="3.53225">
        <ele>458.3</ele>
        <time>2015-04-11T13:06:30Z</time>
      </trkpt>
      <trkpt lat="46.10021" lon="3.53236">
        <ele>459.3</ele>
        <time>2015-04-11T13:06:38Z</time>
      </trkpt>
      <trkpt lat="46.10002" lon="3.53243">
        <ele>460.99</ele>
        <time>2015-04-11T13:06:47Z</time>
      </trkpt>
      <trkpt lat="46.09982" lon="3.53245">
        <ele>462.52</ele>
        <time>2015-04-11T13:06:55Z</time>
      </trkpt>
      <trkpt lat="46.09966" lon="3.53262">
        <ele>464.52</ele>
        <time>2015-04-11T13:07:04Z</time>
      </trkpt>
      <trkpt lat="46.09957" lon="3.53286">
        <ele>466.29</ele>
        <time>2015-04-11T13:07:10Z</time>
      </trkpt>
      <trkpt lat="46.09946" lon="3.53311">
        <ele>468.42</ele>
        <time>2015-04-11T13:07:15Z</time>
      </trkpt>
      <trkpt lat="46.09938" lon="3.53335">
        <ele>474.23</ele>
        <time>2015-04-11T13:07:19Z</time>
      </trkpt>
      <trkpt lat="46.09932" lon="3.53363">
        <ele>477.16</ele>
        <time>2015-04-11T13:07:23Z</time>
      </trkpt>
      <trkpt lat="46.09922" lon="3.53395">
        <ele>478.47</ele>
        <time>2015-04-11T13:07:27Z</time>
      </trkpt>
      <trkpt lat="46.09909" lon="3.53414">
        <ele>479.42</ele>
        <time>2015-04-11T13:07:30Z</time>
      </trkpt>
      <trkpt lat="46.09894" lon="3.53429">
        <ele>479.54</ele>
        <time>2015-04-11T13:07:33Z</time>
      </trkpt>
      <trkpt lat="46.09872" lon="3.53421">
        <ele>479.55</ele>
        <time>2015-04-11T13:07:36Z</time>
      </trkpt>
      <trkpt lat="46.09854" lon="3.53421">
        <ele>479.55</ele>
        <time>2015-04-11T13:07:38Z</time>
      </trkpt>
      <trkpt lat="46.09834" lon="3.53425">
        <ele>479.55</ele>
        <time>2015-04-11T13:07:40Z</time>
      </trkpt>
      <trkpt lat="46.09815" lon="3.53431">
        <ele>480.05</ele>
        <time>2015-04-11T13:07:42Z</time>
      </trkpt>
      <trkpt lat="46.09797" lon="3.53438">
        <ele>480.43</ele>
        <time>2015-04-11T13:07:44Z</time>
      </trkpt>
      <trkpt lat="46.0978" lon="3.53449">
        <ele>481.27</ele>
        <time>2015-04-11T13:07:46Z</time>
      </trkpt>
      <trkpt lat="46.09764" lon="3.53462">
        <ele>481.48</ele>
        <time>2015-04-11T13:07:48Z</time>
      </trkpt>
      <trkpt lat="46.0975" lon="3.53479">
        <ele>482.29</ele>
        <time>2015-04-11T13:07:50Z</time>
      </trkpt>
      <trkpt lat="46.09736" lon="3.53498">
        <ele>482.49</ele>
        <time>2015-04-11T13:07:52Z</time>
      </trkpt>
      <trkpt lat="46.09717" lon="3.53517">
        <ele>480.79</ele>
        <time>2015-04-11T13:07:54Z</time>
      </trkpt>
      <trkpt lat="46.09696" lon="3.53539">
        <ele>477.36</ele>
        <time>2015-04-11T13:07:56Z</time>
      </trkpt>
      <trkpt lat="46.09677" lon="3.53558">
        <ele>473.51</ele>
        <time>2015-04-11T13:07:58Z</time>
      </trkpt>
      <trkpt lat="46.09659" lon="3.53571">
        <ele>470.04</ele>
        <time>2015-04-11T13:08:00Z</time>
      </trkpt>
      <trkpt lat="46.09642" lon="3.53584">
        <ele>466.93</ele>
        <time>2015-04-11T13:08:02Z</time>
      </trkpt>
      <trkpt lat="46.09621" lon="3.53586">
        <ele>463.6</ele>
        <time>2015-04-11T13:08:05Z</time>
      </trkpt>
      <trkpt lat="46.09603" lon="3.53597">
        <ele>460.56</ele>
        <time>2015-04-11T13:08:08Z</time>
      </trkpt>
      <trkpt lat="46.09584" lon="3.53612">
        <ele>457.55</ele>
        <time>2015-04-11T13:08:11Z</time>
      </trkpt>
      <trkpt lat="46.09565" lon="3.53627">
        <ele>456.18</ele>
        <time>2015-04-11T13:08:14Z</time>
      </trkpt>
      <trkpt lat="46.09547" lon="3.53655">
        <ele>455.13</ele>
        <time>2015-04-11T13:08:17Z</time>
      </trkpt>
      <trkpt lat="46.09538" lon="3.53678">
        <ele>454.2</ele>
        <time>2015-04-11T13:08:19Z</time>
      </trkpt>
      <trkpt lat="46.09526" lon="3.53702">
        <ele>452.46</ele>
        <time>2015-04-11T13:08:21Z</time>
      </trkpt>
      <trkpt lat="46.09515" lon="3.53725">
        <ele>450.53</ele>
        <time>2015-04-11T13:08:23Z</time>
      </trkpt>
      <trkpt lat="46.09501" lon="3.53747">
        <ele>448.55</ele>
        <time>2015-04-11T13:08:25Z</time>
      </trkpt>
      <trkpt lat="46.09488" lon="3.53766">
        <ele>447.3</ele>
        <time>2015-04-11T13:08:27Z</time>
      </trkpt>
      <trkpt lat="46.09471" lon="3.53775">
        <ele>445.99</ele>
        <time>2015-04-11T13:08:29Z</time>
      </trkpt>
      <trkpt lat="46.09447" lon="3.5379">
        <ele>444.73</ele>
        <time>2015-04-11T13:08:32Z</time>
      </trkpt>
      <trkpt lat="46.09422" lon="3.53801">
        <ele>443.83</ele>
        <time>2015-04-11T13:08:35Z</time>
      </trkpt>
      <trkpt lat="46.09404" lon="3.53801">
        <ele>443.62</ele>
        <time>2015-04-11T13:08:37Z</time>
      </trkpt>
      <trkpt lat="46.09378" lon="3.53803">
        <ele>443.56</ele>
        <time>2015-04-11T13:08:40Z</time>
      </trkpt>
      <trkpt lat="46.09355" lon="3.53801">
        <ele>443.55</ele>
        <time>2015-04-11T13:08:43Z</time>
      </trkpt>
      <trkpt lat="46.09332" lon="3.53801">
        <ele>444.43</ele>
        <time>2015-04-11T13:08:46Z</time>
      </trkpt>
      <trkpt lat="46.09306" lon="3.53792">
        <ele>443.66</ele>
        <time>2015-04-11T13:08:49Z</time>
      </trkpt>
      <trkpt lat="46.09288" lon="3.53783">
        <ele>443.58</ele>
        <time>2015-04-11T13:08:51Z</time>
      </trkpt>
      <trkpt lat="46.0927" lon="3.53783">
        <ele>443.56</ele>
        <time>2015-04-11T13:08:53Z</time>
      </trkpt>
      <trkpt lat="46.09246" lon="3.53775">
        <ele>443.55</ele>
        <time>2015-04-11T13:08:56Z</time>
      </trkpt>
      <trkpt lat="46.09226" lon="3.53764">
        <ele>443.55</ele>
        <time>2015-04-11T13:08:59Z</time>
      </trkpt>
      <trkpt lat="46.09205" lon="3.53755">
        <ele>444.43</ele>
        <time>2015-04-11T13:09:02Z</time>
      </trkpt>
      <trkpt lat="46.09183" lon="3.53753">
        <ele>444.54</ele>
        <time>2015-04-11T13:09:05Z</time>
      </trkpt>
      <trkpt lat="46.09162" lon="3.53751">
        <ele>444.55</ele>
        <time>2015-04-11T13:09:08Z</time>
      </trkpt>
      <trkpt lat="46.09139" lon="3.53753">
        <ele>442.55</ele>
        <time>2015-04-11T13:09:11Z</time>
      </trkpt>
      <trkpt lat="46.09111" lon="3.53762">
        <ele>433.55</ele>
        <time>2015-04-11T13:09:14Z</time>
      </trkpt>
      <trkpt lat="46.09087" lon="3.5377">
        <ele>425.55</ele>
        <time>2015-04-11T13:09:16Z</time>
      </trkpt>
      <trkpt lat="46.09065" lon="3.53781">
        <ele>418.05</ele>
        <time>2015-04-11T13:09:18Z</time>
      </trkpt>
      <trkpt lat="46.09041" lon="3.53792">
        <ele>409.87</ele>
        <time>2015-04-11T13:09:21Z</time>
      </trkpt>
      <trkpt lat="46.09019" lon="3.53801">
        <ele>403.26</ele>
        <time>2015-04-11T13:09:25Z</time>
      </trkpt>
      <trkpt lat="46.08999" lon="3.53803">
        <ele>399.14</ele>
        <time>2015-04-11T13:09:28Z</time>
      </trkpt>
      <trkpt lat="46.08975" lon="3.53801">
        <ele>396.38</ele>
        <time>2015-04-11T13:09:31Z</time>
      </trkpt>
      <trkpt lat="46.0895" lon="3.53796">
        <ele>393.53</ele>
        <time>2015-04-11T13:09:34Z</time>
      </trkpt>
      <trkpt lat="46.08933" lon="3.53788">
        <ele>392.3</ele>
        <time>2015-04-11T13:09:36Z</time>
      </trkpt>
      <trkpt lat="46.08916" lon="3.53773">
        <ele>389.52</ele>
        <time>2015-04-11T13:09:39Z</time>
      </trkpt>
      <trkpt lat="46.08896" lon="3.53758">
        <ele>387.86</ele>
        <time>2015-04-11T13:09:43Z</time>
      </trkpt>
      <trkpt lat="46.08877" lon="3.53751">
        <ele>386.13</ele>
        <time>2015-04-11T13:09:47Z</time>
      </trkpt>
      <trkpt lat="46.08858" lon="3.53758">
        <ele>385.07</ele>
        <time>2015-04-11T13:09:52Z</time>
      </trkpt>
      <trkpt lat="46.08838" lon="3.53758">
        <ele>384.06</ele>
        <time>2015-04-11T13:09:58Z</time>
      </trkpt>
      <trkpt lat="46.08819" lon="3.53751">
        <ele>382.62</ele>
        <time>2015-04-11T13:10:05Z</time>
      </trkpt>
      <trkpt lat="46.08801" lon="3.53745">
        <ele>381.08</ele>
        <time>2015-04-11T13:10:12Z</time>
      </trkpt>
      <trkpt lat="46.08781" lon="3.53745">
        <ele>377.93</ele>
        <time>2015-04-11T13:10:21Z</time>
      </trkpt>
      <trkpt lat="46.08765" lon="3.53762">
        <ele>375.26</ele>
        <time>2015-04-11T13:10:25Z</time>
      </trkpt>
      <trkpt lat="46.08744" lon="3.5376">
        <ele>369.76</ele>
        <time>2015-04-11T13:10:30Z</time>
      </trkpt>
      <trkpt lat="46.08726" lon="3.53743">
        <ele>353.9</ele>
        <time>2015-04-11T13:10:35Z</time>
      </trkpt>
      <trkpt lat="46.08708" lon="3.53728">
        <ele>347.13</ele>
        <time>2015-04-11T13:10:40Z</time>
      </trkpt>
      <trkpt lat="46.0869" lon="3.53725">
        <ele>345.65</ele>
        <time>2015-04-11T13:10:44Z</time>
      </trkpt>
      <trkpt lat="46.0867" lon="3.53732">
        <ele>345.56</ele>
        <time>2015-04-11T13:10:48Z</time>
      </trkpt>
      <trkpt lat="46.08651" lon="3.53736">
        <ele>346.3</ele>
        <time>2015-04-11T13:10:52Z</time>
      </trkpt>
      <trkpt lat="46.08633" lon="3.53743">
        <ele>346.54</ele>
        <time>2015-04-11T13:10:56Z</time>
      </trkpt>
      <trkpt lat="46.08611" lon="3.53751">
        <ele>347.05</ele>
        <time>2015-04-11T13:11:02Z</time>
      </trkpt>
      <trkpt lat="46.08592" lon="3.53758">
        <ele>348.29</ele>
        <time>2015-04-11T13:11:07Z</time>
      </trkpt>
      <trkpt lat="46.08573" lon="3.53764">
        <ele>347.61</ele>
        <time>2015-04-11T13:11:12Z</time>
      </trkpt>
      <trkpt lat="46.08554" lon="3.53773">
        <ele>347.55</ele>
        <time>2015-04-11T13:11:17Z</time>
      </trkpt>
      <trkpt lat="46.08536" lon="3.53781">
        <ele>347.55</ele>
        <time>2015-04-11T13:11:22Z</time>
      </trkpt>
      <trkpt lat="46.08515" lon="3.5379">
        <ele>347.55</ele>
        <time>2015-04-11T13:11:28Z</time>
      </trkpt>
      <trkpt lat="46.08498" lon="3.53798">
        <ele>347.55</ele>
        <time>2015-04-11T13:11:32Z</time>
      </trkpt>
      <trkpt lat="46.08476" lon="3.53803">
        <ele>346.58</ele>
        <time>2015-04-11T13:11:37Z</time>
      </trkpt>
      <trkpt lat="46.08456" lon="3.53811">
        <ele>347.49</ele>
        <time>2015-04-11T13:11:42Z</time>
      </trkpt>
      <trkpt lat="46.08436" lon="3.5382">
        <ele>347.55</ele>
        <time>2015-04-11T13:11:47Z</time>
      </trkpt>
      <trkpt lat="46.08416" lon="3.53826">
        <ele>348.3</ele>
        <time>2015-04-11T13:11:52Z</time>
      </trkpt>
      <trkpt lat="46.08393" lon="3.53833">
        <ele>348.55</ele>
        <time>2015-04-11T13:12:00Z</time>
      </trkpt>
      <trkpt lat="46.08376" lon="3.53818">
        <ele>350.05</ele>
        <time>2015-04-11T13:12:19Z</time>
      </trkpt>
      <trkpt lat="46.08349" lon="3.53826">
        <ele>353.04</ele>
        <time>2015-04-11T13:12:34Z</time>
      </trkpt>
      <trkpt lat="46.08331" lon="3.53828">
        <ele>355.04</ele>
        <time>2015-04-11T13:12:45Z</time>
      </trkpt>
      <trkpt lat="46.08312" lon="3.53835">
        <ele>357.05</ele>
        <time>2015-04-11T13:12:58Z</time>
      </trkpt>
      <trkpt lat="46.08293" lon="3.53839">
        <ele>359.04</ele>
        <time>2015-04-11T13:13:09Z</time>
      </trkpt>
      <trkpt lat="46.08278" lon="3.53816">
        <ele>364.52</ele>
        <time>2015-04-11T13:13:48Z</time>
      </trkpt>
      <trkpt lat="46.08271" lon="3.53788">
        <ele>366.05</ele>
        <time>2015-04-11T13:14:04Z</time>
      </trkpt>
      <trkpt lat="46.08256" lon="3.53753">
        <ele>370.05</ele>
        <time>2015-04-11T13:14:26Z</time>
      </trkpt>
      <trkpt lat="46.08243" lon="3.53732">
        <ele>372.3</ele>
        <time>2015-04-11T13:14:41Z</time>
      </trkpt>
      <trkpt lat="46.08236" lon="3.53706">
        <ele>374.3</ele>
        <time>2015-04-11T13:14:57Z</time>
      </trkpt>
      <trkpt lat="46.08231" lon="3.5368">
        <ele>376.3</ele>
        <time>2015-04-11T13:15:09Z</time>
      </trkpt>
      <trkpt lat="46.08224" lon="3.53655">
        <ele>378.3</ele>
        <time>2015-04-11T13:15:23Z</time>
      </trkpt>
      <trkpt lat="46.08216" lon="3.53631">
        <ele>379.55</ele>
        <time>2015-04-11T13:15:35Z</time>
      </trkpt>
      <trkpt lat="46.08206" lon="3.5361">
        <ele>381.49</ele>
        <time>2015-04-11T13:15:46Z</time>
      </trkpt>
      <trkpt lat="46.08192" lon="3.5359">
        <ele>382.55</ele>
        <time>2015-04-11T13:16:00Z</time>
      </trkpt>
      <trkpt lat="46.08176" lon="3.53575">
        <ele>384.52</ele>
        <time>2015-04-11T13:16:15Z</time>
      </trkpt>
      <trkpt lat="46.08158" lon="3.53565">
        <ele>386.54</ele>
        <time>2015-04-11T13:16:31Z</time>
      </trkpt>
      <trkpt lat="46.0814" lon="3.53558">
        <ele>389.43</ele>
        <time>2015-04-11T13:16:48Z</time>
      </trkpt>
      <trkpt lat="46.08123" lon="3.53549">
        <ele>392.42</ele>
        <time>2015-04-11T13:17:03Z</time>
      </trkpt>
      <trkpt lat="46.08105" lon="3.53543">
        <ele>396.42</ele>
        <time>2015-04-11T13:17:21Z</time>
      </trkpt>
      <trkpt lat="46.08087" lon="3.53539">
        <ele>400.04</ele>
        <time>2015-04-11T13:17:39Z</time>
      </trkpt>
      <trkpt lat="46.08068" lon="3.53541">
        <ele>402.05</ele>
        <time>2015-04-11T13:17:53Z</time>
      </trkpt>
      <trkpt lat="46.08051" lon="3.53532">
        <ele>404.52</ele>
        <time>2015-04-11T13:18:08Z</time>
      </trkpt>
      <trkpt lat="46.08036" lon="3.53517">
        <ele>407.52</ele>
        <time>2015-04-11T13:18:24Z</time>
      </trkpt>
      <trkpt lat="46.08021" lon="3.535">
        <ele>411.27</ele>
        <time>2015-04-11T13:18:39Z</time>
      </trkpt>
      <trkpt lat="46.08013" lon="3.53477">
        <ele>415.91</ele>
        <time>2015-04-11T13:18:51Z</time>
      </trkpt>
      <trkpt lat="46.08002" lon="3.53455">
        <ele>421.39</ele>
        <time>2015-04-11T13:19:06Z</time>
      </trkpt>
      <trkpt lat="46.0799" lon="3.53434">
        <ele>426.91</ele>
        <time>2015-04-11T13:19:20Z</time>
      </trkpt>
      <trkpt lat="46.07983" lon="3.5341">
        <ele>431.49</ele>
        <time>2015-04-11T13:19:36Z</time>
      </trkpt>
      <trkpt lat="46.07972" lon="3.53389">
        <ele>432.55</ele>
        <time>2015-04-11T13:19:53Z</time>
      </trkpt>
      <trkpt lat="46.0797" lon="3.53363">
        <ele>434.3</ele>
        <time>2015-04-11T13:20:08Z</time>
      </trkpt>
      <trkpt lat="46.07968" lon="3.53337">
        <ele>436.43</ele>
        <time>2015-04-11T13:20:19Z</time>
      </trkpt>
      <trkpt lat="46.07962" lon="3.53311">
        <ele>439.52</ele>
        <time>2015-04-11T13:20:36Z</time>
      </trkpt>
      <trkpt lat="46.07958" lon="3.53286">
        <ele>443.42</ele>
        <time>2015-04-11T13:20:51Z</time>
      </trkpt>
      <trkpt lat="46.07954" lon="3.5326">
        <ele>445.54</ele>
        <time>2015-04-11T13:21:03Z</time>
      </trkpt>
      <trkpt lat="46.07946" lon="3.53234">
        <ele>448.3</ele>
        <time>2015-04-11T13:21:17Z</time>
      </trkpt>
      <trkpt lat="46.0794" lon="3.53208">
        <ele>453.22</ele>
        <time>2015-04-11T13:21:33Z</time>
      </trkpt>
      <trkpt lat="46.07932" lon="3.53185">
        <ele>460.22</ele>
        <time>2015-04-11T13:21:48Z</time>
      </trkpt>
      <trkpt lat="46.07925" lon="3.53159">
        <ele>464.27</ele>
        <time>2015-04-11T13:21:59Z</time>
      </trkpt>
      <trkpt lat="46.07918" lon="3.53133">
        <ele>466.52</ele>
        <time>2015-04-11T13:22:10Z</time>
      </trkpt>
      <trkpt lat="46.07903" lon="3.53116">
        <ele>469.43</ele>
        <time>2015-04-11T13:22:23Z</time>
      </trkpt>
      <trkpt lat="46.07882" lon="3.5312">
        <ele>470.54</ele>
        <time>2015-04-11T13:22:32Z</time>
      </trkpt>
      <trkpt lat="46.07862" lon="3.53131">
        <ele>472.68</ele>
        <time>2015-04-11T13:22:36Z</time>
      </trkpt>
      <trkpt lat="46.07841" lon="3.53146">
        <ele>475.81</ele>
        <time>2015-04-11T13:22:40Z</time>
      </trkpt>
      <trkpt lat="46.07823" lon="3.53157">
        <ele>477.84</ele>
        <time>2015-04-11T13:22:43Z</time>
      </trkpt>
      <trkpt lat="46.07801" lon="3.53165">
        <ele>479.88</ele>
        <time>2015-04-11T13:22:47Z</time>
      </trkpt>
      <trkpt lat="46.0778" lon="3.53172">
        <ele>481.41</ele>
        <time>2015-04-11T13:22:52Z</time>
      </trkpt>
      <trkpt lat="46.0776" lon="3.53183">
        <ele>482.29</ele>
        <time>2015-04-11T13:22:56Z</time>
      </trkpt>
      <trkpt lat="46.0774" lon="3.53191">
        <ele>481.15</ele>
        <time>2015-04-11T13:22:59Z</time>
      </trkpt>
      <trkpt lat="46.07719" lon="3.53202">
        <ele>480.38</ele>
        <time>2015-04-11T13:23:02Z</time>
      </trkpt>
      <trkpt lat="46.07699" lon="3.53215">
        <ele>480.53</ele>
        <time>2015-04-11T13:23:05Z</time>
      </trkpt>
      <trkpt lat="46.07683" lon="3.5323">
        <ele>480.55</ele>
        <time>2015-04-11T13:23:08Z</time>
      </trkpt>
      <trkpt lat="46.07667" lon="3.53243">
        <ele>477.93</ele>
        <time>2015-04-11T13:23:11Z</time>
      </trkpt>
      <trkpt lat="46.07654" lon="3.53264">
        <ele>475.35</ele>
        <time>2015-04-11T13:23:14Z</time>
      </trkpt>
      <trkpt lat="46.07645" lon="3.5329">
        <ele>473.03</ele>
        <time>2015-04-11T13:23:17Z</time>
      </trkpt>
      <trkpt lat="46.07626" lon="3.53311">
        <ele>471.21</ele>
        <time>2015-04-11T13:23:21Z</time>
      </trkpt>
      <trkpt lat="46.07608" lon="3.53316">
        <ele>470.63</ele>
        <time>2015-04-11T13:23:24Z</time>
      </trkpt>
      <trkpt lat="46.07586" lon="3.53318">
        <ele>469.31</ele>
        <time>2015-04-11T13:23:27Z</time>
      </trkpt>
      <trkpt lat="46.07562" lon="3.53322">
        <ele>465.65</ele>
        <time>2015-04-11T13:23:30Z</time>
      </trkpt>
      <trkpt lat="46.07543" lon="3.53324">
        <ele>463.31</ele>
        <time>2015-04-11T13:23:33Z</time>
      </trkpt>
      <trkpt lat="46.07525" lon="3.53313">
        <ele>461.02</ele>
        <time>2015-04-11T13:23:36Z</time>
      </trkpt>
      <trkpt lat="46.07504" lon="3.53305">
        <ele>459.64</ele>
        <time>2015-04-11T13:23:40Z</time>
      </trkpt>
      <trkpt lat="46.07487" lon="3.53313">
        <ele>459.56</ele>
        <time>2015-04-11T13:23:44Z</time>
      </trkpt>
      <trkpt lat="46.0747" lon="3.53337">
        <ele>456.87</ele>
        <time>2015-04-11T13:23:48Z</time>
      </trkpt>
      <trkpt lat="46.07462" lon="3.53361">
        <ele>453.59</ele>
        <time>2015-04-11T13:23:51Z</time>
      </trkpt>
      <trkpt lat="46.0746" lon="3.53391">
        <ele>450.56</ele>
        <time>2015-04-11T13:23:54Z</time>
      </trkpt>
      <trkpt lat="46.07461" lon="3.53421">
        <ele>448.05</ele>
        <time>2015-04-11T13:23:57Z</time>
      </trkpt>
      <trkpt lat="46.07463" lon="3.53455">
        <ele>445.49</ele>
        <time>2015-04-11T13:24:00Z</time>
      </trkpt>
      <trkpt lat="46.07475" lon="3.53481">
        <ele>441.3</ele>
        <time>2015-04-11T13:24:03Z</time>
      </trkpt>
      <trkpt lat="46.07491" lon="3.53509">
        <ele>436.77</ele>
        <time>2015-04-11T13:24:06Z</time>
      </trkpt>
      <trkpt lat="46.07507" lon="3.53534">
        <ele>433.58</ele>
        <time>2015-04-11T13:24:09Z</time>
      </trkpt>
      <trkpt lat="46.07522" lon="3.53558">
        <ele>430.56</ele>
        <time>2015-04-11T13:24:12Z</time>
      </trkpt>
      <trkpt lat="46.07537" lon="3.53582">
        <ele>427.55</ele>
        <time>2015-04-11T13:24:15Z</time>
      </trkpt>
      <trkpt lat="46.07551" lon="3.53603">
        <ele>423.55</ele>
        <time>2015-04-11T13:24:19Z</time>
      </trkpt>
      <trkpt lat="46.07562" lon="3.53625">
        <ele>422.08</ele>
        <time>2015-04-11T13:24:24Z</time>
      </trkpt>
      <trkpt lat="46.07572" lon="3.53648">
        <ele>420.56</ele>
        <time>2015-04-11T13:24:30Z</time>
      </trkpt>
      <trkpt lat="46.07583" lon="3.53674">
        <ele>417.05</ele>
        <time>2015-04-11T13:24:34Z</time>
      </trkpt>
      <trkpt lat="46.07594" lon="3.53698">
        <ele>415.74</ele>
        <time>2015-04-11T13:24:37Z</time>
      </trkpt>
      <trkpt lat="46.07606" lon="3.53723">
        <ele>414.7</ele>
        <time>2015-04-11T13:24:40Z</time>
      </trkpt>
      <trkpt lat="46.0762" lon="3.53749">
        <ele>414.07</ele>
        <time>2015-04-11T13:24:43Z</time>
      </trkpt>
      <trkpt lat="46.07636" lon="3.53773">
        <ele>413.62</ele>
        <time>2015-04-11T13:24:46Z</time>
      </trkpt>
      <trkpt lat="46.07651" lon="3.53794">
        <ele>412.69</ele>
        <time>2015-04-11T13:24:49Z</time>
      </trkpt>
      <trkpt lat="46.0766" lon="3.53818">
        <ele>410.94</ele>
        <time>2015-04-11T13:24:52Z</time>
      </trkpt>
      <trkpt lat="46.07664" lon="3.53848">
        <ele>408.89</ele>
        <time>2015-04-11T13:24:56Z</time>
      </trkpt>
      <trkpt lat="46.07651" lon="3.53867">
        <ele>407.31</ele>
        <time>2015-04-11T13:25:01Z</time>
      </trkpt>
      <trkpt lat="46.07635" lon="3.53882">
        <ele>403.54</ele>
        <time>2015-04-11T13:25:05Z</time>
      </trkpt>
      <trkpt lat="46.07619" lon="3.53899">
        <ele>400.37</ele>
        <time>2015-04-11T13:25:10Z</time>
      </trkpt>
      <trkpt lat="46.07604" lon="3.53919">
        <ele>397.53</ele>
        <time>2015-04-11T13:25:13Z</time>
      </trkpt>
      <trkpt lat="46.07586" lon="3.5394">
        <ele>394.55</ele>
        <time>2015-04-11T13:25:16Z</time>
      </trkpt>
      <trkpt lat="46.07567" lon="3.53951">
        <ele>391.55</ele>
        <time>2015-04-11T13:25:19Z</time>
      </trkpt>
      <trkpt lat="46.07548" lon="3.5394">
        <ele>388.24</ele>
        <time>2015-04-11T13:25:23Z</time>
      </trkpt>
      <trkpt lat="46.0753" lon="3.53946">
        <ele>385.23</ele>
        <time>2015-04-11T13:25:28Z</time>
      </trkpt>
      <trkpt lat="46.07534" lon="3.53972">
        <ele>382.28</ele>
        <time>2015-04-11T13:25:32Z</time>
      </trkpt>
      <trkpt lat="46.07548" lon="3.53996">
        <ele>380.72</ele>
        <time>2015-04-11T13:25:36Z</time>
      </trkpt>
      <trkpt lat="46.07553" lon="3.54024">
        <ele>380.57</ele>
        <time>2015-04-11T13:25:39Z</time>
      </trkpt>
      <trkpt lat="46.07558" lon="3.54054">
        <ele>380.06</ele>
        <time>2015-04-11T13:25:42Z</time>
      </trkpt>
      <trkpt lat="46.07573" lon="3.54073">
        <ele>378.33</ele>
        <time>2015-04-11T13:25:46Z</time>
      </trkpt>
      <trkpt lat="46.07556" lon="3.54082">
        <ele>376.56</ele>
        <time>2015-04-11T13:25:55Z</time>
      </trkpt>
      <trkpt lat="46.07535" lon="3.54079">
        <ele>373.77</ele>
        <time>2015-04-11T13:26:00Z</time>
      </trkpt>
      <trkpt lat="46.07517" lon="3.54067">
        <ele>372.58</ele>
        <time>2015-04-11T13:26:13Z</time>
      </trkpt>
      <trkpt lat="46.07498" lon="3.54052">
        <ele>371.05</ele>
        <time>2015-04-11T13:26:36Z</time>
      </trkpt>
      <trkpt lat="46.07483" lon="3.54067">
        <ele>371.55</ele>
        <time>2015-04-11T13:29:07Z</time>
      </trkpt>
      <trkpt lat="46.07464" lon="3.54062">
        <ele>373.43</ele>
        <time>2015-04-11T13:29:20Z</time>
      </trkpt>
      <trkpt lat="46.07446" lon="3.54058">
        <ele>374.05</ele>
        <time>2015-04-11T13:29:45Z</time>
      </trkpt>
      <trkpt lat="46.07431" lon="3.54043">
        <ele>382.29</ele>
        <time>2015-04-11T13:30:14Z</time>
      </trkpt>
      <trkpt lat="46.07413" lon="3.54047">
        <ele>383.55</ele>
        <time>2015-04-11T13:30:45Z</time>
      </trkpt>
      <trkpt lat="46.07395" lon="3.54054">
        <ele>389.3</ele>
        <time>2015-04-11T13:31:42Z</time>
      </trkpt>
      <trkpt lat="46.07376" lon="3.54056">
        <ele>389.55</ele>
        <time>2015-04-11T13:32:35Z</time>
      </trkpt>
      <trkpt lat="46.07359" lon="3.54045">
        <ele>391.3</ele>
        <time>2015-04-11T13:32:58Z</time>
      </trkpt>
      <trkpt lat="46.07342" lon="3.54037">
        <ele>393.52</ele>
        <time>2015-04-11T13:33:13Z</time>
      </trkpt>
      <trkpt lat="46.07325" lon="3.54026">
        <ele>396.42</ele>
        <time>2015-04-11T13:33:28Z</time>
      </trkpt>
      <trkpt lat="46.07308" lon="3.54017">
        <ele>399.49</ele>
        <time>2015-04-11T13:33:44Z</time>
      </trkpt>
      <trkpt lat="46.07291" lon="3.54007">
        <ele>403.49</ele>
        <time>2015-04-11T13:34:02Z</time>
      </trkpt>
      <trkpt lat="46.07272" lon="3.54002">
        <ele>407.29</ele>
        <time>2015-04-11T13:34:18Z</time>
      </trkpt>
      <trkpt lat="46.07256" lon="3.53989">
        <ele>413.49</ele>
        <time>2015-04-11T13:34:48Z</time>
      </trkpt>
      <trkpt lat="46.07242" lon="3.53968">
        <ele>417.41</ele>
        <time>2015-04-11T13:35:01Z</time>
      </trkpt>
      <trkpt lat="46.07225" lon="3.53959">
        <ele>420.02</ele>
        <time>2015-04-11T13:35:10Z</time>
      </trkpt>
      <trkpt lat="46.07206" lon="3.53953">
        <ele>422.29</ele>
        <time>2015-04-11T13:35:20Z</time>
      </trkpt>
      <trkpt lat="46.07189" lon="3.53942">
        <ele>424.49</ele>
        <time>2015-04-11T13:35:31Z</time>
      </trkpt>
      <trkpt lat="46.0717" lon="3.53936">
        <ele>427.42</ele>
        <time>2015-04-11T13:35:42Z</time>
      </trkpt>
      <trkpt lat="46.07152" lon="3.53927">
        <ele>430.02</ele>
        <time>2015-04-11T13:35:53Z</time>
      </trkpt>
      <trkpt lat="46.07135" lon="3.53916">
        <ele>433.02</ele>
        <time>2015-04-11T13:36:05Z</time>
      </trkpt>
      <trkpt lat="46.07118" lon="3.53908">
        <ele>435.42</ele>
        <time>2015-04-11T13:36:16Z</time>
      </trkpt>
      <trkpt lat="46.07102" lon="3.53895">
        <ele>437.49</ele>
        <time>2015-04-11T13:36:27Z</time>
      </trkpt>
      <trkpt lat="46.07086" lon="3.5388">
        <ele>439.52</ele>
        <time>2015-04-11T13:36:37Z</time>
      </trkpt>
      <trkpt lat="46.07069" lon="3.53867">
        <ele>441.49</ele>
        <time>2015-04-11T13:36:45Z</time>
      </trkpt>
      <trkpt lat="46.07054" lon="3.53852">
        <ele>442.54</ele>
        <time>2015-04-11T13:36:52Z</time>
      </trkpt>
      <trkpt lat="46.07039" lon="3.53835">
        <ele>443.55</ele>
        <time>2015-04-11T13:36:59Z</time>
      </trkpt>
      <trkpt lat="46.07024" lon="3.5382">
        <ele>444.54</ele>
        <time>2015-04-11T13:37:06Z</time>
      </trkpt>
      <trkpt lat="46.07008" lon="3.53807">
        <ele>446.3</ele>
        <time>2015-04-11T13:37:13Z</time>
      </trkpt>
      <trkpt lat="46.06989" lon="3.53805">
        <ele>447.43</ele>
        <time>2015-04-11T13:37:20Z</time>
      </trkpt>
      <trkpt lat="46.06971" lon="3.53807">
        <ele>447.55</ele>
        <time>2015-04-11T13:37:27Z</time>
      </trkpt>
      <trkpt lat="46.06951" lon="3.53809">
        <ele>448.54</ele>
        <time>2015-04-11T13:37:35Z</time>
      </trkpt>
      <trkpt lat="46.06933" lon="3.53807">
        <ele>448.55</ele>
        <time>2015-04-11T13:37:43Z</time>
      </trkpt>
      <trkpt lat="46.06914" lon="3.53809">
        <ele>448.55</ele>
        <time>2015-04-11T13:37:51Z</time>
      </trkpt>
      <trkpt lat="46.06896" lon="3.53813">
        <ele>449.3</ele>
        <time>2015-04-11T13:38:01Z</time>
      </trkpt>
      <trkpt lat="46.06876" lon="3.5382">
        <ele>450.43</ele>
        <time>2015-04-11T13:38:10Z</time>
      </trkpt>
      <trkpt lat="46.06857" lon="3.53826">
        <ele>451.05</ele>
        <time>2015-04-11T13:38:18Z</time>
      </trkpt>
      <trkpt lat="46.06837" lon="3.53828">
        <ele>452.05</ele>
        <time>2015-04-11T13:38:25Z</time>
      </trkpt>
      <trkpt lat="46.06818" lon="3.53831">
        <ele>453.49</ele>
        <time>2015-04-11T13:38:33Z</time>
      </trkpt>
      <trkpt lat="46.068" lon="3.53833">
        <ele>456.42</ele>
        <time>2015-04-11T13:38:44Z</time>
      </trkpt>
      <trkpt lat="46.06782" lon="3.53839">
        <ele>458.42</ele>
        <time>2015-04-11T13:38:54Z</time>
      </trkpt>
      <trkpt lat="46.06765" lon="3.53856">
        <ele>460.49</ele>
        <time>2015-04-11T13:39:02Z</time>
      </trkpt>
      <trkpt lat="46.06748" lon="3.5388">
        <ele>461.49</ele>
        <time>2015-04-11T13:39:07Z</time>
      </trkpt>
      <trkpt lat="46.06733" lon="3.53899">
        <ele>462.49</ele>
        <time>2015-04-11T13:39:12Z</time>
      </trkpt>
      <trkpt lat="46.06719" lon="3.53916">
        <ele>463.54</ele>
        <time>2015-04-11T13:39:20Z</time>
      </trkpt>
      <trkpt lat="46.06711" lon="3.5394">
        <ele>463.56</ele>
        <time>2015-04-11T13:39:40Z</time>
      </trkpt>
      <trkpt lat="46.06691" lon="3.53949">
        <ele>459.68</ele>
        <time>2015-04-11T13:46:44Z</time>
      </trkpt>
      <trkpt lat="46.0667" lon="3.53957">
        <ele>459.55</ele>
        <time>2015-04-11T13:46:51Z</time>
      </trkpt>
      <trkpt lat="46.06653" lon="3.53972">
        <ele>460.49</ele>
        <time>2015-04-11T13:47:00Z</time>
      </trkpt>
      <trkpt lat="46.06639" lon="3.53989">
        <ele>461.05</ele>
        <time>2015-04-11T13:47:07Z</time>
      </trkpt>
      <trkpt lat="46.06634" lon="3.54017">
        <ele>462.8</ele>
        <time>2015-04-11T13:47:17Z</time>
      </trkpt>
      <trkpt lat="46.06644" lon="3.54045">
        <ele>465.13</ele>
        <time>2015-04-11T13:47:21Z</time>
      </trkpt>
      <trkpt lat="46.06656" lon="3.54071">
        <ele>465.5</ele>
        <time>2015-04-11T13:47:24Z</time>
      </trkpt>
      <trkpt lat="46.06668" lon="3.54092">
        <ele>465.55</ele>
        <time>2015-04-11T13:47:27Z</time>
      </trkpt>
      <trkpt lat="46.06682" lon="3.5411">
        <ele>465.05</ele>
        <time>2015-04-11T13:47:30Z</time>
      </trkpt>
      <trkpt lat="46.06696" lon="3.54129">
        <ele>463.87</ele>
        <time>2015-04-11T13:47:33Z</time>
      </trkpt>
      <trkpt lat="46.0671" lon="3.54148">
        <ele>462.72</ele>
        <time>2015-04-11T13:47:36Z</time>
      </trkpt>
      <trkpt lat="46.06721" lon="3.54176">
        <ele>460.95</ele>
        <time>2015-04-11T13:47:39Z</time>
      </trkpt>
      <trkpt lat="46.06726" lon="3.54202">
        <ele>459.73</ele>
        <time>2015-04-11T13:47:42Z</time>
      </trkpt>
      <trkpt lat="46.06733" lon="3.54236">
        <ele>458.07</ele>
        <time>2015-04-11T13:47:48Z</time>
      </trkpt>
      <trkpt lat="46.06736" lon="3.54262">
        <ele>457.06</ele>
        <time>2015-04-11T13:47:55Z</time>
      </trkpt>
      <trkpt lat="46.06737" lon="3.5429">
        <ele>455.69</ele>
        <time>2015-04-11T13:48:00Z</time>
      </trkpt>
      <trkpt lat="46.06741" lon="3.54316">
        <ele>454.12</ele>
        <time>2015-04-11T13:48:04Z</time>
      </trkpt>
      <trkpt lat="46.06747" lon="3.54341">
        <ele>452.21</ele>
        <time>2015-04-11T13:48:08Z</time>
      </trkpt>
      <trkpt lat="46.06754" lon="3.54373">
        <ele>445.7</ele>
        <time>2015-04-11T13:48:13Z</time>
      </trkpt>
      <trkpt lat="46.06762" lon="3.54401">
        <ele>435.31</ele>
        <time>2015-04-11T13:48:17Z</time>
      </trkpt>
      <trkpt lat="46.06767" lon="3.54429">
        <ele>431.35</ele>
        <time>2015-04-11T13:48:21Z</time>
      </trkpt>
      <trkpt lat="46.06769" lon="3.54457">
        <ele>430.1</ele>
        <time>2015-04-11T13:48:25Z</time>
      </trkpt>
      <trkpt lat="46.06769" lon="3.54489">
        <ele>428.63</ele>
        <time>2015-04-11T13:48:30Z</time>
      </trkpt>
      <trkpt lat="46.06767" lon="3.54515">
        <ele>429.52</ele>
        <time>2015-04-11T13:48:35Z</time>
      </trkpt>
      <trkpt lat="46.06757" lon="3.54543">
        <ele>430.54</ele>
        <time>2015-04-11T13:48:44Z</time>
      </trkpt>
      <trkpt lat="46.0675" lon="3.54573">
        <ele>429.8</ele>
        <time>2015-04-11T13:48:50Z</time>
      </trkpt>
      <trkpt lat="46.06748" lon="3.54601">
        <ele>429.56</ele>
        <time>2015-04-11T13:48:56Z</time>
      </trkpt>
      <trkpt lat="46.0675" lon="3.54627">
        <ele>428.58</ele>
        <time>2015-04-11T13:49:02Z</time>
      </trkpt>
      <trkpt lat="46.06752" lon="3.54655">
        <ele>428.55</ele>
        <time>2015-04-11T13:49:07Z</time>
      </trkpt>
      <trkpt lat="46.06755" lon="3.5468">
        <ele>427.58</ele>
        <time>2015-04-11T13:49:13Z</time>
      </trkpt>
      <trkpt lat="46.06769" lon="3.54715">
        <ele>427.05</ele>
        <time>2015-04-11T13:49:24Z</time>
      </trkpt>
      <trkpt lat="46.06782" lon="3.54738">
        <ele>426.56</ele>
        <time>2015-04-11T13:49:30Z</time>
      </trkpt>
      <trkpt lat="46.06797" lon="3.54762">
        <ele>426.55</ele>
        <time>2015-04-11T13:49:34Z</time>
      </trkpt>
      <trkpt lat="46.06815" lon="3.54781">
        <ele>425.18</ele>
        <time>2015-04-11T13:49:37Z</time>
      </trkpt>
      <trkpt lat="46.06837" lon="3.54803">
        <ele>423.26</ele>
        <time>2015-04-11T13:49:40Z</time>
      </trkpt>
      <trkpt lat="46.06858" lon="3.54826">
        <ele>422.64</ele>
        <time>2015-04-11T13:49:43Z</time>
      </trkpt>
      <trkpt lat="46.06871" lon="3.54846">
        <ele>421.82</ele>
        <time>2015-04-11T13:49:45Z</time>
      </trkpt>
      <trkpt lat="46.06887" lon="3.54869">
        <ele>421.09</ele>
        <time>2015-04-11T13:49:48Z</time>
      </trkpt>
      <trkpt lat="46.06902" lon="3.54884">
        <ele>421.49</ele>
        <time>2015-04-11T13:49:51Z</time>
      </trkpt>
      <trkpt lat="46.06915" lon="3.54903">
        <ele>421.55</ele>
        <time>2015-04-11T13:49:56Z</time>
      </trkpt>
      <trkpt lat="46.06896" lon="3.54899">
        <ele>420.55</ele>
        <time>2015-04-11T13:50:07Z</time>
      </trkpt>
      <trkpt lat="46.06879" lon="3.54882">
        <ele>419.18</ele>
        <time>2015-04-11T13:50:12Z</time>
      </trkpt>
      <trkpt lat="46.06856" lon="3.54876">
        <ele>417.7</ele>
        <time>2015-04-11T13:50:17Z</time>
      </trkpt>
      <trkpt lat="46.06837" lon="3.54891">
        <ele>416.69</ele>
        <time>2015-04-11T13:50:21Z</time>
      </trkpt>
      <trkpt lat="46.06825" lon="3.54914">
        <ele>416.56</ele>
        <time>2015-04-11T13:50:25Z</time>
      </trkpt>
      <trkpt lat="46.06811" lon="3.54931">
        <ele>416.55</ele>
        <time>2015-04-11T13:50:29Z</time>
      </trkpt>
      <trkpt lat="46.06795" lon="3.54944">
        <ele>414.43</ele>
        <time>2015-04-11T13:50:32Z</time>
      </trkpt>
      <trkpt lat="46.06774" lon="3.54951">
        <ele>409.67</ele>
        <time>2015-04-11T13:50:36Z</time>
      </trkpt>
      <trkpt lat="46.06752" lon="3.54951">
        <ele>406.81</ele>
        <time>2015-04-11T13:50:40Z</time>
      </trkpt>
      <trkpt lat="46.06728" lon="3.54949">
        <ele>405.63</ele>
        <time>2015-04-11T13:50:44Z</time>
      </trkpt>
      <trkpt lat="46.06705" lon="3.54955">
        <ele>406.81</ele>
        <time>2015-04-11T13:50:47Z</time>
      </trkpt>
      <trkpt lat="46.06684" lon="3.54961">
        <ele>408.94</ele>
        <time>2015-04-11T13:50:51Z</time>
      </trkpt>
      <trkpt lat="46.06666" lon="3.54974">
        <ele>409.53</ele>
        <time>2015-04-11T13:50:56Z</time>
      </trkpt>
      <trkpt lat="46.0665" lon="3.54989">
        <ele>409.05</ele>
        <time>2015-04-11T13:50:59Z</time>
      </trkpt>
      <trkpt lat="46.06632" lon="3.55004">
        <ele>408.08</ele>
        <time>2015-04-11T13:51:03Z</time>
      </trkpt>
      <trkpt lat="46.06615" lon="3.55017">
        <ele>406.82</ele>
        <time>2015-04-11T13:51:08Z</time>
      </trkpt>
      <trkpt lat="46.06596" lon="3.5503">
        <ele>404.7</ele>
        <time>2015-04-11T13:51:15Z</time>
      </trkpt>
      <trkpt lat="46.06578" lon="3.55043">
        <ele>402.09</ele>
        <time>2015-04-11T13:51:23Z</time>
      </trkpt>
      <trkpt lat="46.06562" lon="3.55058">
        <ele>400.12</ele>
        <time>2015-04-11T13:51:30Z</time>
      </trkpt>
      <trkpt lat="46.06548" lon="3.55075">
        <ele>398.59</ele>
        <time>2015-04-11T13:51:38Z</time>
      </trkpt>
      <trkpt lat="46.06534" lon="3.55112">
        <ele>396.05</ele>
        <time>2015-04-11T13:51:54Z</time>
      </trkpt>
      <trkpt lat="46.06531" lon="3.55144">
        <ele>394.05</ele>
        <time>2015-04-11T13:52:08Z</time>
      </trkpt>
      <trkpt lat="46.06523" lon="3.55178">
        <ele>392.55</ele>
        <time>2015-04-11T13:52:23Z</time>
      </trkpt>
      <trkpt lat="46.06516" lon="3.55208">
        <ele>391.56</ele>
        <time>2015-04-11T13:52:35Z</time>
      </trkpt>
      <trkpt lat="46.06516" lon="3.55238">
        <ele>391.55</ele>
        <time>2015-04-11T13:52:48Z</time>
      </trkpt>
      <trkpt lat="46.06522" lon="3.55266">
        <ele>391.55</ele>
        <time>2015-04-11T13:53:00Z</time>
      </trkpt>
      <trkpt lat="46.06535" lon="3.5529">
        <ele>391.55</ele>
        <time>2015-04-11T13:53:09Z</time>
      </trkpt>
      <trkpt lat="46.06549" lon="3.55309">
        <ele>392.54</ele>
        <time>2015-04-11T13:53:18Z</time>
      </trkpt>
      <trkpt lat="46.06558" lon="3.55341">
        <ele>392.55</ele>
        <time>2015-04-11T13:53:31Z</time>
      </trkpt>
      <trkpt lat="46.06567" lon="3.55367">
        <ele>392.55</ele>
        <time>2015-04-11T13:53:40Z</time>
      </trkpt>
      <trkpt lat="46.06579" lon="3.55391">
        <ele>393.05</ele>
        <time>2015-04-11T13:53:49Z</time>
      </trkpt>
      <trkpt lat="46.06593" lon="3.5541">
        <ele>394.05</ele>
        <time>2015-04-11T13:53:58Z</time>
      </trkpt>
      <trkpt lat="46.06606" lon="3.55429">
        <ele>395.05</ele>
        <time>2015-04-11T13:54:06Z</time>
      </trkpt>
      <trkpt lat="46.06604" lon="3.55457">
        <ele>396.43</ele>
        <time>2015-04-11T13:54:15Z</time>
      </trkpt>
      <trkpt lat="46.06588" lon="3.55474">
        <ele>397.49</ele>
        <time>2015-04-11T13:54:24Z</time>
      </trkpt>
      <trkpt lat="46.06568" lon="3.55479">
        <ele>398.54</ele>
        <time>2015-04-11T13:54:31Z</time>
      </trkpt>
      <trkpt lat="46.06549" lon="3.55489">
        <ele>399.54</ele>
        <time>2015-04-11T13:54:37Z</time>
      </trkpt>
      <trkpt lat="46.06532" lon="3.55502">
        <ele>400.52</ele>
        <time>2015-04-11T13:54:42Z</time>
      </trkpt>
      <trkpt lat="46.06515" lon="3.55513">
        <ele>401.43</ele>
        <time>2015-04-11T13:54:47Z</time>
      </trkpt>
      <trkpt lat="46.06497" lon="3.55524">
        <ele>402.8</ele>
        <time>2015-04-11T13:54:52Z</time>
      </trkpt>
      <trkpt lat="46.06478" lon="3.55532">
        <ele>405.47</ele>
        <time>2015-04-11T13:54:57Z</time>
      </trkpt>
      <trkpt lat="46.06461" lon="3.55543">
        <ele>406.05</ele>
        <time>2015-04-11T13:55:02Z</time>
      </trkpt>
      <trkpt lat="46.06442" lon="3.55547">
        <ele>408.94</ele>
        <time>2015-04-11T13:55:07Z</time>
      </trkpt>
      <trkpt lat="46.06424" lon="3.55549">
        <ele>410.28</ele>
        <time>2015-04-11T13:55:12Z</time>
      </trkpt>
      <trkpt lat="46.06405" lon="3.55554">
        <ele>411.04</ele>
        <time>2015-04-11T13:55:17Z</time>
      </trkpt>
      <trkpt lat="46.06385" lon="3.55558">
        <ele>411.55</ele>
        <time>2015-04-11T13:55:23Z</time>
      </trkpt>
      <trkpt lat="46.06366" lon="3.55562">
        <ele>411.55</ele>
        <time>2015-04-11T13:55:29Z</time>
      </trkpt>
      <trkpt lat="46.06346" lon="3.55564">
        <ele>411.55</ele>
        <time>2015-04-11T13:55:35Z</time>
      </trkpt>
      <trkpt lat="46.06332" lon="3.55547">
        <ele>412.05</ele>
        <time>2015-04-11T13:55:39Z</time>
      </trkpt>
      <trkpt lat="46.06315" lon="3.55528">
        <ele>414.72</ele>
        <time>2015-04-11T13:55:44Z</time>
      </trkpt>
      <trkpt lat="46.063" lon="3.55513">
        <ele>415.53</ele>
        <time>2015-04-11T13:55:49Z</time>
      </trkpt>
      <trkpt lat="46.06283" lon="3.55496">
        <ele>416.3</ele>
        <time>2015-04-11T13:55:55Z</time>
      </trkpt>
      <trkpt lat="46.06267" lon="3.55479">
        <ele>416.55</ele>
        <time>2015-04-11T13:56:01Z</time>
      </trkpt>
      <trkpt lat="46.06251" lon="3.55461">
        <ele>416.55</ele>
        <time>2015-04-11T13:56:07Z</time>
      </trkpt>
      <trkpt lat="46.06234" lon="3.55444">
        <ele>417.54</ele>
        <time>2015-04-11T13:56:13Z</time>
      </trkpt>
      <trkpt lat="46.06218" lon="3.55429">
        <ele>417.55</ele>
        <time>2015-04-11T13:56:19Z</time>
      </trkpt>
      <trkpt lat="46.06203" lon="3.55412">
        <ele>418.43</ele>
        <time>2015-04-11T13:56:26Z</time>
      </trkpt>
      <trkpt lat="46.06187" lon="3.55393">
        <ele>419.49</ele>
        <time>2015-04-11T13:56:36Z</time>
      </trkpt>
      <trkpt lat="46.06173" lon="3.55376">
        <ele>420.49</ele>
        <time>2015-04-11T13:56:45Z</time>
      </trkpt>
      <trkpt lat="46.06158" lon="3.55354">
        <ele>421.54</ele>
        <time>2015-04-11T13:56:56Z</time>
      </trkpt>
      <trkpt lat="46.06144" lon="3.5533">
        <ele>423.49</ele>
        <time>2015-04-11T13:57:08Z</time>
      </trkpt>
      <trkpt lat="46.0613" lon="3.55309">
        <ele>425.05</ele>
        <time>2015-04-11T13:57:19Z</time>
      </trkpt>
      <trkpt lat="46.06119" lon="3.55288">
        <ele>426.55</ele>
        <time>2015-04-11T13:57:31Z</time>
      </trkpt>
      <trkpt lat="46.06101" lon="3.55262">
        <ele>428.54</ele>
        <time>2015-04-11T13:57:46Z</time>
      </trkpt>
      <trkpt lat="46.06087" lon="3.55245">
        <ele>429.54</ele>
        <time>2015-04-11T13:57:56Z</time>
      </trkpt>
      <trkpt lat="46.06071" lon="3.55227">
        <ele>431.05</ele>
        <time>2015-04-11T13:58:08Z</time>
      </trkpt>
      <trkpt lat="46.06055" lon="3.55208">
        <ele>432.05</ele>
        <time>2015-04-11T13:58:20Z</time>
      </trkpt>
      <trkpt lat="46.06038" lon="3.55182">
        <ele>435.04</ele>
        <time>2015-04-11T13:58:34Z</time>
      </trkpt>
      <trkpt lat="46.0603" lon="3.55159">
        <ele>437.02</ele>
        <time>2015-04-11T13:58:44Z</time>
      </trkpt>
      <trkpt lat="46.06025" lon="3.55133">
        <ele>440.02</ele>
        <time>2015-04-11T13:58:54Z</time>
      </trkpt>
      <trkpt lat="46.06022" lon="3.55107">
        <ele>442.48</ele>
        <time>2015-04-11T13:59:04Z</time>
      </trkpt>
      <trkpt lat="46.06018" lon="3.55082">
        <ele>445.29</ele>
        <time>2015-04-11T13:59:15Z</time>
      </trkpt>
      <trkpt lat="46.06011" lon="3.55056">
        <ele>447.52</ele>
        <time>2015-04-11T13:59:28Z</time>
      </trkpt>
      <trkpt lat="46.06008" lon="3.5503">
        <ele>448.55</ele>
        <time>2015-04-11T13:59:39Z</time>
      </trkpt>
      <trkpt lat="46.06003" lon="3.55004">
        <ele>451.04</ele>
        <time>2015-04-11T13:59:50Z</time>
      </trkpt>
      <trkpt lat="46.05994" lon="3.54981">
        <ele>453.52</ele>
        <time>2015-04-11T14:00:02Z</time>
      </trkpt>
      <trkpt lat="46.05979" lon="3.54966">
        <ele>456.04</ele>
        <time>2015-04-11T14:00:14Z</time>
      </trkpt>
      <trkpt lat="46.05961" lon="3.54959">
        <ele>457.55</ele>
        <time>2015-04-11T14:00:28Z</time>
      </trkpt>
      <trkpt lat="46.05943" lon="3.54955">
        <ele>459.54</ele>
        <time>2015-04-11T14:00:42Z</time>
      </trkpt>
      <trkpt lat="46.05925" lon="3.54949">
        <ele>461.52</ele>
        <time>2015-04-11T14:00:56Z</time>
      </trkpt>
      <trkpt lat="46.05906" lon="3.54942">
        <ele>463.42</ele>
        <time>2015-04-11T14:01:06Z</time>
      </trkpt>
      <trkpt lat="46.05887" lon="3.5494">
        <ele>465.3</ele>
        <time>2015-04-11T14:01:16Z</time>
      </trkpt>
      <trkpt lat="46.05869" lon="3.5494">
        <ele>467.49</ele>
        <time>2015-04-11T14:01:27Z</time>
      </trkpt>
      <trkpt lat="46.05851" lon="3.54934">
        <ele>469.54</ele>
        <time>2015-04-11T14:01:40Z</time>
      </trkpt>
      <trkpt lat="46.05836" lon="3.54918">
        <ele>472.29</ele>
        <time>2015-04-11T14:01:50Z</time>
      </trkpt>
      <trkpt lat="46.05823" lon="3.54897">
        <ele>474.49</ele>
        <time>2015-04-11T14:02:00Z</time>
      </trkpt>
      <trkpt lat="46.05809" lon="3.54873">
        <ele>477.02</ele>
        <time>2015-04-11T14:02:10Z</time>
      </trkpt>
      <trkpt lat="46.05799" lon="3.5485">
        <ele>479.41</ele>
        <time>2015-04-11T14:02:19Z</time>
      </trkpt>
      <trkpt lat="46.0579" lon="3.54826">
        <ele>481.29</ele>
        <time>2015-04-11T14:02:26Z</time>
      </trkpt>
      <trkpt lat="46.05782" lon="3.548">
        <ele>482.99</ele>
        <time>2015-04-11T14:02:32Z</time>
      </trkpt>
      <trkpt lat="46.05784" lon="3.5477">
        <ele>484.49</ele>
        <time>2015-04-11T14:02:40Z</time>
      </trkpt>
      <trkpt lat="46.05786" lon="3.54743">
        <ele>486.42</ele>
        <time>2015-04-11T14:02:44Z</time>
      </trkpt>
      <trkpt lat="46.05781" lon="3.54715">
        <ele>490.41</ele>
        <time>2015-04-11T14:02:47Z</time>
      </trkpt>
      <trkpt lat="46.05775" lon="3.54689">
        <ele>492.79</ele>
        <time>2015-04-11T14:02:50Z</time>
      </trkpt>
      <trkpt lat="46.05769" lon="3.54663">
        <ele>494.38</ele>
        <time>2015-04-11T14:02:54Z</time>
      </trkpt>
      <trkpt lat="46.05764" lon="3.54635">
        <ele>494.55</ele>
        <time>2015-04-11T14:03:00Z</time>
      </trkpt>
      <trkpt lat="46.05761" lon="3.54609">
        <ele>494.55</ele>
        <time>2015-04-11T14:03:05Z</time>
      </trkpt>
      <trkpt lat="46.05766" lon="3.54584">
        <ele>495.52</ele>
        <time>2015-04-11T14:03:10Z</time>
      </trkpt>
      <trkpt lat="46.05778" lon="3.5456">
        <ele>495.55</ele>
        <time>2015-04-11T14:03:16Z</time>
      </trkpt>
      <trkpt lat="46.05788" lon="3.54537">
        <ele>496.05</ele>
        <time>2015-04-11T14:03:21Z</time>
      </trkpt>
      <trkpt lat="46.05793" lon="3.54506">
        <ele>496.49</ele>
        <time>2015-04-11T14:03:24Z</time>
      </trkpt>
      <trkpt lat="46.05791" lon="3.54474">
        <ele>497.42</ele>
        <time>2015-04-11T14:03:27Z</time>
      </trkpt>
      <trkpt lat="46.05786" lon="3.54442">
        <ele>497.54</ele>
        <time>2015-04-11T14:03:30Z</time>
      </trkpt>
      <trkpt lat="46.05781" lon="3.5441">
        <ele>497.55</ele>
        <time>2015-04-11T14:03:33Z</time>
      </trkpt>
      <trkpt lat="46.05782" lon="3.54378">
        <ele>497.55</ele>
        <time>2015-04-11T14:03:36Z</time>
      </trkpt>
      <trkpt lat="46.05782" lon="3.54346">
        <ele>496.68</ele>
        <time>2015-04-11T14:03:39Z</time>
      </trkpt>
      <trkpt lat="46.05781" lon="3.54313">
        <ele>495.19</ele>
        <time>2015-04-11T14:03:42Z</time>
      </trkpt>
      <trkpt lat="46.05778" lon="3.54283">
        <ele>493.88</ele>
        <time>2015-04-11T14:03:45Z</time>
      </trkpt>
      <trkpt lat="46.05775" lon="3.54253">
        <ele>492.84</ele>
        <time>2015-04-11T14:03:48Z</time>
      </trkpt>
      <trkpt lat="46.05773" lon="3.54223">
        <ele>492.59</ele>
        <time>2015-04-11T14:03:51Z</time>
      </trkpt>
      <trkpt lat="46.05773" lon="3.54195">
        <ele>491.81</ele>
        <time>2015-04-11T14:03:54Z</time>
      </trkpt>
      <trkpt lat="46.05779" lon="3.5417">
        <ele>490.21</ele>
        <time>2015-04-11T14:03:57Z</time>
      </trkpt>
      <trkpt lat="46.05793" lon="3.54146">
        <ele>489.64</ele>
        <time>2015-04-11T14:04:00Z</time>
      </trkpt>
      <trkpt lat="46.05809" lon="3.54125">
        <ele>488.81</ele>
        <time>2015-04-11T14:04:03Z</time>
      </trkpt>
      <trkpt lat="46.05822" lon="3.54101">
        <ele>488.56</ele>
        <time>2015-04-11T14:04:09Z</time>
      </trkpt>
      <trkpt lat="46.05829" lon="3.54075">
        <ele>488.55</ele>
        <time>2015-04-11T14:04:21Z</time>
      </trkpt>
      <trkpt lat="46.05828" lon="3.54047">
        <ele>489.54</ele>
        <time>2015-04-11T14:04:30Z</time>
      </trkpt>
      <trkpt lat="46.05827" lon="3.54019">
        <ele>491.05</ele>
        <time>2015-04-11T14:04:42Z</time>
      </trkpt>
      <trkpt lat="46.0583" lon="3.53992">
        <ele>491.55</ele>
        <time>2015-04-11T14:04:57Z</time>
      </trkpt>
      <trkpt lat="46.05842" lon="3.53968">
        <ele>492.54</ele>
        <time>2015-04-11T14:05:08Z</time>
      </trkpt>
      <trkpt lat="46.05852" lon="3.53942">
        <ele>492.55</ele>
        <time>2015-04-11T14:05:19Z</time>
      </trkpt>
      <trkpt lat="46.05856" lon="3.53912">
        <ele>493.05</ele>
        <time>2015-04-11T14:05:28Z</time>
      </trkpt>
      <trkpt lat="46.05852" lon="3.53878">
        <ele>493.55</ele>
        <time>2015-04-11T14:05:40Z</time>
      </trkpt>
      <trkpt lat="46.05843" lon="3.53846">
        <ele>493.55</ele>
        <time>2015-04-11T14:05:54Z</time>
      </trkpt>
      <trkpt lat="46.05829" lon="3.53822">
        <ele>494.55</ele>
        <time>2015-04-11T14:06:08Z</time>
      </trkpt>
      <trkpt lat="46.05813" lon="3.5379">
        <ele>494.05</ele>
        <time>2015-04-11T14:06:26Z</time>
      </trkpt>
      <trkpt lat="46.05802" lon="3.53764">
        <ele>494.55</ele>
        <time>2015-04-11T14:06:43Z</time>
      </trkpt>
      <trkpt lat="46.05801" lon="3.53734">
        <ele>494.55</ele>
        <time>2015-04-11T14:06:57Z</time>
      </trkpt>
      <trkpt lat="46.05798" lon="3.53708">
        <ele>495.55</ele>
        <time>2015-04-11T14:07:11Z</time>
      </trkpt>
      <trkpt lat="46.05791" lon="3.53685">
        <ele>497.49</ele>
        <time>2015-04-11T14:07:25Z</time>
      </trkpt>
      <trkpt lat="46.05785" lon="3.53659">
        <ele>498.55</ele>
        <time>2015-04-11T14:07:41Z</time>
      </trkpt>
      <trkpt lat="46.0578" lon="3.53633">
        <ele>500.54</ele>
        <time>2015-04-11T14:07:55Z</time>
      </trkpt>
      <trkpt lat="46.05773" lon="3.53607">
        <ele>502.05</ele>
        <time>2015-04-11T14:08:07Z</time>
      </trkpt>
      <trkpt lat="46.05771" lon="3.53582">
        <ele>502.55</ele>
        <time>2015-04-11T14:08:18Z</time>
      </trkpt>
      <trkpt lat="46.05771" lon="3.53554">
        <ele>503.55</ele>
        <time>2015-04-11T14:08:32Z</time>
      </trkpt>
      <trkpt lat="46.05772" lon="3.53526">
        <ele>504.55</ele>
        <time>2015-04-11T14:08:46Z</time>
      </trkpt>
      <trkpt lat="46.05772" lon="3.53496">
        <ele>506.05</ele>
        <time>2015-04-11T14:08:59Z</time>
      </trkpt>
      <trkpt lat="46.05772" lon="3.53468">
        <ele>507.49</ele>
        <time>2015-04-11T14:09:11Z</time>
      </trkpt>
      <trkpt lat="46.05777" lon="3.5344">
        <ele>508.55</ele>
        <time>2015-04-11T14:09:22Z</time>
      </trkpt>
      <trkpt lat="46.05784" lon="3.53414">
        <ele>509.55</ele>
        <time>2015-04-11T14:09:32Z</time>
      </trkpt>
      <trkpt lat="46.05794" lon="3.53389">
        <ele>510.3</ele>
        <time>2015-04-11T14:09:38Z</time>
      </trkpt>
      <trkpt lat="46.05807" lon="3.53408">
        <ele>513.41</ele>
        <time>2015-04-11T14:09:50Z</time>
      </trkpt>
      <trkpt lat="46.0581" lon="3.53434">
        <ele>515.29</ele>
        <time>2015-04-11T14:09:59Z</time>
      </trkpt>
      <trkpt lat="46.05816" lon="3.53459">
        <ele>518.04</ele>
        <time>2015-04-11T14:10:14Z</time>
      </trkpt>
      <trkpt lat="46.05827" lon="3.53485">
        <ele>519.52</ele>
        <time>2015-04-11T14:10:23Z</time>
      </trkpt>
      <trkpt lat="46.05838" lon="3.53509">
        <ele>521.43</ele>
        <time>2015-04-11T14:10:32Z</time>
      </trkpt>
      <trkpt lat="46.05846" lon="3.53532">
        <ele>522.43</ele>
        <time>2015-04-11T14:10:40Z</time>
      </trkpt>
      <trkpt lat="46.05855" lon="3.53556">
        <ele>523.05</ele>
        <time>2015-04-11T14:10:48Z</time>
      </trkpt>
      <trkpt lat="46.05871" lon="3.53573">
        <ele>523.55</ele>
        <time>2015-04-11T14:10:55Z</time>
      </trkpt>
      <trkpt lat="46.05887" lon="3.53588">
        <ele>523.55</ele>
        <time>2015-04-11T14:11:00Z</time>
      </trkpt>
      <trkpt lat="46.05903" lon="3.53607">
        <ele>524.49</ele>
        <time>2015-04-11T14:11:06Z</time>
      </trkpt>
      <trkpt lat="46.05918" lon="3.53625">
        <ele>524.55</ele>
        <time>2015-04-11T14:11:13Z</time>
      </trkpt>
      <trkpt lat="46.05934" lon="3.5364">
        <ele>525.54</ele>
        <time>2015-04-11T14:11:20Z</time>
      </trkpt>
      <trkpt lat="46.05948" lon="3.53657">
        <ele>525.55</ele>
        <time>2015-04-11T14:11:24Z</time>
      </trkpt>
      <trkpt lat="46.05966" lon="3.53674">
        <ele>526.3</ele>
        <time>2015-04-11T14:11:29Z</time>
      </trkpt>
      <trkpt lat="46.05983" lon="3.53687">
        <ele>526.55</ele>
        <time>2015-04-11T14:11:34Z</time>
      </trkpt>
      <trkpt lat="46.06001" lon="3.53702">
        <ele>526.55</ele>
        <time>2015-04-11T14:11:38Z</time>
      </trkpt>
      <trkpt lat="46.06026" lon="3.53721">
        <ele>526.55</ele>
        <time>2015-04-11T14:11:41Z</time>
      </trkpt>
      <trkpt lat="46.06042" lon="3.53736">
        <ele>527.3</ele>
        <time>2015-04-11T14:11:43Z</time>
      </trkpt>
      <trkpt lat="46.06056" lon="3.53753">
        <ele>527.49</ele>
        <time>2015-04-11T14:11:45Z</time>
      </trkpt>
      <trkpt lat="46.06072" lon="3.5377">
        <ele>527.54</ele>
        <time>2015-04-11T14:11:47Z</time>
      </trkpt>
      <trkpt lat="46.06087" lon="3.53786">
        <ele>527.05</ele>
        <time>2015-04-11T14:11:49Z</time>
      </trkpt>
      <trkpt lat="46.0611" lon="3.53803">
        <ele>526.11</ele>
        <time>2015-04-11T14:11:52Z</time>
      </trkpt>
      <trkpt lat="46.06131" lon="3.53818">
        <ele>524</ele>
        <time>2015-04-11T14:11:55Z</time>
      </trkpt>
      <trkpt lat="46.06154" lon="3.53837">
        <ele>522.86</ele>
        <time>2015-04-11T14:11:58Z</time>
      </trkpt>
      <trkpt lat="46.06174" lon="3.53848">
        <ele>522.13</ele>
        <time>2015-04-11T14:12:00Z</time>
      </trkpt>
      <trkpt lat="46.06193" lon="3.53854">
        <ele>519.95</ele>
        <time>2015-04-11T14:12:02Z</time>
      </trkpt>
      <trkpt lat="46.06219" lon="3.53858">
        <ele>515.85</ele>
        <time>2015-04-11T14:12:05Z</time>
      </trkpt>
      <trkpt lat="46.0624" lon="3.53865">
        <ele>512.59</ele>
        <time>2015-04-11T14:12:08Z</time>
      </trkpt>
      <trkpt lat="46.06258" lon="3.53878">
        <ele>510.93</ele>
        <time>2015-04-11T14:12:11Z</time>
      </trkpt>
      <trkpt lat="46.06273" lon="3.53901">
        <ele>510.6</ele>
        <time>2015-04-11T14:12:14Z</time>
      </trkpt>
      <trkpt lat="46.06291" lon="3.53921">
        <ele>513.06</ele>
        <time>2015-04-11T14:12:16Z</time>
      </trkpt>
      <trkpt lat="46.06312" lon="3.53942">
        <ele>516.18</ele>
        <time>2015-04-11T14:12:18Z</time>
      </trkpt>
      <trkpt lat="46.06336" lon="3.53959">
        <ele>517.96</ele>
        <time>2015-04-11T14:12:20Z</time>
      </trkpt>
      <trkpt lat="46.06358" lon="3.53972">
        <ele>519.15</ele>
        <time>2015-04-11T14:12:22Z</time>
      </trkpt>
      <trkpt lat="46.06379" lon="3.53979">
        <ele>518.7</ele>
        <time>2015-04-11T14:12:24Z</time>
      </trkpt>
      <trkpt lat="46.06397" lon="3.53983">
        <ele>518.59</ele>
        <time>2015-04-11T14:12:26Z</time>
      </trkpt>
      <trkpt lat="46.06416" lon="3.53987">
        <ele>518.56</ele>
        <time>2015-04-11T14:12:28Z</time>
      </trkpt>
      <trkpt lat="46.0644" lon="3.53998">
        <ele>517.81</ele>
        <time>2015-04-11T14:12:30Z</time>
      </trkpt>
      <trkpt lat="46.06462" lon="3.54011">
        <ele>517.12</ele>
        <time>2015-04-11T14:12:32Z</time>
      </trkpt>
      <trkpt lat="46.0648" lon="3.54022">
        <ele>516.19</ele>
        <time>2015-04-11T14:12:34Z</time>
      </trkpt>
      <trkpt lat="46.06498" lon="3.54032">
        <ele>514.46</ele>
        <time>2015-04-11T14:12:36Z</time>
      </trkpt>
      <trkpt lat="46.06522" lon="3.54043">
        <ele>513.67</ele>
        <time>2015-04-11T14:12:39Z</time>
      </trkpt>
      <trkpt lat="46.06547" lon="3.54054">
        <ele>512.32</ele>
        <time>2015-04-11T14:12:42Z</time>
      </trkpt>
      <trkpt lat="46.0657" lon="3.54056">
        <ele>510.02</ele>
        <time>2015-04-11T14:12:45Z</time>
      </trkpt>
      <trkpt lat="46.06587" lon="3.54043">
        <ele>508.71</ele>
        <time>2015-04-11T14:12:49Z</time>
      </trkpt>
      <trkpt lat="46.06593" lon="3.54004">
        <ele>498.2</ele>
        <time>2015-04-11T14:12:52Z</time>
      </trkpt>
      <trkpt lat="46.06586" lon="3.53972">
        <ele>482.26</ele>
        <time>2015-04-11T14:12:55Z</time>
      </trkpt>
      <trkpt lat="46.06564" lon="3.53953">
        <ele>473.02</ele>
        <time>2015-04-11T14:12:58Z</time>
      </trkpt>
      <trkpt lat="46.06543" lon="3.5394">
        <ele>467.11</ele>
        <time>2015-04-11T14:13:01Z</time>
      </trkpt>
      <trkpt lat="46.06523" lon="3.53923">
        <ele>468.25</ele>
        <time>2015-04-11T14:13:04Z</time>
      </trkpt>
      <trkpt lat="46.06507" lon="3.5391">
        <ele>475.26</ele>
        <time>2015-04-11T14:13:07Z</time>
      </trkpt>
      <trkpt lat="46.06491" lon="3.53893">
        <ele>479.55</ele>
        <time>2015-04-11T14:13:19Z</time>
      </trkpt>
      <trkpt lat="46.06486" lon="3.53867">
        <ele>483.04</ele>
        <time>2015-04-11T14:13:32Z</time>
      </trkpt>
      <trkpt lat="46.06483" lon="3.53841">
        <ele>486.02</ele>
        <time>2015-04-11T14:13:42Z</time>
      </trkpt>
      <trkpt lat="46.06478" lon="3.53813">
        <ele>488.04</ele>
        <time>2015-04-11T14:13:52Z</time>
      </trkpt>
      <trkpt lat="46.06478" lon="3.53786">
        <ele>489.55</ele>
        <time>2015-04-11T14:14:18Z</time>
      </trkpt>
      <trkpt lat="46.06487" lon="3.5376">
        <ele>489.55</ele>
        <time>2015-04-11T14:14:40Z</time>
      </trkpt>
      <trkpt lat="46.06494" lon="3.53736">
        <ele>488.55</ele>
        <time>2015-04-11T14:14:56Z</time>
      </trkpt>
      <trkpt lat="46.06503" lon="3.53708">
        <ele>488.05</ele>
        <time>2015-04-11T14:15:16Z</time>
      </trkpt>
      <trkpt lat="46.06511" lon="3.53672">
        <ele>488.05</ele>
        <time>2015-04-11T14:15:40Z</time>
      </trkpt>
      <trkpt lat="46.06515" lon="3.53646">
        <ele>491.29</ele>
        <time>2015-04-11T14:16:14Z</time>
      </trkpt>
      <trkpt lat="46.06517" lon="3.5362">
        <ele>491.55</ele>
        <time>2015-04-11T14:16:22Z</time>
      </trkpt>
      <trkpt lat="46.06517" lon="3.5359">
        <ele>492.54</ele>
        <time>2015-04-11T14:16:31Z</time>
      </trkpt>
      <trkpt lat="46.06515" lon="3.53562">
        <ele>493.43</ele>
        <time>2015-04-11T14:16:40Z</time>
      </trkpt>
      <trkpt lat="46.06512" lon="3.53537">
        <ele>495.3</ele>
        <time>2015-04-11T14:16:51Z</time>
      </trkpt>
      <trkpt lat="46.06501" lon="3.53515">
        <ele>497.43</ele>
        <time>2015-04-11T14:17:04Z</time>
      </trkpt>
      <trkpt lat="46.06492" lon="3.53492">
        <ele>499.05</ele>
        <time>2015-04-11T14:17:16Z</time>
      </trkpt>
      <trkpt lat="46.06486" lon="3.53466">
        <ele>501.3</ele>
        <time>2015-04-11T14:17:31Z</time>
      </trkpt>
      <trkpt lat="46.06484" lon="3.5344">
        <ele>502.55</ele>
        <time>2015-04-11T14:17:50Z</time>
      </trkpt>
      <trkpt lat="46.06485" lon="3.53412">
        <ele>502.55</ele>
        <time>2015-04-11T14:18:04Z</time>
      </trkpt>
      <trkpt lat="46.06483" lon="3.53384">
        <ele>500.57</ele>
        <time>2015-04-11T14:18:20Z</time>
      </trkpt>
      <trkpt lat="46.06477" lon="3.53359">
        <ele>500.55</ele>
        <time>2015-04-11T14:18:34Z</time>
      </trkpt>
      <trkpt lat="46.0647" lon="3.53333">
        <ele>499.56</ele>
        <time>2015-04-11T14:18:47Z</time>
      </trkpt>
      <trkpt lat="46.06459" lon="3.53311">
        <ele>500.55</ele>
        <time>2015-04-11T14:18:59Z</time>
      </trkpt>
      <trkpt lat="46.0645" lon="3.53286">
        <ele>500.55</ele>
        <time>2015-04-11T14:19:11Z</time>
      </trkpt>
      <trkpt lat="46.06446" lon="3.5326">
        <ele>499.06</ele>
        <time>2015-04-11T14:19:21Z</time>
      </trkpt>
      <trkpt lat="46.06439" lon="3.53236">
        <ele>497.58</ele>
        <time>2015-04-11T14:19:32Z</time>
      </trkpt>
      <trkpt lat="46.06435" lon="3.5321">
        <ele>496.55</ele>
        <time>2015-04-11T14:19:46Z</time>
      </trkpt>
      <trkpt lat="46.06438" lon="3.53183">
        <ele>498.43</ele>
        <time>2015-04-11T14:20:01Z</time>
      </trkpt>
      <trkpt lat="46.06442" lon="3.53157">
        <ele>499.49</ele>
        <time>2015-04-11T14:20:14Z</time>
      </trkpt>
      <trkpt lat="46.06445" lon="3.53131">
        <ele>500.49</ele>
        <time>2015-04-11T14:20:25Z</time>
      </trkpt>
      <trkpt lat="46.06447" lon="3.53103">
        <ele>501.55</ele>
        <time>2015-04-11T14:20:38Z</time>
      </trkpt>
      <trkpt lat="46.06449" lon="3.53077">
        <ele>501.55</ele>
        <time>2015-04-11T14:20:48Z</time>
      </trkpt>
      <trkpt lat="46.06446" lon="3.53052">
        <ele>503.05</ele>
        <time>2015-04-11T14:21:00Z</time>
      </trkpt>
      <trkpt lat="46.06446" lon="3.53024">
        <ele>505.41</ele>
        <time>2015-04-11T14:21:10Z</time>
      </trkpt>
      <trkpt lat="46.06455" lon="3.52998">
        <ele>507.99</ele>
        <time>2015-04-11T14:21:18Z</time>
      </trkpt>
      <trkpt lat="46.06468" lon="3.52974">
        <ele>510.39</ele>
        <time>2015-04-11T14:21:25Z</time>
      </trkpt>
      <trkpt lat="46.06484" lon="3.52957">
        <ele>512.41</ele>
        <time>2015-04-11T14:21:31Z</time>
      </trkpt>
      <trkpt lat="46.065" lon="3.52938">
        <ele>514.41</ele>
        <time>2015-04-11T14:21:37Z</time>
      </trkpt>
      <trkpt lat="46.06507" lon="3.5291">
        <ele>516.29</ele>
        <time>2015-04-11T14:21:43Z</time>
      </trkpt>
      <trkpt lat="46.06506" lon="3.5288">
        <ele>518.27</ele>
        <time>2015-04-11T14:21:49Z</time>
      </trkpt>
      <trkpt lat="46.06503" lon="3.52854">
        <ele>520.23</ele>
        <time>2015-04-11T14:21:54Z</time>
      </trkpt>
      <trkpt lat="46.06498" lon="3.52829">
        <ele>522.27</ele>
        <time>2015-04-11T14:22:00Z</time>
      </trkpt>
      <trkpt lat="46.06492" lon="3.52803">
        <ele>524.27</ele>
        <time>2015-04-11T14:22:06Z</time>
      </trkpt>
      <trkpt lat="46.06488" lon="3.52777">
        <ele>526.27</ele>
        <time>2015-04-11T14:22:12Z</time>
      </trkpt>
      <trkpt lat="46.06483" lon="3.52751">
        <ele>527.99</ele>
        <time>2015-04-11T14:22:18Z</time>
      </trkpt>
      <trkpt lat="46.06475" lon="3.52728">
        <ele>529.48</ele>
        <time>2015-04-11T14:22:24Z</time>
      </trkpt>
      <trkpt lat="46.06465" lon="3.52702">
        <ele>531.41</ele>
        <time>2015-04-11T14:22:30Z</time>
      </trkpt>
      <trkpt lat="46.06455" lon="3.52678">
        <ele>533.02</ele>
        <time>2015-04-11T14:22:36Z</time>
      </trkpt>
      <trkpt lat="46.06445" lon="3.52653">
        <ele>534.42</ele>
        <time>2015-04-11T14:22:42Z</time>
      </trkpt>
      <trkpt lat="46.06439" lon="3.52627">
        <ele>538.79</ele>
        <time>2015-04-11T14:22:46Z</time>
      </trkpt>
      <trkpt lat="46.06438" lon="3.5259">
        <ele>541.19</ele>
        <time>2015-04-11T14:22:50Z</time>
      </trkpt>
      <trkpt lat="46.06434" lon="3.52554">
        <ele>542.26</ele>
        <time>2015-04-11T14:22:53Z</time>
      </trkpt>
      <trkpt lat="46.0643" lon="3.52517">
        <ele>543.27</ele>
        <time>2015-04-11T14:22:56Z</time>
      </trkpt>
      <trkpt lat="46.06425" lon="3.52492">
        <ele>543.48</ele>
        <time>2015-04-11T14:22:58Z</time>
      </trkpt>
      <trkpt lat="46.06414" lon="3.52455">
        <ele>542.17</ele>
        <time>2015-04-11T14:23:01Z</time>
      </trkpt>
      <trkpt lat="46.06406" lon="3.52432">
        <ele>542.46</ele>
        <time>2015-04-11T14:23:03Z</time>
      </trkpt>
      <trkpt lat="46.06399" lon="3.52408">
        <ele>542.53</ele>
        <time>2015-04-11T14:23:05Z</time>
      </trkpt>
      <trkpt lat="46.06391" lon="3.52384">
        <ele>543.3</ele>
        <time>2015-04-11T14:23:07Z</time>
      </trkpt>
      <trkpt lat="46.06383" lon="3.52361">
        <ele>543.49</ele>
        <time>2015-04-11T14:23:09Z</time>
      </trkpt>
      <trkpt lat="46.06375" lon="3.52337">
        <ele>544.29</ele>
        <time>2015-04-11T14:23:11Z</time>
      </trkpt>
      <trkpt lat="46.06367" lon="3.52311">
        <ele>544.49</ele>
        <time>2015-04-11T14:23:13Z</time>
      </trkpt>
      <trkpt lat="46.06355" lon="3.52281">
        <ele>544.04</ele>
        <time>2015-04-11T14:23:15Z</time>
      </trkpt>
      <trkpt lat="46.06342" lon="3.52251">
        <ele>542.42</ele>
        <time>2015-04-11T14:23:17Z</time>
      </trkpt>
      <trkpt lat="46.06329" lon="3.52219">
        <ele>541.02</ele>
        <time>2015-04-11T14:23:19Z</time>
      </trkpt>
      <trkpt lat="46.06317" lon="3.52187">
        <ele>539.92</ele>
        <time>2015-04-11T14:23:21Z</time>
      </trkpt>
      <trkpt lat="46.06308" lon="3.52157">
        <ele>538.89</ele>
        <time>2015-04-11T14:23:23Z</time>
      </trkpt>
      <trkpt lat="46.06301" lon="3.52131">
        <ele>538.14</ele>
        <time>2015-04-11T14:23:25Z</time>
      </trkpt>
      <trkpt lat="46.06294" lon="3.52103">
        <ele>537.7</ele>
        <time>2015-04-11T14:23:27Z</time>
      </trkpt>
      <trkpt lat="46.06288" lon="3.52071">
        <ele>538.09</ele>
        <time>2015-04-11T14:23:29Z</time>
      </trkpt>
      <trkpt lat="46.06282" lon="3.52041">
        <ele>539.19</ele>
        <time>2015-04-11T14:23:31Z</time>
      </trkpt>
      <trkpt lat="46.06278" lon="3.52011">
        <ele>540.21</ele>
        <time>2015-04-11T14:23:33Z</time>
      </trkpt>
      <trkpt lat="46.06274" lon="3.51981">
        <ele>540.72</ele>
        <time>2015-04-11T14:23:35Z</time>
      </trkpt>
      <trkpt lat="46.0627" lon="3.51953">
        <ele>538.38</ele>
        <time>2015-04-11T14:23:39Z</time>
      </trkpt>
      <trkpt lat="46.06272" lon="3.51921">
        <ele>541.05</ele>
        <time>2015-04-11T14:23:54Z</time>
      </trkpt>
      <trkpt lat="46.0628" lon="3.51895">
        <ele>542.54</ele>
        <time>2015-04-11T14:24:06Z</time>
      </trkpt>
      <trkpt lat="46.06287" lon="3.51867">
        <ele>541.08</ele>
        <time>2015-04-11T14:24:14Z</time>
      </trkpt>
      <trkpt lat="46.06293" lon="3.51841">
        <ele>538.59</ele>
        <time>2015-04-11T14:24:21Z</time>
      </trkpt>
      <trkpt lat="46.06299" lon="3.51811">
        <ele>534.59</ele>
        <time>2015-04-11T14:24:30Z</time>
      </trkpt>
      <trkpt lat="46.06306" lon="3.51784">
        <ele>529.56</ele>
        <time>2015-04-11T14:24:43Z</time>
      </trkpt>
      <trkpt lat="46.06302" lon="3.51743">
        <ele>523.58</ele>
        <time>2015-04-11T14:25:01Z</time>
      </trkpt>
      <trkpt lat="46.06292" lon="3.51719">
        <ele>520.57</ele>
        <time>2015-04-11T14:25:10Z</time>
      </trkpt>
      <trkpt lat="46.06281" lon="3.51696">
        <ele>516.59</ele>
        <time>2015-04-11T14:25:20Z</time>
      </trkpt>
      <trkpt lat="46.0628" lon="3.51655">
        <ele>511.07</ele>
        <time>2015-04-11T14:25:37Z</time>
      </trkpt>
      <trkpt lat="46.06281" lon="3.51616">
        <ele>508.56</ele>
        <time>2015-04-11T14:25:55Z</time>
      </trkpt>
      <trkpt lat="46.06283" lon="3.51588">
        <ele>508.05</ele>
        <time>2015-04-11T14:26:09Z</time>
      </trkpt>
      <trkpt lat="46.06282" lon="3.5156">
        <ele>508.05</ele>
        <time>2015-04-11T14:26:24Z</time>
      </trkpt>
      <trkpt lat="46.06276" lon="3.51532">
        <ele>508.55</ele>
        <time>2015-04-11T14:26:36Z</time>
      </trkpt>
      <trkpt lat="46.06269" lon="3.51507">
        <ele>509.55</ele>
        <time>2015-04-11T14:26:50Z</time>
      </trkpt>
      <trkpt lat="46.06268" lon="3.51479">
        <ele>510.55</ele>
        <time>2015-04-11T14:27:02Z</time>
      </trkpt>
      <trkpt lat="46.06268" lon="3.51449">
        <ele>511.49</ele>
        <time>2015-04-11T14:27:12Z</time>
      </trkpt>
      <trkpt lat="46.06271" lon="3.51423">
        <ele>512.52</ele>
        <time>2015-04-11T14:27:22Z</time>
      </trkpt>
      <trkpt lat="46.06277" lon="3.51393">
        <ele>514.04</ele>
        <time>2015-04-11T14:27:30Z</time>
      </trkpt>
      <trkpt lat="46.06283" lon="3.51365">
        <ele>515.98</ele>
        <time>2015-04-11T14:27:36Z</time>
      </trkpt>
      <trkpt lat="46.0629" lon="3.51337">
        <ele>517.42</ele>
        <time>2015-04-11T14:27:42Z</time>
      </trkpt>
      <trkpt lat="46.06292" lon="3.51309">
        <ele>518.52</ele>
        <time>2015-04-11T14:27:48Z</time>
      </trkpt>
      <trkpt lat="46.06288" lon="3.51281">
        <ele>518.55</ele>
        <time>2015-04-11T14:27:55Z</time>
      </trkpt>
      <trkpt lat="46.06285" lon="3.51249">
        <ele>520.68</ele>
        <time>2015-04-11T14:28:00Z</time>
      </trkpt>
      <trkpt lat="46.06285" lon="3.51221">
        <ele>523.57</ele>
        <time>2015-04-11T14:28:03Z</time>
      </trkpt>
      <trkpt lat="46.06284" lon="3.51189">
        <ele>526.8</ele>
        <time>2015-04-11T14:28:07Z</time>
      </trkpt>
      <trkpt lat="46.06287" lon="3.51161">
        <ele>527.53</ele>
        <time>2015-04-11T14:28:12Z</time>
      </trkpt>
      <trkpt lat="46.06291" lon="3.51127">
        <ele>527.55</ele>
        <time>2015-04-11T14:28:28Z</time>
      </trkpt>
      <trkpt lat="46.06297" lon="3.51101">
        <ele>528.55</ele>
        <time>2015-04-11T14:28:46Z</time>
      </trkpt>
      <trkpt lat="46.06312" lon="3.5108">
        <ele>529.52</ele>
        <time>2015-04-11T14:28:55Z</time>
      </trkpt>
      <trkpt lat="46.06328" lon="3.51067">
        <ele>530.43</ele>
        <time>2015-04-11T14:29:01Z</time>
      </trkpt>
      <trkpt lat="46.06344" lon="3.51052">
        <ele>531.3</ele>
        <time>2015-04-11T14:29:08Z</time>
      </trkpt>
      <trkpt lat="46.0636" lon="3.51037">
        <ele>532.3</ele>
        <time>2015-04-11T14:29:14Z</time>
      </trkpt>
      <trkpt lat="46.06377" lon="3.51022">
        <ele>533.3</ele>
        <time>2015-04-11T14:29:20Z</time>
      </trkpt>
      <trkpt lat="46.06393" lon="3.51005">
        <ele>534.49</ele>
        <time>2015-04-11T14:29:27Z</time>
      </trkpt>
      <trkpt lat="46.0641" lon="3.5099">
        <ele>534.55</ele>
        <time>2015-04-11T14:29:34Z</time>
      </trkpt>
      <trkpt lat="46.06432" lon="3.50985">
        <ele>534.05</ele>
        <time>2015-04-11T14:29:38Z</time>
      </trkpt>
      <trkpt lat="46.06454" lon="3.50987">
        <ele>532.24</ele>
        <time>2015-04-11T14:29:41Z</time>
      </trkpt>
      <trkpt lat="46.06475" lon="3.51">
        <ele>530.26</ele>
        <time>2015-04-11T14:29:44Z</time>
      </trkpt>
      <trkpt lat="46.06488" lon="3.5103">
        <ele>529.14</ele>
        <time>2015-04-11T14:29:47Z</time>
      </trkpt>
      <trkpt lat="46.065" lon="3.51058">
        <ele>526.96</ele>
        <time>2015-04-11T14:29:51Z</time>
      </trkpt>
      <trkpt lat="46.06512" lon="3.51082">
        <ele>525.23</ele>
        <time>2015-04-11T14:29:54Z</time>
      </trkpt>
      <trkpt lat="46.06524" lon="3.5111">
        <ele>523.39</ele>
        <time>2015-04-11T14:29:57Z</time>
      </trkpt>
      <trkpt lat="46.06541" lon="3.51138">
        <ele>520.53</ele>
        <time>2015-04-11T14:30:00Z</time>
      </trkpt>
      <trkpt lat="46.06555" lon="3.51163">
        <ele>518.05</ele>
        <time>2015-04-11T14:30:03Z</time>
      </trkpt>
      <trkpt lat="46.06566" lon="3.51187">
        <ele>517.62</ele>
        <time>2015-04-11T14:30:06Z</time>
      </trkpt>
      <trkpt lat="46.06581" lon="3.51206">
        <ele>514.06</ele>
        <time>2015-04-11T14:30:09Z</time>
      </trkpt>
      <trkpt lat="46.06596" lon="3.51226">
        <ele>508.49</ele>
        <time>2015-04-11T14:30:12Z</time>
      </trkpt>
      <trkpt lat="46.06607" lon="3.51249">
        <ele>504.67</ele>
        <time>2015-04-11T14:30:15Z</time>
      </trkpt>
      <trkpt lat="46.06619" lon="3.51275">
        <ele>501.37</ele>
        <time>2015-04-11T14:30:19Z</time>
      </trkpt>
      <trkpt lat="46.06635" lon="3.51301">
        <ele>499.35</ele>
        <time>2015-04-11T14:30:23Z</time>
      </trkpt>
      <trkpt lat="46.06647" lon="3.51324">
        <ele>495.6</ele>
        <time>2015-04-11T14:30:27Z</time>
      </trkpt>
      <trkpt lat="46.0666" lon="3.51354">
        <ele>492.18</ele>
        <time>2015-04-11T14:30:30Z</time>
      </trkpt>
      <trkpt lat="46.06674" lon="3.5138">
        <ele>489.51</ele>
        <time>2015-04-11T14:30:33Z</time>
      </trkpt>
      <trkpt lat="46.06688" lon="3.51406">
        <ele>484.92</ele>
        <time>2015-04-11T14:30:36Z</time>
      </trkpt>
      <trkpt lat="46.06701" lon="3.51429">
        <ele>480.85</ele>
        <time>2015-04-11T14:30:39Z</time>
      </trkpt>
      <trkpt lat="46.06715" lon="3.51453">
        <ele>477.59</ele>
        <time>2015-04-11T14:30:42Z</time>
      </trkpt>
      <trkpt lat="46.06728" lon="3.51477">
        <ele>475.93</ele>
        <time>2015-04-11T14:30:45Z</time>
      </trkpt>
      <trkpt lat="46.06744" lon="3.51498">
        <ele>475.6</ele>
        <time>2015-04-11T14:30:48Z</time>
      </trkpt>
      <trkpt lat="46.06766" lon="3.51515">
        <ele>475.56</ele>
        <time>2015-04-11T14:30:51Z</time>
      </trkpt>
      <trkpt lat="46.06786" lon="3.51526">
        <ele>474.18</ele>
        <time>2015-04-11T14:30:54Z</time>
      </trkpt>
      <trkpt lat="46.06812" lon="3.51537">
        <ele>471.76</ele>
        <time>2015-04-11T14:30:57Z</time>
      </trkpt>
      <trkpt lat="46.06833" lon="3.51547">
        <ele>468.58</ele>
        <time>2015-04-11T14:31:00Z</time>
      </trkpt>
      <trkpt lat="46.06852" lon="3.51552">
        <ele>466.31</ele>
        <time>2015-04-11T14:31:03Z</time>
      </trkpt>
      <trkpt lat="46.06872" lon="3.51558">
        <ele>463.79</ele>
        <time>2015-04-11T14:31:07Z</time>
      </trkpt>
      <trkpt lat="46.06894" lon="3.5156">
        <ele>464.31</ele>
        <time>2015-04-11T14:31:13Z</time>
      </trkpt>
      <trkpt lat="46.06914" lon="3.51563">
        <ele>464.55</ele>
        <time>2015-04-11T14:31:18Z</time>
      </trkpt>
      <trkpt lat="46.06936" lon="3.51567">
        <ele>464.05</ele>
        <time>2015-04-11T14:31:24Z</time>
      </trkpt>
      <trkpt lat="46.06956" lon="3.51569">
        <ele>463.56</ele>
        <time>2015-04-11T14:31:30Z</time>
      </trkpt>
      <trkpt lat="46.06974" lon="3.51571">
        <ele>463.55</ele>
        <time>2015-04-11T14:31:36Z</time>
      </trkpt>
      <trkpt lat="46.06993" lon="3.5158">
        <ele>463.55</ele>
        <time>2015-04-11T14:31:41Z</time>
      </trkpt>
      <trkpt lat="46.07015" lon="3.51593">
        <ele>464.3</ele>
        <time>2015-04-11T14:31:46Z</time>
      </trkpt>
      <trkpt lat="46.07032" lon="3.51603">
        <ele>465.04</ele>
        <time>2015-04-11T14:31:50Z</time>
      </trkpt>
      <trkpt lat="46.07051" lon="3.51616">
        <ele>464.66</ele>
        <time>2015-04-11T14:31:55Z</time>
      </trkpt>
      <trkpt lat="46.07064" lon="3.51635">
        <ele>464.74</ele>
        <time>2015-04-11T14:32:00Z</time>
      </trkpt>
      <trkpt lat="46.07077" lon="3.51657">
        <ele>463.8</ele>
        <time>2015-04-11T14:32:07Z</time>
      </trkpt>
      <trkpt lat="46.07093" lon="3.51678">
        <ele>463.06</ele>
        <time>2015-04-11T14:32:13Z</time>
      </trkpt>
      <trkpt lat="46.07093" lon="3.51708">
        <ele>462.56</ele>
        <time>2015-04-11T14:32:20Z</time>
      </trkpt>
      <trkpt lat="46.07086" lon="3.51734">
        <ele>456.82</ele>
        <time>2015-04-11T14:32:29Z</time>
      </trkpt>
      <trkpt lat="46.07088" lon="3.51762">
        <ele>455.81</ele>
        <time>2015-04-11T14:32:34Z</time>
      </trkpt>
      <trkpt lat="46.07106" lon="3.51777">
        <ele>454.12</ele>
        <time>2015-04-11T14:32:40Z</time>
      </trkpt>
      <trkpt lat="46.07124" lon="3.51773">
        <ele>451.07</ele>
        <time>2015-04-11T14:33:27Z</time>
      </trkpt>
      <trkpt lat="46.07144" lon="3.51758">
        <ele>449.57</ele>
        <time>2015-04-11T14:33:37Z</time>
      </trkpt>
      <trkpt lat="46.07163" lon="3.51749">
        <ele>449.05</ele>
        <time>2015-04-11T14:33:49Z</time>
      </trkpt>
      <trkpt lat="46.07185" lon="3.51745">
        <ele>448.55</ele>
        <time>2015-04-11T14:33:57Z</time>
      </trkpt>
      <trkpt lat="46.07206" lon="3.51743">
        <ele>448.55</ele>
        <time>2015-04-11T14:34:05Z</time>
      </trkpt>
      <trkpt lat="46.07225" lon="3.51736">
        <ele>449.05</ele>
        <time>2015-04-11T14:34:11Z</time>
      </trkpt>
      <trkpt lat="46.07244" lon="3.51734">
        <ele>449.55</ele>
        <time>2015-04-11T14:34:22Z</time>
      </trkpt>
      <trkpt lat="46.07262" lon="3.51726">
        <ele>450.55</ele>
        <time>2015-04-11T14:34:37Z</time>
      </trkpt>
      <trkpt lat="46.07282" lon="3.51723">
        <ele>450.55</ele>
        <time>2015-04-11T14:34:52Z</time>
      </trkpt>
      <trkpt lat="46.07301" lon="3.51723">
        <ele>451.55</ele>
        <time>2015-04-11T14:35:11Z</time>
      </trkpt>
      <trkpt lat="46.07318" lon="3.51732">
        <ele>452.05</ele>
        <time>2015-04-11T14:35:24Z</time>
      </trkpt>
      <trkpt lat="46.07337" lon="3.51741">
        <ele>453.43</ele>
        <time>2015-04-11T14:35:35Z</time>
      </trkpt>
      <trkpt lat="46.07355" lon="3.51745">
        <ele>454.55</ele>
        <time>2015-04-11T14:35:49Z</time>
      </trkpt>
      <trkpt lat="46.07373" lon="3.51751">
        <ele>455.55</ele>
        <time>2015-04-11T14:36:06Z</time>
      </trkpt>
      <trkpt lat="46.07388" lon="3.51766">
        <ele>454.56</ele>
        <time>2015-04-11T14:36:29Z</time>
      </trkpt>
      <trkpt lat="46.07401" lon="3.51786">
        <ele>454.55</ele>
        <time>2015-04-11T14:36:44Z</time>
      </trkpt>
      <trkpt lat="46.07412" lon="3.51807">
        <ele>453.56</ele>
        <time>2015-04-11T14:37:02Z</time>
      </trkpt>
      <trkpt lat="46.07417" lon="3.51833">
        <ele>453.55</ele>
        <time>2015-04-11T14:37:20Z</time>
      </trkpt>
      <trkpt lat="46.07428" lon="3.51854">
        <ele>453.55</ele>
        <time>2015-04-11T14:37:39Z</time>
      </trkpt>
      <trkpt lat="46.07435" lon="3.51878">
        <ele>453.55</ele>
        <time>2015-04-11T14:37:55Z</time>
      </trkpt>
      <trkpt lat="46.07443" lon="3.51902">
        <ele>454.49</ele>
        <time>2015-04-11T14:38:04Z</time>
      </trkpt>
      <trkpt lat="46.07448" lon="3.51927">
        <ele>455.3</ele>
        <time>2015-04-11T14:38:14Z</time>
      </trkpt>
      <trkpt lat="46.07456" lon="3.51951">
        <ele>458.42</ele>
        <time>2015-04-11T14:38:28Z</time>
      </trkpt>
      <trkpt lat="46.07469" lon="3.51972">
        <ele>463.27</ele>
        <time>2015-04-11T14:38:45Z</time>
      </trkpt>
      <trkpt lat="46.07487" lon="3.51985">
        <ele>466.42</ele>
        <time>2015-04-11T14:38:58Z</time>
      </trkpt>
      <trkpt lat="46.07505" lon="3.51992">
        <ele>468.29</ele>
        <time>2015-04-11T14:39:06Z</time>
      </trkpt>
      <trkpt lat="46.07524" lon="3.51996">
        <ele>470.49</ele>
        <time>2015-04-11T14:39:18Z</time>
      </trkpt>
      <trkpt lat="46.07543" lon="3.51996">
        <ele>473.52</ele>
        <time>2015-04-11T14:39:31Z</time>
      </trkpt>
      <trkpt lat="46.07561" lon="3.51994">
        <ele>477.42</ele>
        <time>2015-04-11T14:39:46Z</time>
      </trkpt>
      <trkpt lat="46.07579" lon="3.51996">
        <ele>481.42</ele>
        <time>2015-04-11T14:40:04Z</time>
      </trkpt>
      <trkpt lat="46.07597" lon="3.51996">
        <ele>484.04</ele>
        <time>2015-04-11T14:40:18Z</time>
      </trkpt>
      <trkpt lat="46.07616" lon="3.51994">
        <ele>486.54</ele>
        <time>2015-04-11T14:40:34Z</time>
      </trkpt>
      <trkpt lat="46.07635" lon="3.51987">
        <ele>485.55</ele>
        <time>2015-04-11T14:40:55Z</time>
      </trkpt>
      <trkpt lat="46.07654" lon="3.5199">
        <ele>486.43</ele>
        <time>2015-04-11T14:41:07Z</time>
      </trkpt>
      <trkpt lat="46.07672" lon="3.51992">
        <ele>486.55</ele>
        <time>2015-04-11T14:41:16Z</time>
      </trkpt>
      <trkpt lat="46.07691" lon="3.51994">
        <ele>486.55</ele>
        <time>2015-04-11T14:41:23Z</time>
      </trkpt>
      <trkpt lat="46.0771" lon="3.51992">
        <ele>486.55</ele>
        <time>2015-04-11T14:41:33Z</time>
      </trkpt>
      <trkpt lat="46.07728" lon="3.51987">
        <ele>488.43</ele>
        <time>2015-04-11T14:41:44Z</time>
      </trkpt>
      <trkpt lat="46.07748" lon="3.51983">
        <ele>491.98</ele>
        <time>2015-04-11T14:41:57Z</time>
      </trkpt>
      <trkpt lat="46.07767" lon="3.5199">
        <ele>494.98</ele>
        <time>2015-04-11T14:42:05Z</time>
      </trkpt>
      <trkpt lat="46.07785" lon="3.51992">
        <ele>496.98</ele>
        <time>2015-04-11T14:42:11Z</time>
      </trkpt>
      <trkpt lat="46.07803" lon="3.5199">
        <ele>499.27</ele>
        <time>2015-04-11T14:42:18Z</time>
      </trkpt>
      <trkpt lat="46.07824" lon="3.5199">
        <ele>501.41</ele>
        <time>2015-04-11T14:42:25Z</time>
      </trkpt>
      <trkpt lat="46.07842" lon="3.51987">
        <ele>503.41</ele>
        <time>2015-04-11T14:42:31Z</time>
      </trkpt>
      <trkpt lat="46.0786" lon="3.51987">
        <ele>505.29</ele>
        <time>2015-04-11T14:42:38Z</time>
      </trkpt>
      <trkpt lat="46.0788" lon="3.5199">
        <ele>506.42</ele>
        <time>2015-04-11T14:42:43Z</time>
      </trkpt>
      <trkpt lat="46.07898" lon="3.5199">
        <ele>508.02</ele>
        <time>2015-04-11T14:42:48Z</time>
      </trkpt>
      <trkpt lat="46.07917" lon="3.51992">
        <ele>509.48</ele>
        <time>2015-04-11T14:42:54Z</time>
      </trkpt>
      <trkpt lat="46.07936" lon="3.51994">
        <ele>511.42</ele>
        <time>2015-04-11T14:43:01Z</time>
      </trkpt>
      <trkpt lat="46.07955" lon="3.51996">
        <ele>512.52</ele>
        <time>2015-04-11T14:43:07Z</time>
      </trkpt>
      <trkpt lat="46.07975" lon="3.52002">
        <ele>514.04</ele>
        <time>2015-04-11T14:43:14Z</time>
      </trkpt>
      <trkpt lat="46.07994" lon="3.52009">
        <ele>514.55</ele>
        <time>2015-04-11T14:43:21Z</time>
      </trkpt>
      <trkpt lat="46.08014" lon="3.52005">
        <ele>515.55</ele>
        <time>2015-04-11T14:43:28Z</time>
      </trkpt>
      <trkpt lat="46.08033" lon="3.52002">
        <ele>516.52</ele>
        <time>2015-04-11T14:43:35Z</time>
      </trkpt>
      <trkpt lat="46.08053" lon="3.52">
        <ele>517.43</ele>
        <time>2015-04-11T14:43:42Z</time>
      </trkpt>
      <trkpt lat="46.08074" lon="3.52">
        <ele>518.49</ele>
        <time>2015-04-11T14:43:49Z</time>
      </trkpt>
      <trkpt lat="46.08093" lon="3.52">
        <ele>519.49</ele>
        <time>2015-04-11T14:43:55Z</time>
      </trkpt>
      <trkpt lat="46.08111" lon="3.52">
        <ele>519.55</ele>
        <time>2015-04-11T14:44:00Z</time>
      </trkpt>
      <trkpt lat="46.08132" lon="3.52">
        <ele>520.49</ele>
        <time>2015-04-11T14:44:05Z</time>
      </trkpt>
      <trkpt lat="46.08153" lon="3.51996">
        <ele>520.55</ele>
        <time>2015-04-11T14:44:10Z</time>
      </trkpt>
      <trkpt lat="46.08175" lon="3.5199">
        <ele>521.52</ele>
        <time>2015-04-11T14:44:15Z</time>
      </trkpt>
      <trkpt lat="46.08196" lon="3.5199">
        <ele>522.05</ele>
        <time>2015-04-11T14:44:20Z</time>
      </trkpt>
      <trkpt lat="46.08214" lon="3.51992">
        <ele>522.52</ele>
        <time>2015-04-11T14:44:24Z</time>
      </trkpt>
      <trkpt lat="46.08235" lon="3.51983">
        <ele>522.55</ele>
        <time>2015-04-11T14:44:29Z</time>
      </trkpt>
      <trkpt lat="46.08252" lon="3.51968">
        <ele>523.99</ele>
        <time>2015-04-11T14:44:33Z</time>
      </trkpt>
      <trkpt lat="46.08269" lon="3.51949">
        <ele>524.52</ele>
        <time>2015-04-11T14:44:37Z</time>
      </trkpt>
      <trkpt lat="46.08286" lon="3.51925">
        <ele>524.55</ele>
        <time>2015-04-11T14:44:41Z</time>
      </trkpt>
      <trkpt lat="46.08303" lon="3.51908">
        <ele>524.37</ele>
        <time>2015-04-11T14:44:45Z</time>
      </trkpt>
      <trkpt lat="46.0832" lon="3.51889">
        <ele>523.79</ele>
        <time>2015-04-11T14:44:49Z</time>
      </trkpt>
      <trkpt lat="46.08338" lon="3.51867">
        <ele>523.57</ele>
        <time>2015-04-11T14:44:53Z</time>
      </trkpt>
      <trkpt lat="46.08353" lon="3.5185">
        <ele>523.55</ele>
        <time>2015-04-11T14:44:56Z</time>
      </trkpt>
      <trkpt lat="46.0837" lon="3.51826">
        <ele>523.55</ele>
        <time>2015-04-11T14:44:59Z</time>
      </trkpt>
      <trkpt lat="46.08386" lon="3.51803">
        <ele>524.05</ele>
        <time>2015-04-11T14:45:02Z</time>
      </trkpt>
      <trkpt lat="46.08402" lon="3.51779">
        <ele>524.49</ele>
        <time>2015-04-11T14:45:05Z</time>
      </trkpt>
      <trkpt lat="46.08418" lon="3.51758">
        <ele>524.05</ele>
        <time>2015-04-11T14:45:08Z</time>
      </trkpt>
      <trkpt lat="46.08435" lon="3.51734">
        <ele>523.61</ele>
        <time>2015-04-11T14:45:11Z</time>
      </trkpt>
      <trkpt lat="46.0845" lon="3.51713">
        <ele>523.56</ele>
        <time>2015-04-11T14:45:14Z</time>
      </trkpt>
      <trkpt lat="46.08464" lon="3.51693">
        <ele>522.68</ele>
        <time>2015-04-11T14:45:17Z</time>
      </trkpt>
      <trkpt lat="46.08477" lon="3.51674">
        <ele>522.57</ele>
        <time>2015-04-11T14:45:20Z</time>
      </trkpt>
      <trkpt lat="46.08492" lon="3.51655">
        <ele>522.55</ele>
        <time>2015-04-11T14:45:24Z</time>
      </trkpt>
      <trkpt lat="46.08507" lon="3.51638">
        <ele>522.05</ele>
        <time>2015-04-11T14:45:28Z</time>
      </trkpt>
      <trkpt lat="46.08524" lon="3.5162">
        <ele>522.08</ele>
        <time>2015-04-11T14:45:32Z</time>
      </trkpt>
      <trkpt lat="46.08539" lon="3.51603">
        <ele>523.24</ele>
        <time>2015-04-11T14:45:35Z</time>
      </trkpt>
      <trkpt lat="46.08558" lon="3.51582">
        <ele>524.41</ele>
        <time>2015-04-11T14:45:39Z</time>
      </trkpt>
      <trkpt lat="46.08574" lon="3.51558">
        <ele>524.54</ele>
        <time>2015-04-11T14:45:43Z</time>
      </trkpt>
      <trkpt lat="46.08584" lon="3.51535">
        <ele>523.68</ele>
        <time>2015-04-11T14:45:46Z</time>
      </trkpt>
      <trkpt lat="46.08596" lon="3.51509">
        <ele>524.06</ele>
        <time>2015-04-11T14:45:50Z</time>
      </trkpt>
      <trkpt lat="46.08607" lon="3.51485">
        <ele>525.48</ele>
        <time>2015-04-11T14:45:55Z</time>
      </trkpt>
      <trkpt lat="46.0862" lon="3.5146">
        <ele>525.05</ele>
        <time>2015-04-11T14:46:00Z</time>
      </trkpt>
      <trkpt lat="46.08631" lon="3.51432">
        <ele>519.4</ele>
        <time>2015-04-11T14:46:04Z</time>
      </trkpt>
      <trkpt lat="46.0864" lon="3.51408">
        <ele>517.78</ele>
        <time>2015-04-11T14:46:07Z</time>
      </trkpt>
      <trkpt lat="46.0865" lon="3.5138">
        <ele>516.71</ele>
        <time>2015-04-11T14:46:10Z</time>
      </trkpt>
      <trkpt lat="46.08658" lon="3.51348">
        <ele>515.69</ele>
        <time>2015-04-11T14:46:14Z</time>
      </trkpt>
      <trkpt lat="46.08666" lon="3.51316">
        <ele>511.56</ele>
        <time>2015-04-11T14:46:18Z</time>
      </trkpt>
      <trkpt lat="46.08672" lon="3.51288">
        <ele>509.74</ele>
        <time>2015-04-11T14:46:22Z</time>
      </trkpt>
      <trkpt lat="46.08677" lon="3.5126">
        <ele>510.81</ele>
        <time>2015-04-11T14:46:26Z</time>
      </trkpt>
      <trkpt lat="46.08681" lon="3.51234">
        <ele>513.59</ele>
        <time>2015-04-11T14:46:29Z</time>
      </trkpt>
      <trkpt lat="46.08686" lon="3.51202">
        <ele>518.06</ele>
        <time>2015-04-11T14:46:33Z</time>
      </trkpt>
      <trkpt lat="46.08697" lon="3.51181">
        <ele>520.4</ele>
        <time>2015-04-11T14:46:37Z</time>
      </trkpt>
      <trkpt lat="46.08719" lon="3.51176">
        <ele>521.36</ele>
        <time>2015-04-11T14:46:42Z</time>
      </trkpt>
      <trkpt lat="46.08737" lon="3.51178">
        <ele>515.52</ele>
        <time>2015-04-11T14:46:47Z</time>
      </trkpt>
      <trkpt lat="46.08758" lon="3.51181">
        <ele>514.15</ele>
        <time>2015-04-11T14:46:52Z</time>
      </trkpt>
      <trkpt lat="46.08776" lon="3.51178">
        <ele>514.53</ele>
        <time>2015-04-11T14:46:56Z</time>
      </trkpt>
      <trkpt lat="46.08796" lon="3.51176">
        <ele>514.55</ele>
        <time>2015-04-11T14:47:00Z</time>
      </trkpt>
      <trkpt lat="46.08814" lon="3.51176">
        <ele>515.43</ele>
        <time>2015-04-11T14:47:04Z</time>
      </trkpt>
      <trkpt lat="46.08834" lon="3.51183">
        <ele>515.55</ele>
        <time>2015-04-11T14:47:11Z</time>
      </trkpt>
      <trkpt lat="46.08854" lon="3.51187">
        <ele>514.68</ele>
        <time>2015-04-11T14:47:16Z</time>
      </trkpt>
      <trkpt lat="46.08874" lon="3.51191">
        <ele>514.56</ele>
        <time>2015-04-11T14:47:21Z</time>
      </trkpt>
      <trkpt lat="46.08893" lon="3.51196">
        <ele>513.8</ele>
        <time>2015-04-11T14:47:25Z</time>
      </trkpt>
      <trkpt lat="46.08914" lon="3.51206">
        <ele>514.96</ele>
        <time>2015-04-11T14:47:28Z</time>
      </trkpt>
      <trkpt lat="46.08933" lon="3.51217">
        <ele>515.48</ele>
        <time>2015-04-11T14:47:31Z</time>
      </trkpt>
      <trkpt lat="46.08952" lon="3.51226">
        <ele>517.17</ele>
        <time>2015-04-11T14:47:34Z</time>
      </trkpt>
      <trkpt lat="46.08973" lon="3.51232">
        <ele>515.38</ele>
        <time>2015-04-11T14:47:37Z</time>
      </trkpt>
      <trkpt lat="46.08991" lon="3.51236">
        <ele>513.91</ele>
        <time>2015-04-11T14:47:40Z</time>
      </trkpt>
      <trkpt lat="46.09014" lon="3.51241">
        <ele>510.51</ele>
        <time>2015-04-11T14:47:44Z</time>
      </trkpt>
      <trkpt lat="46.09032" lon="3.51243">
        <ele>509.42</ele>
        <time>2015-04-11T14:47:47Z</time>
      </trkpt>
      <trkpt lat="46.09062" lon="3.51247">
        <ele>510.04</ele>
        <time>2015-04-11T14:47:53Z</time>
      </trkpt>
      <trkpt lat="46.0907" lon="3.51221">
        <ele>505.55</ele>
        <time>2015-04-11T14:48:27Z</time>
      </trkpt>
      <trkpt lat="46.09068" lon="3.51193">
        <ele>502.15</ele>
        <time>2015-04-11T14:48:33Z</time>
      </trkpt>
      <trkpt lat="46.0906" lon="3.5117">
        <ele>500.62</ele>
        <time>2015-04-11T14:48:39Z</time>
      </trkpt>
      <trkpt lat="46.09051" lon="3.51144">
        <ele>498.81</ele>
        <time>2015-04-11T14:48:46Z</time>
      </trkpt>
      <trkpt lat="46.09044" lon="3.51118">
        <ele>497.62</ele>
        <time>2015-04-11T14:48:54Z</time>
      </trkpt>
      <trkpt lat="46.09041" lon="3.51093">
        <ele>496.57</ele>
        <time>2015-04-11T14:49:02Z</time>
      </trkpt>
      <trkpt lat="46.09039" lon="3.51065">
        <ele>495.58</ele>
        <time>2015-04-11T14:49:09Z</time>
      </trkpt>
      <trkpt lat="46.09037" lon="3.51037">
        <ele>495.55</ele>
        <time>2015-04-11T14:49:15Z</time>
      </trkpt>
      <trkpt lat="46.09035" lon="3.51011">
        <ele>494.8</ele>
        <time>2015-04-11T14:49:19Z</time>
      </trkpt>
      <trkpt lat="46.09039" lon="3.50983">
        <ele>493.57</ele>
        <time>2015-04-11T14:49:25Z</time>
      </trkpt>
      <trkpt lat="46.09053" lon="3.50962">
        <ele>500.5</ele>
        <time>2015-04-11T14:49:35Z</time>
      </trkpt>
      <trkpt lat="46.09066" lon="3.5094">
        <ele>503.21</ele>
        <time>2015-04-11T14:49:40Z</time>
      </trkpt>
      <trkpt lat="46.09079" lon="3.50917">
        <ele>504.98</ele>
        <time>2015-04-11T14:49:45Z</time>
      </trkpt>
      <trkpt lat="46.09091" lon="3.50893">
        <ele>506.02</ele>
        <time>2015-04-11T14:49:49Z</time>
      </trkpt>
      <trkpt lat="46.09105" lon="3.50867">
        <ele>505.58</ele>
        <time>2015-04-11T14:49:53Z</time>
      </trkpt>
      <trkpt lat="46.09119" lon="3.50844">
        <ele>505.56</ele>
        <time>2015-04-11T14:49:56Z</time>
      </trkpt>
      <trkpt lat="46.09133" lon="3.50822">
        <ele>506.3</ele>
        <time>2015-04-11T14:49:59Z</time>
      </trkpt>
      <trkpt lat="46.09149" lon="3.50794">
        <ele>507.02</ele>
        <time>2015-04-11T14:50:02Z</time>
      </trkpt>
      <trkpt lat="46.09165" lon="3.50769">
        <ele>508.86</ele>
        <time>2015-04-11T14:50:05Z</time>
      </trkpt>
      <trkpt lat="46.0918" lon="3.50749">
        <ele>510.22</ele>
        <time>2015-04-11T14:50:08Z</time>
      </trkpt>
      <trkpt lat="46.09196" lon="3.5073">
        <ele>511.39</ele>
        <time>2015-04-11T14:50:11Z</time>
      </trkpt>
      <trkpt lat="46.09212" lon="3.50717">
        <ele>511.55</ele>
        <time>2015-04-11T14:50:16Z</time>
      </trkpt>
      <trkpt lat="46.09232" lon="3.50704">
        <ele>504.18</ele>
        <time>2015-04-11T14:50:26Z</time>
      </trkpt>
      <trkpt lat="46.09251" lon="3.507">
        <ele>500.35</ele>
        <time>2015-04-11T14:50:31Z</time>
      </trkpt>
      <trkpt lat="46.09269" lon="3.50687">
        <ele>494.7</ele>
        <time>2015-04-11T14:50:40Z</time>
      </trkpt>
      <trkpt lat="46.09281" lon="3.50666">
        <ele>492.32</ele>
        <time>2015-04-11T14:50:43Z</time>
      </trkpt>
      <trkpt lat="46.09297" lon="3.50653">
        <ele>487.72</ele>
        <time>2015-04-11T14:50:49Z</time>
      </trkpt>
      <trkpt lat="46.09321" lon="3.50661">
        <ele>474.07</ele>
        <time>2015-04-11T14:51:00Z</time>
      </trkpt>
      <trkpt lat="46.09343" lon="3.50666">
        <ele>472.68</ele>
        <time>2015-04-11T14:51:18Z</time>
      </trkpt>
      <trkpt lat="46.09361" lon="3.50672">
        <ele>468.32</ele>
        <time>2015-04-11T14:51:21Z</time>
      </trkpt>
      <trkpt lat="46.09384" lon="3.50676">
        <ele>464.48</ele>
        <time>2015-04-11T14:51:25Z</time>
      </trkpt>
      <trkpt lat="46.09404" lon="3.50685">
        <ele>462.74</ele>
        <time>2015-04-11T14:51:29Z</time>
      </trkpt>
      <trkpt lat="46.09423" lon="3.50691">
        <ele>460.62</ele>
        <time>2015-04-11T14:51:34Z</time>
      </trkpt>
      <trkpt lat="46.09443" lon="3.50683">
        <ele>459.62</ele>
        <time>2015-04-11T14:51:44Z</time>
      </trkpt>
      <trkpt lat="46.09462" lon="3.50698">
        <ele>458.8</ele>
        <time>2015-04-11T14:51:50Z</time>
      </trkpt>
      <trkpt lat="46.09482" lon="3.50698">
        <ele>458.05</ele>
        <time>2015-04-11T14:51:59Z</time>
      </trkpt>
      <trkpt lat="46.09492" lon="3.50724">
        <ele>456.12</ele>
        <time>2015-04-11T14:52:05Z</time>
      </trkpt>
      <trkpt lat="46.09499" lon="3.50756">
        <ele>453.28</ele>
        <time>2015-04-11T14:52:09Z</time>
      </trkpt>
      <trkpt lat="46.09506" lon="3.50779">
        <ele>452.58</ele>
        <time>2015-04-11T14:52:14Z</time>
      </trkpt>
      <trkpt lat="46.09518" lon="3.50805">
        <ele>450.74</ele>
        <time>2015-04-11T14:52:20Z</time>
      </trkpt>
      <trkpt lat="46.09532" lon="3.50827">
        <ele>449.68</ele>
        <time>2015-04-11T14:52:27Z</time>
      </trkpt>
      <trkpt lat="46.09552" lon="3.50852">
        <ele>449.05</ele>
        <time>2015-04-11T14:52:38Z</time>
      </trkpt>
      <trkpt lat="46.09569" lon="3.50867">
        <ele>447.57</ele>
        <time>2015-04-11T14:52:47Z</time>
      </trkpt>
      <trkpt lat="46.0959" lon="3.50882">
        <ele>446.08</ele>
        <time>2015-04-11T14:52:55Z</time>
      </trkpt>
      <trkpt lat="46.09608" lon="3.50895">
        <ele>445.56</ele>
        <time>2015-04-11T14:53:01Z</time>
      </trkpt>
      <trkpt lat="46.09628" lon="3.50904">
        <ele>445.05</ele>
        <time>2015-04-11T14:53:07Z</time>
      </trkpt>
      <trkpt lat="46.09652" lon="3.50908">
        <ele>444.08</ele>
        <time>2015-04-11T14:53:11Z</time>
      </trkpt>
      <trkpt lat="46.09672" lon="3.50906">
        <ele>442.12</ele>
        <time>2015-04-11T14:53:17Z</time>
      </trkpt>
      <trkpt lat="46.09694" lon="3.50906">
        <ele>440.07</ele>
        <time>2015-04-11T14:53:26Z</time>
      </trkpt>
      <trkpt lat="46.09707" lon="3.50887">
        <ele>438.56</ele>
        <time>2015-04-11T14:53:39Z</time>
      </trkpt>
      <trkpt lat="46.09712" lon="3.50861">
        <ele>439.05</ele>
        <time>2015-04-11T14:53:49Z</time>
      </trkpt>
      <trkpt lat="46.09717" lon="3.50829">
        <ele>441.04</ele>
        <time>2015-04-11T14:53:59Z</time>
      </trkpt>
      <trkpt lat="46.09731" lon="3.50809">
        <ele>443.02</ele>
        <time>2015-04-11T14:54:07Z</time>
      </trkpt>
      <trkpt lat="46.09753" lon="3.50811">
        <ele>445.04</ele>
        <time>2015-04-11T14:54:17Z</time>
      </trkpt>
      <trkpt lat="46.0977" lon="3.50822">
        <ele>447.02</ele>
        <time>2015-04-11T14:54:25Z</time>
      </trkpt>
      <trkpt lat="46.0979" lon="3.50824">
        <ele>448.04</ele>
        <time>2015-04-11T14:54:31Z</time>
      </trkpt>
      <trkpt lat="46.09811" lon="3.50831">
        <ele>449.48</ele>
        <time>2015-04-11T14:54:37Z</time>
      </trkpt>
      <trkpt lat="46.09829" lon="3.50839">
        <ele>451.29</ele>
        <time>2015-04-11T14:54:43Z</time>
      </trkpt>
      <trkpt lat="46.09849" lon="3.50842">
        <ele>452.49</ele>
        <time>2015-04-11T14:54:49Z</time>
      </trkpt>
      <trkpt lat="46.09871" lon="3.50833">
        <ele>453.52</ele>
        <time>2015-04-11T14:54:54Z</time>
      </trkpt>
      <trkpt lat="46.09897" lon="3.50818">
        <ele>453.55</ele>
        <time>2015-04-11T14:55:01Z</time>
      </trkpt>
      <trkpt lat="46.09915" lon="3.50803">
        <ele>453.55</ele>
        <time>2015-04-11T14:55:09Z</time>
      </trkpt>
      <trkpt lat="46.09928" lon="3.50784">
        <ele>452.56</ele>
        <time>2015-04-11T14:55:17Z</time>
      </trkpt>
      <trkpt lat="46.09937" lon="3.5076">
        <ele>451.56</ele>
        <time>2015-04-11T14:55:24Z</time>
      </trkpt>
      <trkpt lat="46.09946" lon="3.50736">
        <ele>451.55</ele>
        <time>2015-04-11T14:55:30Z</time>
      </trkpt>
      <trkpt lat="46.09954" lon="3.50711">
        <ele>451.55</ele>
        <time>2015-04-11T14:55:37Z</time>
      </trkpt>
      <trkpt lat="46.09965" lon="3.50685">
        <ele>451.55</ele>
        <time>2015-04-11T14:55:44Z</time>
      </trkpt>
      <trkpt lat="46.09975" lon="3.50659">
        <ele>451.66</ele>
        <time>2015-04-11T14:55:51Z</time>
      </trkpt>
      <trkpt lat="46.09983" lon="3.50633">
        <ele>451.55</ele>
        <time>2015-04-11T14:55:57Z</time>
      </trkpt>
      <trkpt lat="46.09986" lon="3.50605">
        <ele>450.62</ele>
        <time>2015-04-11T14:56:01Z</time>
      </trkpt>
      <trkpt lat="46.09985" lon="3.50578">
        <ele>449.81</ele>
        <time>2015-04-11T14:56:04Z</time>
      </trkpt>
      <trkpt lat="46.09979" lon="3.50541">
        <ele>445.84</ele>
        <time>2015-04-11T14:56:07Z</time>
      </trkpt>
      <trkpt lat="46.09974" lon="3.50515">
        <ele>443.62</ele>
        <time>2015-04-11T14:56:09Z</time>
      </trkpt>
      <trkpt lat="46.09967" lon="3.50481">
        <ele>441.31</ele>
        <time>2015-04-11T14:56:12Z</time>
      </trkpt>
      <trkpt lat="46.09963" lon="3.50453">
        <ele>440.15</ele>
        <time>2015-04-11T14:56:15Z</time>
      </trkpt>
      <trkpt lat="46.09954" lon="3.50427">
        <ele>439.59</ele>
        <time>2015-04-11T14:56:19Z</time>
      </trkpt>
      <trkpt lat="46.09946" lon="3.50399">
        <ele>439.55</ele>
        <time>2015-04-11T14:56:29Z</time>
      </trkpt>
      <trkpt lat="46.0993" lon="3.5038">
        <ele>440.52</ele>
        <time>2015-04-11T14:56:38Z</time>
      </trkpt>
      <trkpt lat="46.09912" lon="3.50361">
        <ele>440.55</ele>
        <time>2015-04-11T14:56:44Z</time>
      </trkpt>
      <trkpt lat="46.09899" lon="3.50335">
        <ele>440.55</ele>
        <time>2015-04-11T14:56:49Z</time>
      </trkpt>
      <trkpt lat="46.0989" lon="3.50312">
        <ele>440.55</ele>
        <time>2015-04-11T14:56:53Z</time>
      </trkpt>
      <trkpt lat="46.09886" lon="3.50277">
        <ele>440.55</ele>
        <time>2015-04-11T14:56:59Z</time>
      </trkpt>
      <trkpt lat="46.09883" lon="3.50249">
        <ele>440.55</ele>
        <time>2015-04-11T14:57:04Z</time>
      </trkpt>
      <trkpt lat="46.09873" lon="3.50224">
        <ele>440.55</ele>
        <time>2015-04-11T14:57:11Z</time>
      </trkpt>
      <trkpt lat="46.09865" lon="3.50198">
        <ele>440.55</ele>
        <time>2015-04-11T14:57:19Z</time>
      </trkpt>
      <trkpt lat="46.09859" lon="3.50168">
        <ele>440.55</ele>
        <time>2015-04-11T14:57:29Z</time>
      </trkpt>
      <trkpt lat="46.09845" lon="3.50144">
        <ele>440.55</ele>
        <time>2015-04-11T14:57:38Z</time>
      </trkpt>
      <trkpt lat="46.0983" lon="3.50125">
        <ele>440.55</ele>
        <time>2015-04-11T14:57:45Z</time>
      </trkpt>
      <trkpt lat="46.09858" lon="3.5011">
        <ele>442.37</ele>
        <time>2015-04-11T14:57:52Z</time>
      </trkpt>
      <trkpt lat="46.09885" lon="3.50106">
        <ele>442.26</ele>
        <time>2015-04-11T14:57:54Z</time>
      </trkpt>
      <trkpt lat="46.09904" lon="3.50106">
        <ele>442.48</ele>
        <time>2015-04-11T14:57:56Z</time>
      </trkpt>
      <trkpt lat="46.09923" lon="3.50097">
        <ele>444.67</ele>
        <time>2015-04-11T14:57:59Z</time>
      </trkpt>
      <trkpt lat="46.09943" lon="3.50108">
        <ele>446.87</ele>
        <time>2015-04-11T14:58:03Z</time>
      </trkpt>
      <trkpt lat="46.0996" lon="3.50084">
        <ele>449.82</ele>
        <time>2015-04-11T14:58:07Z</time>
      </trkpt>
      <trkpt lat="46.09972" lon="3.50063">
        <ele>451.21</ele>
        <time>2015-04-11T14:58:10Z</time>
      </trkpt>
      <trkpt lat="46.09986" lon="3.50039">
        <ele>452.78</ele>
        <time>2015-04-11T14:58:14Z</time>
      </trkpt>
      <trkpt lat="46.09995" lon="3.50013">
        <ele>457</ele>
        <time>2015-04-11T14:58:18Z</time>
      </trkpt>
      <trkpt lat="46.10004" lon="3.4999">
        <ele>459.21</ele>
        <time>2015-04-11T14:58:22Z</time>
      </trkpt>
      <trkpt lat="46.10008" lon="3.49964">
        <ele>459.53</ele>
        <time>2015-04-11T14:58:26Z</time>
      </trkpt>
      <trkpt lat="46.10017" lon="3.49934">
        <ele>458.61</ele>
        <time>2015-04-11T14:58:31Z</time>
      </trkpt>
      <trkpt lat="46.10022" lon="3.49908">
        <ele>458.06</ele>
        <time>2015-04-11T14:58:35Z</time>
      </trkpt>
      <trkpt lat="46.10029" lon="3.49882">
        <ele>457.58</ele>
        <time>2015-04-11T14:58:39Z</time>
      </trkpt>
      <trkpt lat="46.10034" lon="3.49854">
        <ele>456.62</ele>
        <time>2015-04-11T14:58:44Z</time>
      </trkpt>
      <trkpt lat="46.10035" lon="3.49827">
        <ele>455.62</ele>
        <time>2015-04-11T14:58:48Z</time>
      </trkpt>
      <trkpt lat="46.10034" lon="3.49797">
        <ele>455.56</ele>
        <time>2015-04-11T14:58:53Z</time>
      </trkpt>
      <trkpt lat="46.10016" lon="3.49792">
        <ele>455.55</ele>
        <time>2015-04-11T14:59:01Z</time>
      </trkpt>
      <trkpt lat="46.10006" lon="3.49816">
        <ele>456.52</ele>
        <time>2015-04-11T14:59:07Z</time>
      </trkpt>
      <trkpt lat="46.10027" lon="3.49824">
        <ele>458.3</ele>
        <time>2015-04-11T14:59:16Z</time>
      </trkpt>
      <trkpt lat="46.10049" lon="3.4982">
        <ele>459.04</ele>
        <time>2015-04-11T14:59:20Z</time>
      </trkpt>
      <trkpt lat="46.10071" lon="3.49824">
        <ele>459.54</ele>
        <time>2015-04-11T14:59:25Z</time>
      </trkpt>
      <trkpt lat="46.1009" lon="3.4982">
        <ele>460.49</ele>
        <time>2015-04-11T14:59:29Z</time>
      </trkpt>
      <trkpt lat="46.10112" lon="3.49816">
        <ele>461.43</ele>
        <time>2015-04-11T14:59:34Z</time>
      </trkpt>
      <trkpt lat="46.10132" lon="3.49805">
        <ele>463.05</ele>
        <time>2015-04-11T14:59:39Z</time>
      </trkpt>
      <trkpt lat="46.10148" lon="3.4979">
        <ele>463.52</ele>
        <time>2015-04-11T14:59:43Z</time>
      </trkpt>
      <trkpt lat="46.10159" lon="3.49766">
        <ele>463.55</ele>
        <time>2015-04-11T14:59:47Z</time>
      </trkpt>
      <trkpt lat="46.10169" lon="3.49743">
        <ele>463.55</ele>
        <time>2015-04-11T14:59:50Z</time>
      </trkpt>
      <trkpt lat="46.10178" lon="3.49717">
        <ele>462.68</ele>
        <time>2015-04-11T14:59:53Z</time>
      </trkpt>
      <trkpt lat="46.10184" lon="3.49691">
        <ele>462.07</ele>
        <time>2015-04-11T14:59:56Z</time>
      </trkpt>
      <trkpt lat="46.10189" lon="3.49666">
        <ele>460.84</ele>
        <time>2015-04-11T15:00:00Z</time>
      </trkpt>
      <trkpt lat="46.10194" lon="3.49633">
        <ele>459.62</ele>
        <time>2015-04-11T15:00:05Z</time>
      </trkpt>
      <trkpt lat="46.10193" lon="3.49603">
        <ele>458.12</ele>
        <time>2015-04-11T15:00:09Z</time>
      </trkpt>
      <trkpt lat="46.10189" lon="3.49571">
        <ele>456.82</ele>
        <time>2015-04-11T15:00:14Z</time>
      </trkpt>
      <trkpt lat="46.10186" lon="3.49543">
        <ele>456.06</ele>
        <time>2015-04-11T15:00:19Z</time>
      </trkpt>
      <trkpt lat="46.10186" lon="3.49515">
        <ele>455.56</ele>
        <time>2015-04-11T15:00:25Z</time>
      </trkpt>
      <trkpt lat="46.10197" lon="3.49494">
        <ele>455.55</ele>
        <time>2015-04-11T15:00:31Z</time>
      </trkpt>
      <trkpt lat="46.10212" lon="3.49477">
        <ele>454.57</ele>
        <time>2015-04-11T15:00:38Z</time>
      </trkpt>
      <trkpt lat="46.10232" lon="3.49477">
        <ele>453.56</ele>
        <time>2015-04-11T15:00:46Z</time>
      </trkpt>
      <trkpt lat="46.10252" lon="3.49477">
        <ele>453.55</ele>
        <time>2015-04-11T15:00:53Z</time>
      </trkpt>
      <trkpt lat="46.10268" lon="3.49462">
        <ele>453.55</ele>
        <time>2015-04-11T15:01:00Z</time>
      </trkpt>
      <trkpt lat="46.10266" lon="3.49432">
        <ele>452.57</ele>
        <time>2015-04-11T15:01:06Z</time>
      </trkpt>
      <trkpt lat="46.10258" lon="3.49406">
        <ele>451.68</ele>
        <time>2015-04-11T15:01:10Z</time>
      </trkpt>
      <trkpt lat="46.10251" lon="3.49376">
        <ele>447.56</ele>
        <time>2015-04-11T15:01:14Z</time>
      </trkpt>
      <trkpt lat="46.1024" lon="3.49352">
        <ele>445.3</ele>
        <time>2015-04-11T15:01:17Z</time>
      </trkpt>
      <trkpt lat="46.10229" lon="3.49329">
        <ele>443.02</ele>
        <time>2015-04-11T15:01:20Z</time>
      </trkpt>
      <trkpt lat="46.10218" lon="3.49301">
        <ele>441.14</ele>
        <time>2015-04-11T15:01:24Z</time>
      </trkpt>
      <trkpt lat="46.10211" lon="3.49273">
        <ele>440.57</ele>
        <time>2015-04-11T15:01:29Z</time>
      </trkpt>
      <trkpt lat="46.10199" lon="3.49247">
        <ele>440.55</ele>
        <time>2015-04-11T15:01:34Z</time>
      </trkpt>
      <trkpt lat="46.10191" lon="3.49219">
        <ele>440.05</ele>
        <time>2015-04-11T15:01:39Z</time>
      </trkpt>
      <trkpt lat="46.10184" lon="3.49191">
        <ele>439.57</ele>
        <time>2015-04-11T15:01:44Z</time>
      </trkpt>
      <trkpt lat="46.10191" lon="3.49164">
        <ele>439.05</ele>
        <time>2015-04-11T15:01:48Z</time>
      </trkpt>
      <trkpt lat="46.10209" lon="3.49144">
        <ele>436.93</ele>
        <time>2015-04-11T15:01:50Z</time>
      </trkpt>
      <trkpt lat="46.10227" lon="3.49129">
        <ele>434.65</ele>
        <time>2015-04-11T15:01:52Z</time>
      </trkpt>
      <trkpt lat="46.10252" lon="3.49116">
        <ele>431.56</ele>
        <time>2015-04-11T15:01:55Z</time>
      </trkpt>
      <trkpt lat="46.10274" lon="3.49116">
        <ele>429.05</ele>
        <time>2015-04-11T15:01:58Z</time>
      </trkpt>
      <trkpt lat="46.10296" lon="3.49114">
        <ele>427.74</ele>
        <time>2015-04-11T15:02:01Z</time>
      </trkpt>
      <trkpt lat="46.10316" lon="3.49106">
        <ele>427.58</ele>
        <time>2015-04-11T15:02:04Z</time>
      </trkpt>
      <trkpt lat="46.10335" lon="3.49095">
        <ele>427.56</ele>
        <time>2015-04-11T15:02:07Z</time>
      </trkpt>
      <trkpt lat="46.1035" lon="3.49078">
        <ele>427.55</ele>
        <time>2015-04-11T15:02:10Z</time>
      </trkpt>
      <trkpt lat="46.10359" lon="3.4905">
        <ele>428.43</ele>
        <time>2015-04-11T15:02:13Z</time>
      </trkpt>
      <trkpt lat="46.10368" lon="3.49024">
        <ele>428.54</ele>
        <time>2015-04-11T15:02:16Z</time>
      </trkpt>
      <trkpt lat="46.10376" lon="3.48996">
        <ele>428.55</ele>
        <time>2015-04-11T15:02:19Z</time>
      </trkpt>
      <trkpt lat="46.10386" lon="3.4897">
        <ele>428.55</ele>
        <time>2015-04-11T15:02:22Z</time>
      </trkpt>
      <trkpt lat="46.10395" lon="3.48943">
        <ele>428.55</ele>
        <time>2015-04-11T15:02:25Z</time>
      </trkpt>
      <trkpt lat="46.10407" lon="3.48917">
        <ele>428.55</ele>
        <time>2015-04-11T15:02:28Z</time>
      </trkpt>
      <trkpt lat="46.10418" lon="3.48887">
        <ele>428.55</ele>
        <time>2015-04-11T15:02:31Z</time>
      </trkpt>
      <trkpt lat="46.10429" lon="3.48857">
        <ele>427.68</ele>
        <time>2015-04-11T15:02:34Z</time>
      </trkpt>
      <trkpt lat="46.10443" lon="3.48822">
        <ele>426.19</ele>
        <time>2015-04-11T15:02:37Z</time>
      </trkpt>
      <trkpt lat="46.10453" lon="3.48801">
        <ele>425.21</ele>
        <time>2015-04-11T15:02:39Z</time>
      </trkpt>
      <trkpt lat="46.1046" lon="3.48767">
        <ele>420.51</ele>
        <time>2015-04-11T15:02:42Z</time>
      </trkpt>
      <trkpt lat="46.10457" lon="3.4873">
        <ele>412.92</ele>
        <time>2015-04-11T15:02:45Z</time>
      </trkpt>
      <trkpt lat="46.10451" lon="3.48704">
        <ele>408.65</ele>
        <time>2015-04-11T15:02:47Z</time>
      </trkpt>
      <trkpt lat="46.1044" lon="3.48683">
        <ele>404.58</ele>
        <time>2015-04-11T15:02:49Z</time>
      </trkpt>
      <trkpt lat="46.10423" lon="3.48657">
        <ele>398.56</ele>
        <time>2015-04-11T15:02:51Z</time>
      </trkpt>
      <trkpt lat="46.10402" lon="3.48651">
        <ele>389.18</ele>
        <time>2015-04-11T15:02:54Z</time>
      </trkpt>
      <trkpt lat="46.10383" lon="3.4864">
        <ele>382.51</ele>
        <time>2015-04-11T15:02:57Z</time>
      </trkpt>
      <trkpt lat="46.10369" lon="3.48612">
        <ele>378.71</ele>
        <time>2015-04-11T15:03:02Z</time>
      </trkpt>
      <trkpt lat="46.1036" lon="3.4858">
        <ele>379.82</ele>
        <time>2015-04-11T15:03:05Z</time>
      </trkpt>
      <trkpt lat="46.10348" lon="3.4855">
        <ele>381.96</ele>
        <time>2015-04-11T15:03:08Z</time>
      </trkpt>
      <trkpt lat="46.10335" lon="3.4852">
        <ele>384.1</ele>
        <time>2015-04-11T15:03:11Z</time>
      </trkpt>
      <trkpt lat="46.10321" lon="3.48488">
        <ele>385.37</ele>
        <time>2015-04-11T15:03:14Z</time>
      </trkpt>
      <trkpt lat="46.10307" lon="3.48462">
        <ele>386.28</ele>
        <time>2015-04-11T15:03:17Z</time>
      </trkpt>
      <trkpt lat="46.10295" lon="3.48438">
        <ele>386.52</ele>
        <time>2015-04-11T15:03:20Z</time>
      </trkpt>
      <trkpt lat="46.10281" lon="3.48415">
        <ele>386.55</ele>
        <time>2015-04-11T15:03:23Z</time>
      </trkpt>
      <trkpt lat="46.10267" lon="3.48391">
        <ele>387.05</ele>
        <time>2015-04-11T15:03:26Z</time>
      </trkpt>
      <trkpt lat="46.10253" lon="3.48372">
        <ele>387.52</ele>
        <time>2015-04-11T15:03:30Z</time>
      </trkpt>
      <trkpt lat="46.1024" lon="3.48352">
        <ele>387.55</ele>
        <time>2015-04-11T15:03:36Z</time>
      </trkpt>
      <trkpt lat="46.10228" lon="3.48331">
        <ele>388.05</ele>
        <time>2015-04-11T15:03:42Z</time>
      </trkpt>
      <trkpt lat="46.10216" lon="3.4831">
        <ele>388.55</ele>
        <time>2015-04-11T15:03:49Z</time>
      </trkpt>
      <trkpt lat="46.10203" lon="3.4829">
        <ele>390.04</ele>
        <time>2015-04-11T15:03:56Z</time>
      </trkpt>
      <trkpt lat="46.10187" lon="3.48273">
        <ele>390.54</ele>
        <time>2015-04-11T15:04:02Z</time>
      </trkpt>
      <trkpt lat="46.10171" lon="3.4826">
        <ele>389.8</ele>
        <time>2015-04-11T15:04:08Z</time>
      </trkpt>
      <trkpt lat="46.10148" lon="3.48247">
        <ele>388.08</ele>
        <time>2015-04-11T15:04:17Z</time>
      </trkpt>
      <trkpt lat="46.1013" lon="3.48234">
        <ele>386.59</ele>
        <time>2015-04-11T15:04:25Z</time>
      </trkpt>
      <trkpt lat="46.10116" lon="3.48217">
        <ele>383.55</ele>
        <time>2015-04-11T15:04:40Z</time>
      </trkpt>
      <trkpt lat="46.1011" lon="3.48192">
        <ele>379.56</ele>
        <time>2015-04-11T15:04:59Z</time>
      </trkpt>
      <trkpt lat="46.10104" lon="3.48166">
        <ele>377.56</ele>
        <time>2015-04-11T15:05:12Z</time>
      </trkpt>
      <trkpt lat="46.10094" lon="3.48142">
        <ele>378.05</ele>
        <time>2015-04-11T15:05:23Z</time>
      </trkpt>
      <trkpt lat="46.10081" lon="3.48121">
        <ele>378.55</ele>
        <time>2015-04-11T15:05:37Z</time>
      </trkpt>
      <trkpt lat="46.10067" lon="3.48101">
        <ele>378.55</ele>
        <time>2015-04-11T15:05:49Z</time>
      </trkpt>
      <trkpt lat="46.10055" lon="3.48078">
        <ele>379.55</ele>
        <time>2015-04-11T15:06:01Z</time>
      </trkpt>
      <trkpt lat="46.10042" lon="3.48058">
        <ele>379.55</ele>
        <time>2015-04-11T15:06:14Z</time>
      </trkpt>
      <trkpt lat="46.1003" lon="3.48035">
        <ele>380.55</ele>
        <time>2015-04-11T15:06:28Z</time>
      </trkpt>
      <trkpt lat="46.10022" lon="3.48011">
        <ele>381.55</ele>
        <time>2015-04-11T15:06:47Z</time>
      </trkpt>
      <trkpt lat="46.10019" lon="3.47986">
        <ele>382.55</ele>
        <time>2015-04-11T15:06:59Z</time>
      </trkpt>
      <trkpt lat="46.10021" lon="3.47955">
        <ele>383.55</ele>
        <time>2015-04-11T15:07:10Z</time>
      </trkpt>
      <trkpt lat="46.10023" lon="3.47928">
        <ele>384.55</ele>
        <time>2015-04-11T15:07:20Z</time>
      </trkpt>
      <trkpt lat="46.10022" lon="3.479">
        <ele>385.52</ele>
        <time>2015-04-11T15:07:27Z</time>
      </trkpt>
      <trkpt lat="46.10021" lon="3.4787">
        <ele>386.49</ele>
        <time>2015-04-11T15:07:34Z</time>
      </trkpt>
      <trkpt lat="46.10016" lon="3.47844">
        <ele>387.49</ele>
        <time>2015-04-11T15:07:42Z</time>
      </trkpt>
      <trkpt lat="46.10007" lon="3.4782">
        <ele>388.49</ele>
        <time>2015-04-11T15:07:51Z</time>
      </trkpt>
      <trkpt lat="46.09998" lon="3.47797">
        <ele>388.55</ele>
        <time>2015-04-11T15:08:00Z</time>
      </trkpt>
      <trkpt lat="46.0999" lon="3.47773">
        <ele>389.52</ele>
        <time>2015-04-11T15:08:09Z</time>
      </trkpt>
      <trkpt lat="46.09985" lon="3.47747">
        <ele>390.54</ele>
        <time>2015-04-11T15:08:19Z</time>
      </trkpt>
      <trkpt lat="46.09977" lon="3.47724">
        <ele>390.55</ele>
        <time>2015-04-11T15:08:28Z</time>
      </trkpt>
      <trkpt lat="46.0997" lon="3.47696">
        <ele>390.55</ele>
        <time>2015-04-11T15:08:38Z</time>
      </trkpt>
      <trkpt lat="46.09959" lon="3.47674">
        <ele>390.55</ele>
        <time>2015-04-11T15:08:47Z</time>
      </trkpt>
      <trkpt lat="46.09951" lon="3.47651">
        <ele>390.55</ele>
        <time>2015-04-11T15:08:54Z</time>
      </trkpt>
      <trkpt lat="46.09944" lon="3.47625">
        <ele>391.54</ele>
        <time>2015-04-11T15:09:02Z</time>
      </trkpt>
      <trkpt lat="46.09943" lon="3.47597">
        <ele>391.55</ele>
        <time>2015-04-11T15:09:14Z</time>
      </trkpt>
      <trkpt lat="46.09962" lon="3.47593">
        <ele>390.57</ele>
        <time>2015-04-11T15:09:26Z</time>
      </trkpt>
      <trkpt lat="46.0998" lon="3.47593">
        <ele>391.52</ele>
        <time>2015-04-11T15:09:33Z</time>
      </trkpt>
      <trkpt lat="46.1" lon="3.47591">
        <ele>392.43</ele>
        <time>2015-04-11T15:09:41Z</time>
      </trkpt>
      <trkpt lat="46.10019" lon="3.47591">
        <ele>392.55</ele>
        <time>2015-04-11T15:09:47Z</time>
      </trkpt>
      <trkpt lat="46.10039" lon="3.47586">
        <ele>393.55</ele>
        <time>2015-04-11T15:09:55Z</time>
      </trkpt>
      <trkpt lat="46.10057" lon="3.47574">
        <ele>393.55</ele>
        <time>2015-04-11T15:10:02Z</time>
      </trkpt>
      <trkpt lat="46.10074" lon="3.47561">
        <ele>393.55</ele>
        <time>2015-04-11T15:10:08Z</time>
      </trkpt>
      <trkpt lat="46.10091" lon="3.4755">
        <ele>393.55</ele>
        <time>2015-04-11T15:10:13Z</time>
      </trkpt>
      <trkpt lat="46.10107" lon="3.47537">
        <ele>394.93</ele>
        <time>2015-04-11T15:10:17Z</time>
      </trkpt>
      <trkpt lat="46.10114" lon="3.47509">
        <ele>395.53</ele>
        <time>2015-04-11T15:10:22Z</time>
      </trkpt>
      <trkpt lat="46.10119" lon="3.47483">
        <ele>395.55</ele>
        <time>2015-04-11T15:10:27Z</time>
      </trkpt>
      <trkpt lat="46.10122" lon="3.47456">
        <ele>395.55</ele>
        <time>2015-04-11T15:10:33Z</time>
      </trkpt>
      <trkpt lat="46.10125" lon="3.47428">
        <ele>395.55</ele>
        <time>2015-04-11T15:10:39Z</time>
      </trkpt>
      <trkpt lat="46.10135" lon="3.47404">
        <ele>395.55</ele>
        <time>2015-04-11T15:10:45Z</time>
      </trkpt>
      <trkpt lat="46.10147" lon="3.4738">
        <ele>395.55</ele>
        <time>2015-04-11T15:10:50Z</time>
      </trkpt>
      <trkpt lat="46.10158" lon="3.47357">
        <ele>395.55</ele>
        <time>2015-04-11T15:10:55Z</time>
      </trkpt>
      <trkpt lat="46.10169" lon="3.47333">
        <ele>395.55</ele>
        <time>2015-04-11T15:11:00Z</time>
      </trkpt>
      <trkpt lat="46.1018" lon="3.47307">
        <ele>395.55</ele>
        <time>2015-04-11T15:11:06Z</time>
      </trkpt>
      <trkpt lat="46.10191" lon="3.47286">
        <ele>395.55</ele>
        <time>2015-04-11T15:11:11Z</time>
      </trkpt>
      <trkpt lat="46.102" lon="3.47262">
        <ele>395.55</ele>
        <time>2015-04-11T15:11:17Z</time>
      </trkpt>
      <trkpt lat="46.10212" lon="3.47239">
        <ele>395.55</ele>
        <time>2015-04-11T15:11:23Z</time>
      </trkpt>
      <trkpt lat="46.10224" lon="3.47217">
        <ele>395.55</ele>
        <time>2015-04-11T15:11:29Z</time>
      </trkpt>
      <trkpt lat="46.10237" lon="3.47198">
        <ele>395.55</ele>
        <time>2015-04-11T15:11:40Z</time>
      </trkpt>
      <trkpt lat="46.10251" lon="3.47177">
        <ele>395.55</ele>
        <time>2015-04-11T15:11:49Z</time>
      </trkpt>
      <trkpt lat="46.10265" lon="3.47153">
        <ele>395.55</ele>
        <time>2015-04-11T15:11:56Z</time>
      </trkpt>
      <trkpt lat="46.10277" lon="3.47134">
        <ele>395.55</ele>
        <time>2015-04-11T15:12:01Z</time>
      </trkpt>
      <trkpt lat="46.10296" lon="3.47116">
        <ele>395.55</ele>
        <time>2015-04-11T15:12:07Z</time>
      </trkpt>
      <trkpt lat="46.10313" lon="3.47104">
        <ele>395.55</ele>
        <time>2015-04-11T15:12:13Z</time>
      </trkpt>
      <trkpt lat="46.10331" lon="3.47093">
        <ele>395.55</ele>
        <time>2015-04-11T15:12:20Z</time>
      </trkpt>
      <trkpt lat="46.10335" lon="3.47067">
        <ele>395.55</ele>
        <time>2015-04-11T15:12:31Z</time>
      </trkpt>
      <trkpt lat="46.10328" lon="3.47041">
        <ele>395.55</ele>
        <time>2015-04-11T15:12:41Z</time>
      </trkpt>
      <trkpt lat="46.10321" lon="3.47016">
        <ele>395.55</ele>
        <time>2015-04-11T15:12:51Z</time>
      </trkpt>
      <trkpt lat="46.10314" lon="3.46992">
        <ele>394.58</ele>
        <time>2015-04-11T15:13:01Z</time>
      </trkpt>
      <trkpt lat="46.10306" lon="3.46968">
        <ele>394.55</ele>
        <time>2015-04-11T15:13:10Z</time>
      </trkpt>
      <trkpt lat="46.10303" lon="3.46943">
        <ele>394.55</ele>
        <time>2015-04-11T15:13:22Z</time>
      </trkpt>
      <trkpt lat="46.10322" lon="3.46936">
        <ele>394.55</ele>
        <time>2015-04-11T15:13:31Z</time>
      </trkpt>
      <trkpt lat="46.10341" lon="3.46932">
        <ele>394.55</ele>
        <time>2015-04-11T15:13:38Z</time>
      </trkpt>
      <trkpt lat="46.1036" lon="3.46926">
        <ele>395.43</ele>
        <time>2015-04-11T15:13:45Z</time>
      </trkpt>
      <trkpt lat="46.1038" lon="3.46919">
        <ele>395.55</ele>
        <time>2015-04-11T15:13:52Z</time>
      </trkpt>
      <trkpt lat="46.10399" lon="3.46913">
        <ele>396.3</ele>
        <time>2015-04-11T15:13:58Z</time>
      </trkpt>
      <trkpt lat="46.10417" lon="3.46904">
        <ele>396.55</ele>
        <time>2015-04-11T15:14:04Z</time>
      </trkpt>
      <trkpt lat="46.10435" lon="3.46893">
        <ele>397.54</ele>
        <time>2015-04-11T15:14:10Z</time>
      </trkpt>
      <trkpt lat="46.10452" lon="3.46885">
        <ele>398.49</ele>
        <time>2015-04-11T15:14:16Z</time>
      </trkpt>
      <trkpt lat="46.10471" lon="3.46878">
        <ele>399.43</ele>
        <time>2015-04-11T15:14:22Z</time>
      </trkpt>
      <trkpt lat="46.10489" lon="3.46874">
        <ele>400.3</ele>
        <time>2015-04-11T15:14:28Z</time>
      </trkpt>
      <trkpt lat="46.10507" lon="3.4687">
        <ele>400.55</ele>
        <time>2015-04-11T15:14:33Z</time>
      </trkpt>
      <trkpt lat="46.10527" lon="3.46861">
        <ele>405.55</ele>
        <time>2015-04-11T15:14:38Z</time>
      </trkpt>
      <trkpt lat="46.10548" lon="3.46853">
        <ele>407.87</ele>
        <time>2015-04-11T15:14:42Z</time>
      </trkpt>
      <trkpt lat="46.10565" lon="3.4684">
        <ele>408.54</ele>
        <time>2015-04-11T15:14:48Z</time>
      </trkpt>
      <trkpt lat="46.10582" lon="3.46825">
        <ele>408.55</ele>
        <time>2015-04-11T15:14:54Z</time>
      </trkpt>
      <trkpt lat="46.106" lon="3.46814">
        <ele>408.55</ele>
        <time>2015-04-11T15:15:00Z</time>
      </trkpt>
      <trkpt lat="46.1062" lon="3.4681">
        <ele>408.55</ele>
        <time>2015-04-11T15:15:05Z</time>
      </trkpt>
      <trkpt lat="46.10639" lon="3.46807">
        <ele>408.55</ele>
        <time>2015-04-11T15:15:09Z</time>
      </trkpt>
      <trkpt lat="46.10657" lon="3.46803">
        <ele>408.55</ele>
        <time>2015-04-11T15:15:12Z</time>
      </trkpt>
      <trkpt lat="46.10675" lon="3.46799">
        <ele>409.05</ele>
        <time>2015-04-11T15:15:15Z</time>
      </trkpt>
      <trkpt lat="46.10695" lon="3.46782">
        <ele>409.52</ele>
        <time>2015-04-11T15:15:19Z</time>
      </trkpt>
      <trkpt lat="46.10709" lon="3.46758">
        <ele>409.05</ele>
        <time>2015-04-11T15:15:24Z</time>
      </trkpt>
      <trkpt lat="46.10722" lon="3.46737">
        <ele>408.08</ele>
        <time>2015-04-11T15:15:28Z</time>
      </trkpt>
      <trkpt lat="46.10732" lon="3.46715">
        <ele>406.87</ele>
        <time>2015-04-11T15:15:31Z</time>
      </trkpt>
      <trkpt lat="46.10745" lon="3.46685">
        <ele>405.14</ele>
        <time>2015-04-11T15:15:35Z</time>
      </trkpt>
      <trkpt lat="46.10758" lon="3.46659">
        <ele>404.59</ele>
        <time>2015-04-11T15:15:39Z</time>
      </trkpt>
      <trkpt lat="46.1077" lon="3.46636">
        <ele>404.56</ele>
        <time>2015-04-11T15:15:43Z</time>
      </trkpt>
      <trkpt lat="46.10781" lon="3.46612">
        <ele>405.05</ele>
        <time>2015-04-11T15:15:47Z</time>
      </trkpt>
      <trkpt lat="46.10782" lon="3.46584">
        <ele>406.29</ele>
        <time>2015-04-11T15:15:52Z</time>
      </trkpt>
      <trkpt lat="46.10778" lon="3.46559">
        <ele>407.47</ele>
        <time>2015-04-11T15:15:56Z</time>
      </trkpt>
      <trkpt lat="46.10774" lon="3.46529">
        <ele>407.55</ele>
        <time>2015-04-11T15:16:01Z</time>
      </trkpt>
      <trkpt lat="46.10788" lon="3.46507">
        <ele>408.55</ele>
        <time>2015-04-11T15:16:09Z</time>
      </trkpt>
      <trkpt lat="46.10811" lon="3.46505">
        <ele>415.37</ele>
        <time>2015-04-11T15:16:14Z</time>
      </trkpt>
      <trkpt lat="46.1083" lon="3.46501">
        <ele>418.17</ele>
        <time>2015-04-11T15:16:18Z</time>
      </trkpt>
      <trkpt lat="46.10849" lon="3.46498">
        <ele>418.55</ele>
        <time>2015-04-11T15:16:24Z</time>
      </trkpt>
      <trkpt lat="46.10868" lon="3.46494">
        <ele>418.55</ele>
        <time>2015-04-11T15:16:29Z</time>
      </trkpt>
      <trkpt lat="46.10889" lon="3.4649">
        <ele>417.18</ele>
        <time>2015-04-11T15:16:34Z</time>
      </trkpt>
      <trkpt lat="46.10907" lon="3.46483">
        <ele>415.88</ele>
        <time>2015-04-11T15:16:37Z</time>
      </trkpt>
      <trkpt lat="46.1093" lon="3.46479">
        <ele>414.84</ele>
        <time>2015-04-11T15:16:40Z</time>
      </trkpt>
      <trkpt lat="46.10952" lon="3.46475">
        <ele>413.84</ele>
        <time>2015-04-11T15:16:43Z</time>
      </trkpt>
      <trkpt lat="46.10975" lon="3.46475">
        <ele>413.09</ele>
        <time>2015-04-11T15:16:46Z</time>
      </trkpt>
      <trkpt lat="46.10998" lon="3.46473">
        <ele>412.62</ele>
        <time>2015-04-11T15:16:49Z</time>
      </trkpt>
      <trkpt lat="46.11019" lon="3.46471">
        <ele>412.06</ele>
        <time>2015-04-11T15:16:52Z</time>
      </trkpt>
      <trkpt lat="46.1104" lon="3.46468">
        <ele>410.83</ele>
        <time>2015-04-11T15:16:56Z</time>
      </trkpt>
      <trkpt lat="46.11062" lon="3.46468">
        <ele>409.59</ele>
        <time>2015-04-11T15:17:01Z</time>
      </trkpt>
      <trkpt lat="46.1108" lon="3.46471">
        <ele>408.59</ele>
        <time>2015-04-11T15:17:06Z</time>
      </trkpt>
      <trkpt lat="46.111" lon="3.46477">
        <ele>408.55</ele>
        <time>2015-04-11T15:17:12Z</time>
      </trkpt>
      <trkpt lat="46.11119" lon="3.46483">
        <ele>408.55</ele>
        <time>2015-04-11T15:17:17Z</time>
      </trkpt>
      <trkpt lat="46.11139" lon="3.46488">
        <ele>408.55</ele>
        <time>2015-04-11T15:17:22Z</time>
      </trkpt>
      <trkpt lat="46.11161" lon="3.46488">
        <ele>409.3</ele>
        <time>2015-04-11T15:17:27Z</time>
      </trkpt>
      <trkpt lat="46.11181" lon="3.46486">
        <ele>409.55</ele>
        <time>2015-04-11T15:17:32Z</time>
      </trkpt>
      <trkpt lat="46.11202" lon="3.46481">
        <ele>409.55</ele>
        <time>2015-04-11T15:17:38Z</time>
      </trkpt>
      <trkpt lat="46.11222" lon="3.46479">
        <ele>407.43</ele>
        <time>2015-04-11T15:17:42Z</time>
      </trkpt>
      <trkpt lat="46.11243" lon="3.46477">
        <ele>406.23</ele>
        <time>2015-04-11T15:17:46Z</time>
      </trkpt>
      <trkpt lat="46.11264" lon="3.46479">
        <ele>406.54</ele>
        <time>2015-04-11T15:17:51Z</time>
      </trkpt>
      <trkpt lat="46.11284" lon="3.46479">
        <ele>405.61</ele>
        <time>2015-04-11T15:17:55Z</time>
      </trkpt>
      <trkpt lat="46.11302" lon="3.46479">
        <ele>404.81</ele>
        <time>2015-04-11T15:17:59Z</time>
      </trkpt>
      <trkpt lat="46.11321" lon="3.46481">
        <ele>403.82</ele>
        <time>2015-04-11T15:18:03Z</time>
      </trkpt>
      <trkpt lat="46.11341" lon="3.46481">
        <ele>403.07</ele>
        <time>2015-04-11T15:18:07Z</time>
      </trkpt>
      <trkpt lat="46.1136" lon="3.46483">
        <ele>402.57</ele>
        <time>2015-04-11T15:18:12Z</time>
      </trkpt>
      <trkpt lat="46.11378" lon="3.46486">
        <ele>402.55</ele>
        <time>2015-04-11T15:18:19Z</time>
      </trkpt>
      <trkpt lat="46.11399" lon="3.46505">
        <ele>402.55</ele>
        <time>2015-04-11T15:18:24Z</time>
      </trkpt>
      <trkpt lat="46.1142" lon="3.46514">
        <ele>402.05</ele>
        <time>2015-04-11T15:18:27Z</time>
      </trkpt>
      <trkpt lat="46.11443" lon="3.46509">
        <ele>400.87</ele>
        <time>2015-04-11T15:18:30Z</time>
      </trkpt>
      <trkpt lat="46.11461" lon="3.46505">
        <ele>399.22</ele>
        <time>2015-04-11T15:18:33Z</time>
      </trkpt>
      <trkpt lat="46.11482" lon="3.46498">
        <ele>396.97</ele>
        <time>2015-04-11T15:18:37Z</time>
      </trkpt>
      <trkpt lat="46.11501" lon="3.46486">
        <ele>395.14</ele>
        <time>2015-04-11T15:18:41Z</time>
      </trkpt>
      <trkpt lat="46.11517" lon="3.46468">
        <ele>393.63</ele>
        <time>2015-04-11T15:18:46Z</time>
      </trkpt>
      <trkpt lat="46.11534" lon="3.46451">
        <ele>393.56</ele>
        <time>2015-04-11T15:18:51Z</time>
      </trkpt>
      <trkpt lat="46.11549" lon="3.46432">
        <ele>392.62</ele>
        <time>2015-04-11T15:18:55Z</time>
      </trkpt>
      <trkpt lat="46.11567" lon="3.46411">
        <ele>392.06</ele>
        <time>2015-04-11T15:18:59Z</time>
      </trkpt>
      <trkpt lat="46.11586" lon="3.46391">
        <ele>391.58</ele>
        <time>2015-04-11T15:19:03Z</time>
      </trkpt>
      <trkpt lat="46.11606" lon="3.46374">
        <ele>391.55</ele>
        <time>2015-04-11T15:19:07Z</time>
      </trkpt>
      <trkpt lat="46.11623" lon="3.46363">
        <ele>391.55</ele>
        <time>2015-04-11T15:19:11Z</time>
      </trkpt>
      <trkpt lat="46.1164" lon="3.46355">
        <ele>391.55</ele>
        <time>2015-04-11T15:19:15Z</time>
      </trkpt>
      <trkpt lat="46.11664" lon="3.46353">
        <ele>391.05</ele>
        <time>2015-04-11T15:19:19Z</time>
      </trkpt>
      <trkpt lat="46.11686" lon="3.46355">
        <ele>390.12</ele>
        <time>2015-04-11T15:19:22Z</time>
      </trkpt>
      <trkpt lat="46.11708" lon="3.46353">
        <ele>388.25</ele>
        <time>2015-04-11T15:19:25Z</time>
      </trkpt>
      <trkpt lat="46.11726" lon="3.4635">
        <ele>386.26</ele>
        <time>2015-04-11T15:19:28Z</time>
      </trkpt>
      <trkpt lat="46.11745" lon="3.4635">
        <ele>384.81</ele>
        <time>2015-04-11T15:19:35Z</time>
      </trkpt>
      <trkpt lat="46.11767" lon="3.46342">
        <ele>383.69</ele>
        <time>2015-04-11T15:19:40Z</time>
      </trkpt>
      <trkpt lat="46.11788" lon="3.46333">
        <ele>382.69</ele>
        <time>2015-04-11T15:19:44Z</time>
      </trkpt>
      <trkpt lat="46.11808" lon="3.46323">
        <ele>381.69</ele>
        <time>2015-04-11T15:19:48Z</time>
      </trkpt>
      <trkpt lat="46.1183" lon="3.46312">
        <ele>380.12</ele>
        <time>2015-04-11T15:19:52Z</time>
      </trkpt>
      <trkpt lat="46.11847" lon="3.46303">
        <ele>379.12</ele>
        <time>2015-04-11T15:19:55Z</time>
      </trkpt>
      <trkpt lat="46.11865" lon="3.46295">
        <ele>377.87</ele>
        <time>2015-04-11T15:19:58Z</time>
      </trkpt>
      <trkpt lat="46.11885" lon="3.46284">
        <ele>376.22</ele>
        <time>2015-04-11T15:20:01Z</time>
      </trkpt>
      <trkpt lat="46.11907" lon="3.46275">
        <ele>374.89</ele>
        <time>2015-04-11T15:20:04Z</time>
      </trkpt>
      <trkpt lat="46.11929" lon="3.46262">
        <ele>373.22</ele>
        <time>2015-04-11T15:20:07Z</time>
      </trkpt>
      <trkpt lat="46.11949" lon="3.46252">
        <ele>372.14</ele>
        <time>2015-04-11T15:20:10Z</time>
      </trkpt>
      <trkpt lat="46.11966" lon="3.46241">
        <ele>371.13</ele>
        <time>2015-04-11T15:20:13Z</time>
      </trkpt>
      <trkpt lat="46.11985" lon="3.46232">
        <ele>369.84</ele>
        <time>2015-04-11T15:20:17Z</time>
      </trkpt>
      <trkpt lat="46.12006" lon="3.46228">
        <ele>369.57</ele>
        <time>2015-04-11T15:20:21Z</time>
      </trkpt>
      <trkpt lat="46.12027" lon="3.46226">
        <ele>368.62</ele>
        <time>2015-04-11T15:20:25Z</time>
      </trkpt>
      <trkpt lat="46.1205" lon="3.46226">
        <ele>368.56</ele>
        <time>2015-04-11T15:20:29Z</time>
      </trkpt>
      <trkpt lat="46.12073" lon="3.46226">
        <ele>367.68</ele>
        <time>2015-04-11T15:20:33Z</time>
      </trkpt>
      <trkpt lat="46.12092" lon="3.46224">
        <ele>366.69</ele>
        <time>2015-04-11T15:20:36Z</time>
      </trkpt>
      <trkpt lat="46.12113" lon="3.46224">
        <ele>364.87</ele>
        <time>2015-04-11T15:20:40Z</time>
      </trkpt>
      <trkpt lat="46.12134" lon="3.46222">
        <ele>363.7</ele>
        <time>2015-04-11T15:20:44Z</time>
      </trkpt>
      <trkpt lat="46.12152" lon="3.46224">
        <ele>362.12</ele>
        <time>2015-04-11T15:20:48Z</time>
      </trkpt>
      <trkpt lat="46.12158" lon="3.46252">
        <ele>361.07</ele>
        <time>2015-04-11T15:20:53Z</time>
      </trkpt>
      <trkpt lat="46.12171" lon="3.46271">
        <ele>357.9</ele>
        <time>2015-04-11T15:20:59Z</time>
      </trkpt>
      <trkpt lat="46.1219" lon="3.46271">
        <ele>356.81</ele>
        <time>2015-04-11T15:21:04Z</time>
      </trkpt>
      <trkpt lat="46.12213" lon="3.46269">
        <ele>354.87</ele>
        <time>2015-04-11T15:21:09Z</time>
      </trkpt>
      <trkpt lat="46.12233" lon="3.46267">
        <ele>353.69</ele>
        <time>2015-04-11T15:21:14Z</time>
      </trkpt>
      <trkpt lat="46.12254" lon="3.46265">
        <ele>353.56</ele>
        <time>2015-04-11T15:21:19Z</time>
      </trkpt>
      <trkpt lat="46.12274" lon="3.46252">
        <ele>352.8</ele>
        <time>2015-04-11T15:21:24Z</time>
      </trkpt>
      <trkpt lat="46.1229" lon="3.46237">
        <ele>352.57</ele>
        <time>2015-04-11T15:21:28Z</time>
      </trkpt>
      <trkpt lat="46.12305" lon="3.46222">
        <ele>351.62</ele>
        <time>2015-04-11T15:21:32Z</time>
      </trkpt>
      <trkpt lat="46.12322" lon="3.46202">
        <ele>351.56</ele>
        <time>2015-04-11T15:21:36Z</time>
      </trkpt>
      <trkpt lat="46.12336" lon="3.46183">
        <ele>350.62</ele>
        <time>2015-04-11T15:21:40Z</time>
      </trkpt>
      <trkpt lat="46.12351" lon="3.46164">
        <ele>350.06</ele>
        <time>2015-04-11T15:21:44Z</time>
      </trkpt>
      <trkpt lat="46.12368" lon="3.46147">
        <ele>349.58</ele>
        <time>2015-04-11T15:21:48Z</time>
      </trkpt>
      <trkpt lat="46.12387" lon="3.46136">
        <ele>348.68</ele>
        <time>2015-04-11T15:21:52Z</time>
      </trkpt>
      <trkpt lat="46.12406" lon="3.46125">
        <ele>348.56</ele>
        <time>2015-04-11T15:21:56Z</time>
      </trkpt>
      <trkpt lat="46.12424" lon="3.46114">
        <ele>347.62</ele>
        <time>2015-04-11T15:22:00Z</time>
      </trkpt>
      <trkpt lat="46.12445" lon="3.46114">
        <ele>346.59</ele>
        <time>2015-04-11T15:22:05Z</time>
      </trkpt>
      <trkpt lat="46.12465" lon="3.46114">
        <ele>346.55</ele>
        <time>2015-04-11T15:22:10Z</time>
      </trkpt>
      <trkpt lat="46.12486" lon="3.4611">
        <ele>346.55</ele>
        <time>2015-04-11T15:22:15Z</time>
      </trkpt>
      <trkpt lat="46.12507" lon="3.46099">
        <ele>347.52</ele>
        <time>2015-04-11T15:22:20Z</time>
      </trkpt>
      <trkpt lat="46.12522" lon="3.46084">
        <ele>347.55</ele>
        <time>2015-04-11T15:22:24Z</time>
      </trkpt>
      <trkpt lat="46.12534" lon="3.46061">
        <ele>348.49</ele>
        <time>2015-04-11T15:22:29Z</time>
      </trkpt>
      <trkpt lat="46.12541" lon="3.46031">
        <ele>348.05</ele>
        <time>2015-04-11T15:22:35Z</time>
      </trkpt>
      <trkpt lat="46.12552" lon="3.46005">
        <ele>347.57</ele>
        <time>2015-04-11T15:22:40Z</time>
      </trkpt>
      <trkpt lat="46.12568" lon="3.45988">
        <ele>347.55</ele>
        <time>2015-04-11T15:22:47Z</time>
      </trkpt>
      <trkpt lat="46.12585" lon="3.45996">
        <ele>347.55</ele>
        <time>2015-04-11T15:22:52Z</time>
      </trkpt>
      <trkpt lat="46.12602" lon="3.46005">
        <ele>347.55</ele>
        <time>2015-04-11T15:22:57Z</time>
      </trkpt>
      <trkpt lat="46.12623" lon="3.46005">
        <ele>347.55</ele>
        <time>2015-04-11T15:23:04Z</time>
      </trkpt>
      <trkpt lat="46.12647" lon="3.46007">
        <ele>349.05</ele>
        <time>2015-04-11T15:23:20Z</time>
      </trkpt>
      <trkpt lat="46.12665" lon="3.4599">
        <ele>350.05</ele>
        <time>2015-04-11T15:23:28Z</time>
      </trkpt>
      <trkpt lat="46.1268" lon="3.45975">
        <ele>350.55</ele>
        <time>2015-04-11T15:23:35Z</time>
      </trkpt>
      <trkpt lat="46.12698" lon="3.45962">
        <ele>350.55</ele>
        <time>2015-04-11T15:23:41Z</time>
      </trkpt>
      <trkpt lat="46.12718" lon="3.45947">
        <ele>349.8</ele>
        <time>2015-04-11T15:23:46Z</time>
      </trkpt>
      <trkpt lat="46.12739" lon="3.45934">
        <ele>348.69</ele>
        <time>2015-04-11T15:23:50Z</time>
      </trkpt>
      <trkpt lat="46.12757" lon="3.45921">
        <ele>347.07</ele>
        <time>2015-04-11T15:23:56Z</time>
      </trkpt>
      <trkpt lat="46.1278" lon="3.45915">
        <ele>344.19</ele>
        <time>2015-04-11T15:24:02Z</time>
      </trkpt>
      <trkpt lat="46.12801" lon="3.45893">
        <ele>342.88</ele>
        <time>2015-04-11T15:24:05Z</time>
      </trkpt>
      <trkpt lat="46.12823" lon="3.45887">
        <ele>339.31</ele>
        <time>2015-04-11T15:24:11Z</time>
      </trkpt>
      <trkpt lat="46.12843" lon="3.45881">
        <ele>335.23</ele>
        <time>2015-04-11T15:24:15Z</time>
      </trkpt>
      <trkpt lat="46.12858" lon="3.45861">
        <ele>325.85</ele>
        <time>2015-04-11T15:24:19Z</time>
      </trkpt>
      <trkpt lat="46.12876" lon="3.45848">
        <ele>317.82</ele>
        <time>2015-04-11T15:24:25Z</time>
      </trkpt>
      <trkpt lat="46.12892" lon="3.45861">
        <ele>312.09</ele>
        <time>2015-04-11T15:24:28Z</time>
      </trkpt>
      <trkpt lat="46.12907" lon="3.45878">
        <ele>308.34</ele>
        <time>2015-04-11T15:24:32Z</time>
      </trkpt>
      <trkpt lat="46.12911" lon="3.45904">
        <ele>309.08</ele>
        <time>2015-04-11T15:24:37Z</time>
      </trkpt>
      <trkpt lat="46.12925" lon="3.45921">
        <ele>308.24</ele>
        <time>2015-04-11T15:24:40Z</time>
      </trkpt>
      <trkpt lat="46.12945" lon="3.45932">
        <ele>305.57</ele>
        <time>2015-04-11T15:24:47Z</time>
      </trkpt>
      <trkpt lat="46.12966" lon="3.45943">
        <ele>302.06</ele>
        <time>2015-04-11T15:24:59Z</time>
      </trkpt>
      <trkpt lat="46.12984" lon="3.45949">
        <ele>299.77</ele>
        <time>2015-04-11T15:25:03Z</time>
      </trkpt>
      <trkpt lat="46.13005" lon="3.45945">
        <ele>290.69</ele>
        <time>2015-04-11T15:25:07Z</time>
      </trkpt>
      <trkpt lat="46.13023" lon="3.45943">
        <ele>287.74</ele>
        <time>2015-04-11T15:25:12Z</time>
      </trkpt>
      <trkpt lat="46.13041" lon="3.45941">
        <ele>286.81</ele>
        <time>2015-04-11T15:25:17Z</time>
      </trkpt>
      <trkpt lat="46.13059" lon="3.45938">
        <ele>285.62</ele>
        <time>2015-04-11T15:25:23Z</time>
      </trkpt>
      <trkpt lat="46.13077" lon="3.45928">
        <ele>283.69</ele>
        <time>2015-04-11T15:25:30Z</time>
      </trkpt>
      <trkpt lat="46.13098" lon="3.45913">
        <ele>282.08</ele>
        <time>2015-04-11T15:25:41Z</time>
      </trkpt>
      <trkpt lat="46.13116" lon="3.45906">
        <ele>281.55</ele>
        <time>2015-04-11T15:25:50Z</time>
      </trkpt>
      <trkpt lat="46.13136" lon="3.45906">
        <ele>281.55</ele>
        <time>2015-04-11T15:25:56Z</time>
      </trkpt>
      <trkpt lat="46.13155" lon="3.45911">
        <ele>281.55</ele>
        <time>2015-04-11T15:26:02Z</time>
      </trkpt>
      <trkpt lat="46.13173" lon="3.45917">
        <ele>282.05</ele>
        <time>2015-04-11T15:26:08Z</time>
      </trkpt>
      <trkpt lat="46.13191" lon="3.45923">
        <ele>282.54</ele>
        <time>2015-04-11T15:26:13Z</time>
      </trkpt>
      <trkpt lat="46.13216" lon="3.45934">
        <ele>282.55</ele>
        <time>2015-04-11T15:26:25Z</time>
      </trkpt>
      <trkpt lat="46.13234" lon="3.45941">
        <ele>283.49</ele>
        <time>2015-04-11T15:26:31Z</time>
      </trkpt>
      <trkpt lat="46.13254" lon="3.45947">
        <ele>284.43</ele>
        <time>2015-04-11T15:26:37Z</time>
      </trkpt>
      <trkpt lat="46.13275" lon="3.45953">
        <ele>286.02</ele>
        <time>2015-04-11T15:26:43Z</time>
      </trkpt>
      <trkpt lat="46.13293" lon="3.4596">
        <ele>286.54</ele>
        <time>2015-04-11T15:26:49Z</time>
      </trkpt>
      <trkpt lat="46.13307" lon="3.45941">
        <ele>285.8</ele>
        <time>2015-04-11T15:26:55Z</time>
      </trkpt>
      <trkpt lat="46.13323" lon="3.45921">
        <ele>284.59</ele>
        <time>2015-04-11T15:27:00Z</time>
      </trkpt>
      <trkpt lat="46.13339" lon="3.459">
        <ele>283.8</ele>
        <time>2015-04-11T15:27:05Z</time>
      </trkpt>
      <trkpt lat="46.13354" lon="3.45876">
        <ele>283.57</ele>
        <time>2015-04-11T15:27:09Z</time>
      </trkpt>
      <trkpt lat="46.13369" lon="3.45853">
        <ele>280.49</ele>
        <time>2015-04-11T15:27:13Z</time>
      </trkpt>
      <trkpt lat="46.13383" lon="3.45833">
        <ele>278.74</ele>
        <time>2015-04-11T15:27:17Z</time>
      </trkpt>
      <trkpt lat="46.13395" lon="3.45812">
        <ele>278.38</ele>
        <time>2015-04-11T15:27:21Z</time>
      </trkpt>
      <trkpt lat="46.13408" lon="3.45788">
        <ele>279.3</ele>
        <time>2015-04-11T15:27:26Z</time>
      </trkpt>
      <trkpt lat="46.13421" lon="3.45765">
        <ele>280.48</ele>
        <time>2015-04-11T15:27:31Z</time>
      </trkpt>
      <trkpt lat="46.13435" lon="3.45747">
        <ele>281.55</ele>
        <time>2015-04-11T15:27:39Z</time>
      </trkpt>
      <trkpt lat="46.13443" lon="3.45722">
        <ele>281.55</ele>
        <time>2015-04-11T15:27:45Z</time>
      </trkpt>
      <trkpt lat="46.13451" lon="3.45696">
        <ele>281.55</ele>
        <time>2015-04-11T15:27:50Z</time>
      </trkpt>
      <trkpt lat="46.1346" lon="3.45672">
        <ele>281.55</ele>
        <time>2015-04-11T15:27:55Z</time>
      </trkpt>
      <trkpt lat="46.13476" lon="3.45642">
        <ele>281.55</ele>
        <time>2015-04-11T15:28:03Z</time>
      </trkpt>
      <trkpt lat="46.13486" lon="3.45617">
        <ele>281.55</ele>
        <time>2015-04-11T15:28:09Z</time>
      </trkpt>
      <trkpt lat="46.13506" lon="3.45606">
        <ele>282.3</ele>
        <time>2015-04-11T15:28:14Z</time>
      </trkpt>
      <trkpt lat="46.13524" lon="3.45597">
        <ele>282.55</ele>
        <time>2015-04-11T15:28:19Z</time>
      </trkpt>
      <trkpt lat="46.13541" lon="3.45587">
        <ele>282.55</ele>
        <time>2015-04-11T15:28:24Z</time>
      </trkpt>
      <trkpt lat="46.1356" lon="3.45578">
        <ele>283.49</ele>
        <time>2015-04-11T15:28:30Z</time>
      </trkpt>
      <trkpt lat="46.13581" lon="3.4558">
        <ele>282.8</ele>
        <time>2015-04-11T15:28:36Z</time>
      </trkpt>
      <trkpt lat="46.13599" lon="3.4558">
        <ele>281.31</ele>
        <time>2015-04-11T15:28:41Z</time>
      </trkpt>
      <trkpt lat="46.13618" lon="3.45582">
        <ele>280.2</ele>
        <time>2015-04-11T15:28:46Z</time>
      </trkpt>
      <trkpt lat="46.13637" lon="3.45582">
        <ele>281.48</ele>
        <time>2015-04-11T15:28:51Z</time>
      </trkpt>
      <trkpt lat="46.13656" lon="3.45565">
        <ele>282.55</ele>
        <time>2015-04-11T15:29:06Z</time>
      </trkpt>
      <trkpt lat="46.13656" lon="3.45535">
        <ele>282.55</ele>
        <time>2015-04-11T15:29:17Z</time>
      </trkpt>
      <trkpt lat="46.13661" lon="3.45509">
        <ele>282.55</ele>
        <time>2015-04-11T15:29:23Z</time>
      </trkpt>
      <trkpt lat="46.13666" lon="3.45484">
        <ele>282.55</ele>
        <time>2015-04-11T15:29:29Z</time>
      </trkpt>
      <trkpt lat="46.13672" lon="3.45456">
        <ele>282.55</ele>
        <time>2015-04-11T15:29:35Z</time>
      </trkpt>
      <trkpt lat="46.13677" lon="3.45428">
        <ele>283.3</ele>
        <time>2015-04-11T15:29:41Z</time>
      </trkpt>
      <trkpt lat="46.13684" lon="3.454">
        <ele>285.85</ele>
        <time>2015-04-11T15:29:45Z</time>
      </trkpt>
      <trkpt lat="46.13692" lon="3.45374">
        <ele>286.53</ele>
        <time>2015-04-11T15:29:50Z</time>
      </trkpt>
      <trkpt lat="46.13705" lon="3.45351">
        <ele>286.05</ele>
        <time>2015-04-11T15:29:57Z</time>
      </trkpt>
      <trkpt lat="46.13722" lon="3.45359">
        <ele>285.56</ele>
        <time>2015-04-11T15:30:04Z</time>
      </trkpt>
      <trkpt lat="46.1374" lon="3.45374">
        <ele>284.56</ele>
        <time>2015-04-11T15:30:11Z</time>
      </trkpt>
      <trkpt lat="46.13758" lon="3.45387">
        <ele>283.07</ele>
        <time>2015-04-11T15:30:17Z</time>
      </trkpt>
      <trkpt lat="46.13774" lon="3.45402">
        <ele>281.81</ele>
        <time>2015-04-11T15:30:23Z</time>
      </trkpt>
      <trkpt lat="46.13789" lon="3.45417">
        <ele>280.59</ele>
        <time>2015-04-11T15:30:30Z</time>
      </trkpt>
      <trkpt lat="46.13805" lon="3.4543">
        <ele>279.57</ele>
        <time>2015-04-11T15:30:36Z</time>
      </trkpt>
      <trkpt lat="46.13824" lon="3.45426">
        <ele>278.06</ele>
        <time>2015-04-11T15:30:43Z</time>
      </trkpt>
      <trkpt lat="46.13831" lon="3.45398">
        <ele>276.81</ele>
        <time>2015-04-11T15:30:50Z</time>
      </trkpt>
      <trkpt lat="46.13842" lon="3.45372">
        <ele>275.8</ele>
        <time>2015-04-11T15:30:57Z</time>
      </trkpt>
      <trkpt lat="46.13845" lon="3.45346">
        <ele>274.56</ele>
        <time>2015-04-11T15:31:02Z</time>
      </trkpt>
      <trkpt lat="46.13848" lon="3.45316">
        <ele>270.93</ele>
        <time>2015-04-11T15:31:07Z</time>
      </trkpt>
      <trkpt lat="46.13851" lon="3.45288">
        <ele>269.6</ele>
        <time>2015-04-11T15:31:12Z</time>
      </trkpt>
      <trkpt lat="46.13853" lon="3.4526">
        <ele>269.05</ele>
        <time>2015-04-11T15:31:17Z</time>
      </trkpt>
      <trkpt lat="46.13857" lon="3.4523">
        <ele>267.81</ele>
        <time>2015-04-11T15:31:23Z</time>
      </trkpt>
      <trkpt lat="46.13861" lon="3.45205">
        <ele>267.56</ele>
        <time>2015-04-11T15:31:28Z</time>
      </trkpt>
      <trkpt lat="46.13865" lon="3.45177">
        <ele>267.55</ele>
        <time>2015-04-11T15:31:34Z</time>
      </trkpt>
      <trkpt lat="46.13871" lon="3.45149">
        <ele>267.55</ele>
        <time>2015-04-11T15:31:39Z</time>
      </trkpt>
      <trkpt lat="46.13874" lon="3.45121">
        <ele>268.05</ele>
        <time>2015-04-11T15:31:44Z</time>
      </trkpt>
      <trkpt lat="46.13879" lon="3.45091">
        <ele>269.47</ele>
        <time>2015-04-11T15:31:49Z</time>
      </trkpt>
      <trkpt lat="46.13883" lon="3.45065">
        <ele>268.61</ele>
        <time>2015-04-11T15:31:53Z</time>
      </trkpt>
      <trkpt lat="46.13887" lon="3.45037">
        <ele>269.05</ele>
        <time>2015-04-11T15:31:58Z</time>
      </trkpt>
      <trkpt lat="46.13887" lon="3.45009">
        <ele>270.29</ele>
        <time>2015-04-11T15:32:03Z</time>
      </trkpt>
      <trkpt lat="46.13897" lon="3.44988">
        <ele>270.55</ele>
        <time>2015-04-11T15:32:09Z</time>
      </trkpt>
      <trkpt lat="46.13916" lon="3.44977">
        <ele>270.55</ele>
        <time>2015-04-11T15:32:15Z</time>
      </trkpt>
      <trkpt lat="46.13935" lon="3.44977">
        <ele>269.68</ele>
        <time>2015-04-11T15:32:21Z</time>
      </trkpt>
      <trkpt lat="46.13953" lon="3.44979">
        <ele>269.06</ele>
        <time>2015-04-11T15:32:26Z</time>
      </trkpt>
      <trkpt lat="46.13974" lon="3.44977">
        <ele>267.69</ele>
        <time>2015-04-11T15:32:31Z</time>
      </trkpt>
      <trkpt lat="46.13993" lon="3.44977">
        <ele>267.56</ele>
        <time>2015-04-11T15:32:36Z</time>
      </trkpt>
      <trkpt lat="46.14011" lon="3.44979">
        <ele>268.43</ele>
        <time>2015-04-11T15:32:41Z</time>
      </trkpt>
      <trkpt lat="46.14031" lon="3.44973">
        <ele>268.55</ele>
        <time>2015-04-11T15:32:49Z</time>
      </trkpt>
      <trkpt lat="46.14049" lon="3.44964">
        <ele>269.52</ele>
        <time>2015-04-11T15:32:55Z</time>
      </trkpt>
      <trkpt lat="46.14067" lon="3.44958">
        <ele>270.05</ele>
        <time>2015-04-11T15:33:01Z</time>
      </trkpt>
      <trkpt lat="46.14087" lon="3.44951">
        <ele>271.05</ele>
        <time>2015-04-11T15:33:08Z</time>
      </trkpt>
      <trkpt lat="46.14107" lon="3.44949">
        <ele>272.04</ele>
        <time>2015-04-11T15:33:13Z</time>
      </trkpt>
      <trkpt lat="46.14125" lon="3.44947">
        <ele>273.04</ele>
        <time>2015-04-11T15:33:19Z</time>
      </trkpt>
      <trkpt lat="46.14145" lon="3.44947">
        <ele>275.96</ele>
        <time>2015-04-11T15:33:27Z</time>
      </trkpt>
      <trkpt lat="46.14163" lon="3.44947">
        <ele>278.27</ele>
        <time>2015-04-11T15:33:34Z</time>
      </trkpt>
      <trkpt lat="46.14183" lon="3.44945">
        <ele>280.29</ele>
        <time>2015-04-11T15:33:41Z</time>
      </trkpt>
      <trkpt lat="46.14202" lon="3.44941">
        <ele>281.49</ele>
        <time>2015-04-11T15:33:47Z</time>
      </trkpt>
      <trkpt lat="46.1422" lon="3.44941">
        <ele>282.52</ele>
        <time>2015-04-11T15:33:54Z</time>
      </trkpt>
      <trkpt lat="46.1424" lon="3.44939">
        <ele>283.54</ele>
        <time>2015-04-11T15:34:01Z</time>
      </trkpt>
      <trkpt lat="46.14259" lon="3.44941">
        <ele>284.55</ele>
        <time>2015-04-11T15:34:09Z</time>
      </trkpt>
      <trkpt lat="46.14278" lon="3.44945">
        <ele>285.55</ele>
        <time>2015-04-11T15:34:16Z</time>
      </trkpt>
      <trkpt lat="46.143" lon="3.44947">
        <ele>285.55</ele>
        <time>2015-04-11T15:34:25Z</time>
      </trkpt>
      <trkpt lat="46.14318" lon="3.44943">
        <ele>286.54</ele>
        <time>2015-04-11T15:34:33Z</time>
      </trkpt>
      <trkpt lat="46.14332" lon="3.44924">
        <ele>286.55</ele>
        <time>2015-04-11T15:34:40Z</time>
      </trkpt>
      <trkpt lat="46.14343" lon="3.449">
        <ele>286.55</ele>
        <time>2015-04-11T15:34:48Z</time>
      </trkpt>
      <trkpt lat="46.14352" lon="3.44874">
        <ele>286.55</ele>
        <time>2015-04-11T15:34:56Z</time>
      </trkpt>
      <trkpt lat="46.1436" lon="3.44851">
        <ele>286.55</ele>
        <time>2015-04-11T15:35:03Z</time>
      </trkpt>
      <trkpt lat="46.14368" lon="3.44825">
        <ele>287.55</ele>
        <time>2015-04-11T15:35:11Z</time>
      </trkpt>
      <trkpt lat="46.14377" lon="3.44801">
        <ele>287.55</ele>
        <time>2015-04-11T15:35:19Z</time>
      </trkpt>
      <trkpt lat="46.14384" lon="3.44778">
        <ele>288.49</ele>
        <time>2015-04-11T15:35:26Z</time>
      </trkpt>
      <trkpt lat="46.14396" lon="3.44754">
        <ele>288.55</ele>
        <time>2015-04-11T15:35:35Z</time>
      </trkpt>
      <trkpt lat="46.14411" lon="3.44735">
        <ele>289.52</ele>
        <time>2015-04-11T15:35:44Z</time>
      </trkpt>
      <trkpt lat="46.14426" lon="3.44715">
        <ele>289.55</ele>
        <time>2015-04-11T15:35:53Z</time>
      </trkpt>
      <trkpt lat="46.14441" lon="3.447">
        <ele>290.55</ele>
        <time>2015-04-11T15:36:02Z</time>
      </trkpt>
      <trkpt lat="46.14461" lon="3.44696">
        <ele>291.55</ele>
        <time>2015-04-11T15:36:12Z</time>
      </trkpt>
      <trkpt lat="46.14479" lon="3.4469">
        <ele>293.05</ele>
        <time>2015-04-11T15:36:21Z</time>
      </trkpt>
      <trkpt lat="46.14497" lon="3.44681">
        <ele>294.49</ele>
        <time>2015-04-11T15:36:30Z</time>
      </trkpt>
      <trkpt lat="46.14515" lon="3.4467">
        <ele>295.55</ele>
        <time>2015-04-11T15:36:40Z</time>
      </trkpt>
      <trkpt lat="46.1453" lon="3.44655">
        <ele>297.3</ele>
        <time>2015-04-11T15:36:49Z</time>
      </trkpt>
      <trkpt lat="46.14543" lon="3.44636">
        <ele>298.52</ele>
        <time>2015-04-11T15:36:59Z</time>
      </trkpt>
      <trkpt lat="46.14556" lon="3.44617">
        <ele>299.54</ele>
        <time>2015-04-11T15:37:08Z</time>
      </trkpt>
      <trkpt lat="46.14571" lon="3.44595">
        <ele>300.43</ele>
        <time>2015-04-11T15:37:14Z</time>
      </trkpt>
      <trkpt lat="46.14586" lon="3.44576">
        <ele>301.3</ele>
        <time>2015-04-11T15:37:18Z</time>
      </trkpt>
      <trkpt lat="46.14602" lon="3.44554">
        <ele>301.54</ele>
        <time>2015-04-11T15:37:22Z</time>
      </trkpt>
      <trkpt lat="46.14617" lon="3.44533">
        <ele>303.24</ele>
        <time>2015-04-11T15:37:26Z</time>
      </trkpt>
      <trkpt lat="46.14632" lon="3.44509">
        <ele>305.35</ele>
        <time>2015-04-11T15:37:30Z</time>
      </trkpt>
      <trkpt lat="46.14646" lon="3.4449">
        <ele>306.48</ele>
        <time>2015-04-11T15:37:34Z</time>
      </trkpt>
      <trkpt lat="46.14659" lon="3.44471">
        <ele>307.49</ele>
        <time>2015-04-11T15:37:39Z</time>
      </trkpt>
      <trkpt lat="46.14674" lon="3.44449">
        <ele>307.55</ele>
        <time>2015-04-11T15:37:45Z</time>
      </trkpt>
      <trkpt lat="46.14686" lon="3.44428">
        <ele>307.55</ele>
        <time>2015-04-11T15:37:51Z</time>
      </trkpt>
      <trkpt lat="46.14698" lon="3.44406">
        <ele>307.55</ele>
        <time>2015-04-11T15:37:57Z</time>
      </trkpt>
      <trkpt lat="46.14706" lon="3.44383">
        <ele>307.55</ele>
        <time>2015-04-11T15:38:02Z</time>
      </trkpt>
      <trkpt lat="46.14716" lon="3.44357">
        <ele>306.62</ele>
        <time>2015-04-11T15:38:08Z</time>
      </trkpt>
      <trkpt lat="46.14728" lon="3.44333">
        <ele>306.55</ele>
        <time>2015-04-11T15:38:14Z</time>
      </trkpt>
      <trkpt lat="46.14742" lon="3.44314">
        <ele>306.55</ele>
        <time>2015-04-11T15:38:20Z</time>
      </trkpt>
      <trkpt lat="46.14759" lon="3.44297">
        <ele>305.8</ele>
        <time>2015-04-11T15:38:26Z</time>
      </trkpt>
      <trkpt lat="46.14774" lon="3.44282">
        <ele>305.56</ele>
        <time>2015-04-11T15:38:31Z</time>
      </trkpt>
      <trkpt lat="46.14791" lon="3.44267">
        <ele>305.55</ele>
        <time>2015-04-11T15:38:37Z</time>
      </trkpt>
      <trkpt lat="46.14806" lon="3.44252">
        <ele>305.05</ele>
        <time>2015-04-11T15:38:43Z</time>
      </trkpt>
      <trkpt lat="46.14822" lon="3.44237">
        <ele>304.56</ele>
        <time>2015-04-11T15:38:50Z</time>
      </trkpt>
      <trkpt lat="46.14837" lon="3.44222">
        <ele>304.55</ele>
        <time>2015-04-11T15:38:57Z</time>
      </trkpt>
      <trkpt lat="46.14853" lon="3.44207">
        <ele>304.55</ele>
        <time>2015-04-11T15:39:04Z</time>
      </trkpt>
      <trkpt lat="46.14869" lon="3.44194">
        <ele>304.55</ele>
        <time>2015-04-11T15:39:11Z</time>
      </trkpt>
      <trkpt lat="46.14887" lon="3.44179">
        <ele>305.05</ele>
        <time>2015-04-11T15:39:17Z</time>
      </trkpt>
      <trkpt lat="46.14905" lon="3.4417">
        <ele>305.55</ele>
        <time>2015-04-11T15:39:23Z</time>
      </trkpt>
      <trkpt lat="46.14925" lon="3.44162">
        <ele>305.55</ele>
        <time>2015-04-11T15:39:30Z</time>
      </trkpt>
      <trkpt lat="46.14944" lon="3.44153">
        <ele>305.55</ele>
        <time>2015-04-11T15:39:37Z</time>
      </trkpt>
      <trkpt lat="46.14962" lon="3.44145">
        <ele>305.55</ele>
        <time>2015-04-11T15:39:42Z</time>
      </trkpt>
      <trkpt lat="46.1498" lon="3.4414">
        <ele>305.55</ele>
        <time>2015-04-11T15:39:48Z</time>
      </trkpt>
      <trkpt lat="46.14998" lon="3.44134">
        <ele>305.55</ele>
        <time>2015-04-11T15:39:54Z</time>
      </trkpt>
      <trkpt lat="46.15018" lon="3.44125">
        <ele>306.54</ele>
        <time>2015-04-11T15:40:00Z</time>
      </trkpt>
      <trkpt lat="46.15036" lon="3.44115">
        <ele>307.3</ele>
        <time>2015-04-11T15:40:06Z</time>
      </trkpt>
      <trkpt lat="46.15055" lon="3.44102">
        <ele>309.17</ele>
        <time>2015-04-11T15:40:11Z</time>
      </trkpt>
      <trkpt lat="46.15072" lon="3.44091">
        <ele>311.84</ele>
        <time>2015-04-11T15:40:15Z</time>
      </trkpt>
      <trkpt lat="46.1509" lon="3.44082">
        <ele>313.47</ele>
        <time>2015-04-11T15:40:20Z</time>
      </trkpt>
      <trkpt lat="46.1511" lon="3.44072">
        <ele>313.55</ele>
        <time>2015-04-11T15:40:26Z</time>
      </trkpt>
      <trkpt lat="46.15127" lon="3.44061">
        <ele>314.43</ele>
        <time>2015-04-11T15:40:31Z</time>
      </trkpt>
      <trkpt lat="46.15142" lon="3.44046">
        <ele>315.42</ele>
        <time>2015-04-11T15:40:35Z</time>
      </trkpt>
      <trkpt lat="46.15158" lon="3.44029">
        <ele>314.79</ele>
        <time>2015-04-11T15:40:39Z</time>
      </trkpt>
      <trkpt lat="46.15176" lon="3.44027">
        <ele>314.56</ele>
        <time>2015-04-11T15:40:44Z</time>
      </trkpt>
      <trkpt lat="46.15194" lon="3.44029">
        <ele>314.55</ele>
        <time>2015-04-11T15:40:50Z</time>
      </trkpt>
      <trkpt lat="46.15213" lon="3.44035">
        <ele>314.55</ele>
        <time>2015-04-11T15:40:56Z</time>
      </trkpt>
      <trkpt lat="46.15233" lon="3.44039">
        <ele>314.55</ele>
        <time>2015-04-11T15:41:03Z</time>
      </trkpt>
      <trkpt lat="46.15251" lon="3.44044">
        <ele>314.55</ele>
        <time>2015-04-11T15:41:10Z</time>
      </trkpt>
      <trkpt lat="46.1527" lon="3.44046">
        <ele>314.55</ele>
        <time>2015-04-11T15:41:17Z</time>
      </trkpt>
      <trkpt lat="46.15288" lon="3.44042">
        <ele>314.55</ele>
        <time>2015-04-11T15:41:25Z</time>
      </trkpt>
      <trkpt lat="46.15311" lon="3.44046">
        <ele>315.05</ele>
        <time>2015-04-11T15:41:35Z</time>
      </trkpt>
      <trkpt lat="46.15332" lon="3.44048">
        <ele>315.55</ele>
        <time>2015-04-11T15:41:43Z</time>
      </trkpt>
      <trkpt lat="46.1535" lon="3.44046">
        <ele>315.55</ele>
        <time>2015-04-11T15:41:50Z</time>
      </trkpt>
      <trkpt lat="46.15369" lon="3.44048">
        <ele>316.43</ele>
        <time>2015-04-11T15:41:58Z</time>
      </trkpt>
      <trkpt lat="46.15388" lon="3.44039">
        <ele>317.49</ele>
        <time>2015-04-11T15:42:06Z</time>
      </trkpt>
      <trkpt lat="46.15405" lon="3.44024">
        <ele>318.52</ele>
        <time>2015-04-11T15:42:13Z</time>
      </trkpt>
      <trkpt lat="46.15422" lon="3.44012">
        <ele>319.43</ele>
        <time>2015-04-11T15:42:20Z</time>
      </trkpt>
      <trkpt lat="46.1544" lon="3.44005">
        <ele>319.55</ele>
        <time>2015-04-11T15:42:27Z</time>
      </trkpt>
      <trkpt lat="46.15461" lon="3.44003">
        <ele>320.54</ele>
        <time>2015-04-11T15:42:35Z</time>
      </trkpt>
      <trkpt lat="46.1548" lon="3.44007">
        <ele>321.05</ele>
        <time>2015-04-11T15:42:45Z</time>
      </trkpt>
      <trkpt lat="46.15501" lon="3.44003">
        <ele>322.49</ele>
        <time>2015-04-11T15:42:57Z</time>
      </trkpt>
      <trkpt lat="46.15518" lon="3.4399">
        <ele>323.55</ele>
        <time>2015-04-11T15:43:06Z</time>
      </trkpt>
      <trkpt lat="46.15536" lon="3.43982">
        <ele>324.43</ele>
        <time>2015-04-11T15:43:14Z</time>
      </trkpt>
      <trkpt lat="46.15554" lon="3.43982">
        <ele>325.43</ele>
        <time>2015-04-11T15:43:22Z</time>
      </trkpt>
      <trkpt lat="46.15573" lon="3.43986">
        <ele>326.49</ele>
        <time>2015-04-11T15:43:30Z</time>
      </trkpt>
      <trkpt lat="46.15592" lon="3.43988">
        <ele>327.49</ele>
        <time>2015-04-11T15:43:38Z</time>
      </trkpt>
      <trkpt lat="46.15613" lon="3.4399">
        <ele>328.43</ele>
        <time>2015-04-11T15:43:46Z</time>
      </trkpt>
      <trkpt lat="46.15633" lon="3.43994">
        <ele>329.43</ele>
        <time>2015-04-11T15:43:54Z</time>
      </trkpt>
      <trkpt lat="46.15653" lon="3.43999">
        <ele>330.3</ele>
        <time>2015-04-11T15:44:02Z</time>
      </trkpt>
      <trkpt lat="46.15672" lon="3.44001">
        <ele>331.3</ele>
        <time>2015-04-11T15:44:10Z</time>
      </trkpt>
      <trkpt lat="46.15689" lon="3.44009">
        <ele>332.05</ele>
        <time>2015-04-11T15:44:17Z</time>
      </trkpt>
      <trkpt lat="46.15706" lon="3.44018">
        <ele>333.05</ele>
        <time>2015-04-11T15:44:24Z</time>
      </trkpt>
      <trkpt lat="46.15724" lon="3.44029">
        <ele>334.3</ele>
        <time>2015-04-11T15:44:32Z</time>
      </trkpt>
      <trkpt lat="46.15742" lon="3.44039">
        <ele>335.43</ele>
        <time>2015-04-11T15:44:40Z</time>
      </trkpt>
      <trkpt lat="46.15759" lon="3.4405">
        <ele>336.52</ele>
        <time>2015-04-11T15:44:48Z</time>
      </trkpt>
      <trkpt lat="46.15776" lon="3.44061">
        <ele>337.55</ele>
        <time>2015-04-11T15:44:57Z</time>
      </trkpt>
      <trkpt lat="46.15794" lon="3.44074">
        <ele>339.43</ele>
        <time>2015-04-11T15:45:08Z</time>
      </trkpt>
      <trkpt lat="46.15812" lon="3.4408">
        <ele>340.49</ele>
        <time>2015-04-11T15:45:18Z</time>
      </trkpt>
      <trkpt lat="46.15832" lon="3.44082">
        <ele>341.49</ele>
        <time>2015-04-11T15:45:26Z</time>
      </trkpt>
      <trkpt lat="46.15852" lon="3.44076">
        <ele>342.49</ele>
        <time>2015-04-11T15:45:34Z</time>
      </trkpt>
      <trkpt lat="46.1587" lon="3.44065">
        <ele>342.55</ele>
        <time>2015-04-11T15:45:41Z</time>
      </trkpt>
      <trkpt lat="46.15886" lon="3.44052">
        <ele>343.3</ele>
        <time>2015-04-11T15:45:49Z</time>
      </trkpt>
      <trkpt lat="46.15895" lon="3.44029">
        <ele>343.55</ele>
        <time>2015-04-11T15:46:02Z</time>
      </trkpt>
      <trkpt lat="46.15899" lon="3.44003">
        <ele>344.55</ele>
        <time>2015-04-11T15:46:17Z</time>
      </trkpt>
      <trkpt lat="46.15904" lon="3.43977">
        <ele>346.43</ele>
        <time>2015-04-11T15:46:31Z</time>
      </trkpt>
      <trkpt lat="46.15908" lon="3.43951">
        <ele>349.42</ele>
        <time>2015-04-11T15:46:46Z</time>
      </trkpt>
      <trkpt lat="46.15913" lon="3.43926">
        <ele>351.54</ele>
        <time>2015-04-11T15:46:59Z</time>
      </trkpt>
      <trkpt lat="46.15921" lon="3.43902">
        <ele>355.3</ele>
        <time>2015-04-11T15:47:19Z</time>
      </trkpt>
      <trkpt lat="46.15935" lon="3.43885">
        <ele>359.41</ele>
        <time>2015-04-11T15:47:35Z</time>
      </trkpt>
      <trkpt lat="46.15942" lon="3.43859">
        <ele>364.42</ele>
        <time>2015-04-11T15:47:51Z</time>
      </trkpt>
      <trkpt lat="46.15944" lon="3.43831">
        <ele>368.02</ele>
        <time>2015-04-11T15:48:04Z</time>
      </trkpt>
      <trkpt lat="46.1595" lon="3.43806">
        <ele>370.42</ele>
        <time>2015-04-11T15:48:14Z</time>
      </trkpt>
      <trkpt lat="46.15967" lon="3.43795">
        <ele>372.42</ele>
        <time>2015-04-11T15:48:23Z</time>
      </trkpt>
      <trkpt lat="46.15986" lon="3.43791">
        <ele>374.29</ele>
        <time>2015-04-11T15:48:31Z</time>
      </trkpt>
      <trkpt lat="46.16004" lon="3.43784">
        <ele>376.04</ele>
        <time>2015-04-11T15:48:40Z</time>
      </trkpt>
      <trkpt lat="46.16019" lon="3.43765">
        <ele>377.49</ele>
        <time>2015-04-11T15:48:49Z</time>
      </trkpt>
      <trkpt lat="46.16036" lon="3.43752">
        <ele>378.49</ele>
        <time>2015-04-11T15:48:56Z</time>
      </trkpt>
      <trkpt lat="46.16048" lon="3.4373">
        <ele>379.49</ele>
        <time>2015-04-11T15:49:04Z</time>
      </trkpt>
      <trkpt lat="46.16061" lon="3.43709">
        <ele>380.43</ele>
        <time>2015-04-11T15:49:11Z</time>
      </trkpt>
      <trkpt lat="46.16079" lon="3.43694">
        <ele>381.55</ele>
        <time>2015-04-11T15:49:16Z</time>
      </trkpt>
      <trkpt lat="46.16101" lon="3.43692">
        <ele>384.8</ele>
        <time>2015-04-11T15:49:20Z</time>
      </trkpt>
      <trkpt lat="46.1612" lon="3.43698">
        <ele>386.21</ele>
        <time>2015-04-11T15:49:23Z</time>
      </trkpt>
      <trkpt lat="46.1614" lon="3.43705">
        <ele>387.26</ele>
        <time>2015-04-11T15:49:26Z</time>
      </trkpt>
      <trkpt lat="46.16158" lon="3.43707">
        <ele>387.52</ele>
        <time>2015-04-11T15:49:29Z</time>
      </trkpt>
      <trkpt lat="46.16176" lon="3.43709">
        <ele>387.55</ele>
        <time>2015-04-11T15:49:32Z</time>
      </trkpt>
      <trkpt lat="46.16195" lon="3.43713">
        <ele>387.55</ele>
        <time>2015-04-11T15:49:35Z</time>
      </trkpt>
      <trkpt lat="46.16216" lon="3.43715">
        <ele>387.05</ele>
        <time>2015-04-11T15:49:38Z</time>
      </trkpt>
      <trkpt lat="46.16238" lon="3.4372">
        <ele>386.62</ele>
        <time>2015-04-11T15:49:41Z</time>
      </trkpt>
      <trkpt lat="46.16263" lon="3.43718">
        <ele>386.56</ele>
        <time>2015-04-11T15:49:44Z</time>
      </trkpt>
      <trkpt lat="46.1628" lon="3.43703">
        <ele>386.55</ele>
        <time>2015-04-11T15:49:46Z</time>
      </trkpt>
      <trkpt lat="46.16297" lon="3.43683">
        <ele>385.8</ele>
        <time>2015-04-11T15:49:48Z</time>
      </trkpt>
      <trkpt lat="46.16317" lon="3.43664">
        <ele>383.87</ele>
        <time>2015-04-11T15:49:50Z</time>
      </trkpt>
      <trkpt lat="46.16339" lon="3.43645">
        <ele>380.38</ele>
        <time>2015-04-11T15:49:52Z</time>
      </trkpt>
      <trkpt lat="46.16364" lon="3.43627">
        <ele>376.51</ele>
        <time>2015-04-11T15:49:54Z</time>
      </trkpt>
      <trkpt lat="46.16386" lon="3.4361">
        <ele>373.29</ele>
        <time>2015-04-11T15:49:56Z</time>
      </trkpt>
      <trkpt lat="46.16407" lon="3.43597">
        <ele>369.24</ele>
        <time>2015-04-11T15:49:58Z</time>
      </trkpt>
      <trkpt lat="46.16427" lon="3.43591">
        <ele>365.97</ele>
        <time>2015-04-11T15:50:00Z</time>
      </trkpt>
      <trkpt lat="46.16453" lon="3.43587">
        <ele>362.61</ele>
        <time>2015-04-11T15:50:03Z</time>
      </trkpt>
      <trkpt lat="46.16473" lon="3.43591">
        <ele>360.81</ele>
        <time>2015-04-11T15:50:06Z</time>
      </trkpt>
      <trkpt lat="46.16493" lon="3.43597">
        <ele>359.71</ele>
        <time>2015-04-11T15:50:09Z</time>
      </trkpt>
      <trkpt lat="46.16515" lon="3.43602">
        <ele>359.06</ele>
        <time>2015-04-11T15:50:13Z</time>
      </trkpt>
      <trkpt lat="46.16536" lon="3.43606">
        <ele>358.08</ele>
        <time>2015-04-11T15:50:17Z</time>
      </trkpt>
      <trkpt lat="46.16555" lon="3.4361">
        <ele>356.21</ele>
        <time>2015-04-11T15:50:21Z</time>
      </trkpt>
      <trkpt lat="46.16574" lon="3.43608">
        <ele>354.84</ele>
        <time>2015-04-11T15:50:25Z</time>
      </trkpt>
      <trkpt lat="46.16593" lon="3.43606">
        <ele>353.62</ele>
        <time>2015-04-11T15:50:30Z</time>
      </trkpt>
      <trkpt lat="46.16613" lon="3.43604">
        <ele>353.06</ele>
        <time>2015-04-11T15:50:34Z</time>
      </trkpt>
      <trkpt lat="46.16631" lon="3.43604">
        <ele>352.62</ele>
        <time>2015-04-11T15:50:37Z</time>
      </trkpt>
      <trkpt lat="46.16651" lon="3.43602">
        <ele>352.56</ele>
        <time>2015-04-11T15:50:41Z</time>
      </trkpt>
      <trkpt lat="46.16671" lon="3.43593">
        <ele>351.8</ele>
        <time>2015-04-11T15:50:45Z</time>
      </trkpt>
      <trkpt lat="46.16691" lon="3.43595">
        <ele>351.07</ele>
        <time>2015-04-11T15:50:49Z</time>
      </trkpt>
      <trkpt lat="46.16712" lon="3.43606">
        <ele>350.59</ele>
        <time>2015-04-11T15:50:53Z</time>
      </trkpt>
      <trkpt lat="46.16732" lon="3.43615">
        <ele>350.56</ele>
        <time>2015-04-11T15:50:57Z</time>
      </trkpt>
      <trkpt lat="46.16751" lon="3.43621">
        <ele>350.05</ele>
        <time>2015-04-11T15:51:01Z</time>
      </trkpt>
      <trkpt lat="46.16772" lon="3.43632">
        <ele>349.57</ele>
        <time>2015-04-11T15:51:06Z</time>
      </trkpt>
      <trkpt lat="46.16789" lon="3.4364">
        <ele>349.05</ele>
        <time>2015-04-11T15:51:10Z</time>
      </trkpt>
      <trkpt lat="46.16808" lon="3.43649">
        <ele>347.69</ele>
        <time>2015-04-11T15:51:15Z</time>
      </trkpt>
      <trkpt lat="46.16825" lon="3.43657">
        <ele>346.62</ele>
        <time>2015-04-11T15:51:20Z</time>
      </trkpt>
      <trkpt lat="46.16835" lon="3.43683">
        <ele>345.8</ele>
        <time>2015-04-11T15:51:28Z</time>
      </trkpt>
      <trkpt lat="46.16849" lon="3.437">
        <ele>344.8</ele>
        <time>2015-04-11T15:51:36Z</time>
      </trkpt>
      <trkpt lat="46.16855" lon="3.43726">
        <ele>344.55</ele>
        <time>2015-04-11T15:51:44Z</time>
      </trkpt>
      <trkpt lat="46.16876" lon="3.43741">
        <ele>343.68</ele>
        <time>2015-04-11T15:51:51Z</time>
      </trkpt>
      <trkpt lat="46.16898" lon="3.43748">
        <ele>342.69</ele>
        <time>2015-04-11T15:51:55Z</time>
      </trkpt>
      <trkpt lat="46.16917" lon="3.43752">
        <ele>341.69</ele>
        <time>2015-04-11T15:51:58Z</time>
      </trkpt>
      <trkpt lat="46.16937" lon="3.43752">
        <ele>341.57</ele>
        <time>2015-04-11T15:52:01Z</time>
      </trkpt>
      <trkpt lat="46.16956" lon="3.43754">
        <ele>341.56</ele>
        <time>2015-04-11T15:52:04Z</time>
      </trkpt>
      <trkpt lat="46.16979" lon="3.43756">
        <ele>340.68</ele>
        <time>2015-04-11T15:52:07Z</time>
      </trkpt>
      <trkpt lat="46.17004" lon="3.43748">
        <ele>339.32</ele>
        <time>2015-04-11T15:52:10Z</time>
      </trkpt>
      <trkpt lat="46.17028" lon="3.43733">
        <ele>335.65</ele>
        <time>2015-04-11T15:52:13Z</time>
      </trkpt>
      <trkpt lat="46.17043" lon="3.43713">
        <ele>333.58</ele>
        <time>2015-04-11T15:52:15Z</time>
      </trkpt>
      <trkpt lat="46.17058" lon="3.43694">
        <ele>332.06</ele>
        <time>2015-04-11T15:52:17Z</time>
      </trkpt>
      <trkpt lat="46.17072" lon="3.43675">
        <ele>329.49</ele>
        <time>2015-04-11T15:52:20Z</time>
      </trkpt>
      <trkpt lat="46.17095" lon="3.43666">
        <ele>325.55</ele>
        <time>2015-04-11T15:52:24Z</time>
      </trkpt>
      <trkpt lat="46.17117" lon="3.4366">
        <ele>323.74</ele>
        <time>2015-04-11T15:52:28Z</time>
      </trkpt>
      <trkpt lat="46.17139" lon="3.43649">
        <ele>322.69</ele>
        <time>2015-04-11T15:52:32Z</time>
      </trkpt>
      <trkpt lat="46.17159" lon="3.43638">
        <ele>322.56</ele>
        <time>2015-04-11T15:52:36Z</time>
      </trkpt>
      <trkpt lat="46.17178" lon="3.43627">
        <ele>323.49</ele>
        <time>2015-04-11T15:52:40Z</time>
      </trkpt>
      <trkpt lat="46.17198" lon="3.43619">
        <ele>323.55</ele>
        <time>2015-04-11T15:52:44Z</time>
      </trkpt>
      <trkpt lat="46.17217" lon="3.4361">
        <ele>322.68</ele>
        <time>2015-04-11T15:52:48Z</time>
      </trkpt>
      <trkpt lat="46.17232" lon="3.43593">
        <ele>321.62</ele>
        <time>2015-04-11T15:52:52Z</time>
      </trkpt>
      <trkpt lat="46.17247" lon="3.43574">
        <ele>321.06</ele>
        <time>2015-04-11T15:52:56Z</time>
      </trkpt>
      <trkpt lat="46.17259" lon="3.43548">
        <ele>319.63</ele>
        <time>2015-04-11T15:53:01Z</time>
      </trkpt>
      <trkpt lat="46.1727" lon="3.43522">
        <ele>319.56</ele>
        <time>2015-04-11T15:53:06Z</time>
      </trkpt>
      <trkpt lat="46.17275" lon="3.43494">
        <ele>319.55</ele>
        <time>2015-04-11T15:53:11Z</time>
      </trkpt>
      <trkpt lat="46.17266" lon="3.43469">
        <ele>319.05</ele>
        <time>2015-04-11T15:53:22Z</time>
      </trkpt>
      <trkpt lat="46.17251" lon="3.43449">
        <ele>319.05</ele>
        <time>2015-04-11T15:53:31Z</time>
      </trkpt>
      <trkpt lat="46.17244" lon="3.43424">
        <ele>319.55</ele>
        <time>2015-04-11T15:53:37Z</time>
      </trkpt>
      <trkpt lat="46.17238" lon="3.43398">
        <ele>319.55</ele>
        <time>2015-04-11T15:53:43Z</time>
      </trkpt>
      <trkpt lat="46.17232" lon="3.43372">
        <ele>320.52</ele>
        <time>2015-04-11T15:53:48Z</time>
      </trkpt>
      <trkpt lat="46.17223" lon="3.43349">
        <ele>320.55</ele>
        <time>2015-04-11T15:53:53Z</time>
      </trkpt>
      <trkpt lat="46.17217" lon="3.43321">
        <ele>321.52</ele>
        <time>2015-04-11T15:53:59Z</time>
      </trkpt>
      <trkpt lat="46.17211" lon="3.43295">
        <ele>322.3</ele>
        <time>2015-04-11T15:54:05Z</time>
      </trkpt>
      <trkpt lat="46.17213" lon="3.43265">
        <ele>323.49</ele>
        <time>2015-04-11T15:54:13Z</time>
      </trkpt>
      <trkpt lat="46.17215" lon="3.43237">
        <ele>324.3</ele>
        <time>2015-04-11T15:54:20Z</time>
      </trkpt>
      <trkpt lat="46.17216" lon="3.43209">
        <ele>324.55</ele>
        <time>2015-04-11T15:54:27Z</time>
      </trkpt>
      <trkpt lat="46.17217" lon="3.43181">
        <ele>324.55</ele>
        <time>2015-04-11T15:54:34Z</time>
      </trkpt>
      <trkpt lat="46.17213" lon="3.43155">
        <ele>324.55</ele>
        <time>2015-04-11T15:54:40Z</time>
      </trkpt>
      <trkpt lat="46.17202" lon="3.43132">
        <ele>325.43</ele>
        <time>2015-04-11T15:54:45Z</time>
      </trkpt>
      <trkpt lat="46.17187" lon="3.43117">
        <ele>325.55</ele>
        <time>2015-04-11T15:54:49Z</time>
      </trkpt>
      <trkpt lat="46.17157" lon="3.43104">
        <ele>325.55</ele>
        <time>2015-04-11T15:54:53Z</time>
      </trkpt>
      <trkpt lat="46.17139" lon="3.43097">
        <ele>325.55</ele>
        <time>2015-04-11T15:54:56Z</time>
      </trkpt>
      <trkpt lat="46.17112" lon="3.43089">
        <ele>326.43</ele>
        <time>2015-04-11T15:55:00Z</time>
      </trkpt>
      <trkpt lat="46.1709" lon="3.4308">
        <ele>326.55</ele>
        <time>2015-04-11T15:55:04Z</time>
      </trkpt>
      <trkpt lat="46.17071" lon="3.43065">
        <ele>326.55</ele>
        <time>2015-04-11T15:55:10Z</time>
      </trkpt>
      <trkpt lat="46.17055" lon="3.43048">
        <ele>326.55</ele>
        <time>2015-04-11T15:55:19Z</time>
      </trkpt>
      <trkpt lat="46.17038" lon="3.43057">
        <ele>326.55</ele>
        <time>2015-04-11T15:55:43Z</time>
      </trkpt>
      <trkpt lat="46.17026" lon="3.43085">
        <ele>326.55</ele>
        <time>2015-04-11T15:55:54Z</time>
      </trkpt>
      <trkpt lat="46.17017" lon="3.43108">
        <ele>326.55</ele>
        <time>2015-04-11T15:56:03Z</time>
      </trkpt>
      <trkpt lat="46.17034" lon="3.43117">
        <ele>327.43</ele>
        <time>2015-04-11T15:56:40Z</time>
      </trkpt>
    </trkseg>
  </trk>
</gpx>